| time (UTC) | temp F | wind direction | speed knots | gust knots | rain 1hr in | rain 24hr in | rain mn in | humidity % | barometer mb |
| 20260510153429 | 73 | 346 | 1.7 | 3.5 | 0.00 | 0.00 | 0.00 | 40 | 1004.5 |
| 20260510153329 | 73 | 346 | 1.7 | 3.5 | 0.00 | 0.00 | 0.00 | 40 | 1004.5 |
| 20260510153228 | 73 | 346 | 1.7 | 4.3 | 0.00 | 0.00 | 0.00 | 39 | 1004.5 |
| 20260510153128 | 73 | 346 | 1.7 | 5.2 | 0.00 | 0.00 | 0.00 | 39 | 1004.6 |
| 20260510153029 | 73 | 346 | 2.6 | 5.2 | 0.00 | 0.00 | 0.00 | 38 | 1004.6 |
| 20260510152929 | 73 | 346 | 2.6 | 5.2 | 0.00 | 0.00 | 0.00 | 38 | 1004.6 |
| 20260510152829 | 73 | 347 | 1.7 | 5.2 | 0.00 | 0.00 | 0.00 | 38 | 1004.6 |
| 20260510152753 | 73 | 347 | 1.7 | 5.2 | 0.00 | 0.00 | 0.00 | 38 | 1004.6 |
| 20260510152748 | 73 | 347 | 1.7 | 5.2 | 0.00 | 0.00 | 0.00 | 38 | 1004.6 |
| 20260510152740 | 73 | 347 | 1.7 | 5.2 | 0.00 | 0.00 | 0.00 | 38 | 1004.6 |
| 20260510152429 | 73 | 338 | 1.7 | 5.2 | 0.00 | 0.00 | 0.00 | 39 | 1004.6 |
| 20260510152329 | 73 | 339 | 1.7 | 5.2 | 0.00 | 0.00 | 0.00 | 38 | 1004.7 |
| 20260510152252 | 73 | 0 | 0.9 | 5.2 | 0.00 | 0.00 | 0.00 | 39 | 1004.7 |
| 20260510152248 | 73 | 82 | 0.9 | 3.5 | 0.00 | 0.00 | 0.00 | 38 | 1004.7 |
| 20260510152239 | 73 | 84 | 0.9 | 3.5 | 0.00 | 0.00 | 0.00 | 39 | 1004.7 |
| 20260510151929 | 73 | 84 | 0.9 | 3.5 | 0.00 | 0.00 | 0.00 | 40 | 1004.7 |
| 20260510151829 | 73 | 84 | 0.9 | 3.5 | 0.00 | 0.00 | 0.00 | 38 | 1004.7 |
| 20260510151729 | 73 | 84 | 0.9 | 3.5 | 0.00 | 0.00 | 0.00 | 38 | 1004.7 |
| 20260510151628 | 73 | 84 | 0.9 | 3.5 | 0.00 | 0.00 | 0.00 | 38 | 1004.7 |
| 20260510151528 | 73 | 76 | 0.9 | 3.5 | 0.00 | 0.00 | 0.00 | 39 | 1004.7 |
| 20260510151515 | 73 | 77 | 1.7 | 6.1 | 0.00 | 0.00 | 0.00 | 41 | 1004.9 |
| 20260510151510 | 73 | 76 | 0.9 | 3.5 | 0.00 | 0.00 | 0.00 | 39 | 1004.9 |
| 20260510151506 | 73 | 77 | 0.9 | 3.5 | 0.00 | 0.00 | 0.00 | 40 | 1004.7 |
| 20260510151249 | 73 | 77 | 0.9 | 3.5 | 0.00 | 0.00 | 0.00 | 41 | 1004.9 |
| 20260510151245 | 73 | 77 | 1.7 | 6.1 | 0.00 | 0.00 | 0.00 | 43 | 1004.9 |
| 20260510151025 | 73 | 77 | 1.7 | 6.1 | 0.00 | 0.00 | 0.00 | 41 | 1004.9 |
| 20260510150925 | 73 | 77 | 1.7 | 7.0 | 0.00 | 0.00 | 0.00 | 41 | 1004.9 |
| 20260510150825 | 73 | 80 | 1.7 | 7.0 | 0.00 | 0.00 | 0.00 | 41 | 1004.9 |
| 20260510150725 | 73 | 81 | 1.7 | 7.0 | 0.00 | 0.00 | 0.00 | 39 | 1004.9 |
| 20260510150619 | 73 | 77 | 1.7 | 7.0 | 0.00 | 0.00 | 0.00 | 39 | 1004.9 |
| 20260510150529 | 73 | 76 | 1.7 | 7.0 | 0.00 | 0.00 | 0.00 | 40 | 1004.9 |
| 20260510150519 | 73 | 72 | 1.7 | 7.0 | 0.00 | 0.00 | 0.00 | 40 | 1004.9 |
| 20260510150419 | 73 | 71 | 1.7 | 7.0 | 0.00 | 0.00 | 0.00 | 38 | 1005.0 |
| 20260510150319 | 73 | 98 | 1.7 | 7.0 | 0.00 | 0.00 | 0.00 | 40 | 1004.9 |
| 20260510150219 | 73 | 90 | 0.9 | 7.0 | 0.00 | 0.00 | 0.00 | 38 | 1004.9 |
| 20260510150113 | 73 | 133 | 0.9 | 7.0 | 0.00 | 0.00 | 0.00 | 37 | 1004.9 |
| 20260510150029 | 73 | 160 | 0.9 | 7.0 | 0.00 | 0.00 | 0.00 | 38 | 1005.0 |
| 20260510150013 | 73 | 132 | 0.9 | 7.0 | 0.00 | 0.00 | 0.00 | 38 | 1005.0 |
| 20260510145912 | 73 | 109 | 0.9 | 3.5 | 0.00 | 0.00 | 0.00 | 39 | 1005.0 |
| 20260510145812 | 73 | 36 | 0.9 | 3.5 | 0.00 | 0.00 | 0.00 | 39 | 1005.0 |
| 20260510145713 | 73 | 36 | 0.9 | 3.5 | 0.00 | 0.00 | 0.00 | 39 | 1005.0 |
| 20260510145613 | 73 | 36 | 0.9 | 3.5 | 0.00 | 0.00 | 0.00 | 40 | 1005.0 |
| 20260510145528 | 73 | 36 | 0.9 | 3.5 | 0.00 | 0.00 | 0.00 | 40 | 1005.0 |
| 20260510145513 | 73 | 37 | 0.9 | 3.5 | 0.00 | 0.00 | 0.00 | 40 | 1005.0 |
| 20260510145413 | 73 | 37 | 0.9 | 3.5 | 0.00 | 0.00 | 0.00 | 39 | 1005.0 |
| 20260510145311 | 73 | 36 | 0.9 | 3.5 | 0.00 | 0.00 | 0.00 | 39 | 1005.0 |
| 20260510145209 | 73 | 36 | 1.7 | 3.5 | 0.00 | 0.00 | 0.00 | 40 | 1005.1 |
| 20260510145108 | 73 | 56 | 1.7 | 3.5 | 0.00 | 0.00 | 0.00 | 38 | 1005.1 |
| 20260510145008 | 73 | 53 | 1.7 | 3.5 | 0.00 | 0.00 | 0.00 | 38 | 1005.0 |
| 20260510144909 | 73 | 46 | 1.7 | 3.5 | 0.00 | 0.00 | 0.00 | 39 | 1005.1 |
| 20260510144809 | 73 | 100 | 1.7 | 3.5 | 0.00 | 0.00 | 0.00 | 38 | 1005.0 |
| 20260510144707 | 73 | 100 | 1.7 | 3.5 | 0.00 | 0.00 | 0.00 | 37 | 1005.1 |
| 20260510144607 | 73 | 111 | 1.7 | 3.5 | 0.00 | 0.00 | 0.00 | 37 | 1005.0 |
| 20260510144522 | 74 | 78 | 1.7 | 3.5 | 0.00 | 0.00 | 0.00 | 37 | 1005.1 |
| 20260510144505 | 74 | 98 | 1.7 | 3.5 | 0.00 | 0.00 | 0.00 | 38 | 1005.1 |
| 20260510144405 | 74 | 113 | 1.7 | 3.5 | 0.00 | 0.00 | 0.00 | 40 | 1005.1 |
| 20260510144303 | 74 | 90 | 1.7 | 3.5 | 0.00 | 0.00 | 0.00 | 39 | 1005.1 |
| 20260510144202 | 74 | 90 | 1.7 | 4.3 | 0.00 | 0.00 | 0.00 | 38 | 1005.1 |
| 20260510144100 | 74 | 103 | 1.7 | 4.3 | 0.00 | 0.00 | 0.00 | 40 | 1005.2 |
| 20260510144023 | 74 | 103 | 1.7 | 5.2 | 0.00 | 0.00 | 0.00 | 38 | 1005.2 |
| 20260510144001 | 74 | 102 | 1.7 | 7.0 | 0.00 | 0.00 | 0.00 | 40 | 1005.2 |
| 20260510143901 | 74 | 103 | 1.7 | 7.0 | 0.00 | 0.00 | 0.00 | 39 | 1005.2 |
| 20260510143800 | 74 | 103 | 2.6 | 7.0 | 0.00 | 0.00 | 0.00 | 39 | 1005.2 |
| 20260510143751 | 74 | 110 | 2.6 | 7.8 | 0.00 | 0.00 | 0.00 | 41 | 1005.3 |
| 20260510143742 | 74 | 106 | 2.6 | 7.0 | 0.00 | 0.00 | 0.00 | 40 | 1005.2 |
| 20260510143738 | 74 | 108 | 2.6 | 7.8 | 0.00 | 0.00 | 0.00 | 40 | 1005.3 |
| 20260510143501 | 74 | 107 | 2.6 | 7.8 | 0.00 | 0.00 | 0.00 | 40 | 1005.3 |
| 20260510143401 | 73 | 108 | 2.6 | 7.8 | 0.00 | 0.00 | 0.00 | 43 | 1005.3 |
| 20260510143302 | 73 | 73 | 2.6 | 7.8 | 0.00 | 0.00 | 0.00 | 43 | 1005.3 |
| 20260510143246 | 73 | 89 | 1.7 | 7.8 | 0.00 | 0.00 | 0.00 | 43 | 1005.3 |
| 20260510143241 | 73 | 55 | 1.7 | 7.8 | 0.00 | 0.00 | 0.00 | 42 | 1005.3 |
| 20260510143237 | 73 | 82 | 1.7 | 7.8 | 0.00 | 0.00 | 0.00 | 42 | 1005.3 |
| 20260510143000 | 73 | 87 | 1.7 | 7.8 | 0.00 | 0.00 | 0.00 | 43 | 1005.3 |
| 20260510142901 | 73 | 33 | 1.7 | 7.8 | 0.00 | 0.00 | 0.00 | 43 | 1005.3 |
| 20260510142801 | 72 | 72 | 1.7 | 7.8 | 0.00 | 0.00 | 0.00 | 42 | 1005.3 |
| 20260510142701 | 72 | 115 | 0.9 | 7.8 | 0.00 | 0.00 | 0.00 | 46 | 1005.3 |
| 20260510142601 | 72 | 77 | 0.9 | 4.3 | 0.00 | 0.00 | 0.00 | 44 | 1005.3 |
| 20260510142522 | 72 | 78 | 0.9 | 4.3 | 0.00 | 0.00 | 0.00 | 43 | 1005.3 |
| 20260510142501 | 72 | 90 | 0.9 | 2.6 | 0.00 | 0.00 | 0.00 | 43 | 1005.3 |
| 20260510142401 | 72 | 82 | 0.9 | 3.5 | 0.00 | 0.00 | 0.00 | 45 | 1005.3 |
| 20260510142301 | 72 | 86 | 0.9 | 4.3 | 0.00 | 0.00 | 0.00 | 45 | 1005.3 |
| 20260510142201 | 72 | 80 | 0.9 | 4.3 | 0.00 | 0.00 | 0.00 | 43 | 1005.3 |
| 20260510142101 | 72 | 98 | 1.7 | 7.0 | 0.00 | 0.00 | 0.00 | 44 | 1005.3 |
| 20260510142023 | 72 | 98 | 1.7 | 7.0 | 0.00 | 0.00 | 0.00 | 45 | 1005.4 |
| 20260510142001 | 72 | 94 | 1.7 | 7.0 | 0.00 | 0.00 | 0.00 | 45 | 1005.4 |
| 20260510141901 | 72 | 115 | 1.7 | 7.0 | 0.00 | 0.00 | 0.00 | 45 | 1005.4 |
| 20260510141800 | 72 | 96 | 1.7 | 7.0 | 0.00 | 0.00 | 0.00 | 46 | 1005.4 |
| 20260510141700 | 72 | 94 | 1.7 | 7.0 | 0.00 | 0.00 | 0.00 | 46 | 1005.4 |
| 20260510141600 | 72 | 95 | 1.7 | 7.0 | 0.00 | 0.00 | 0.00 | 45 | 1005.4 |
| 20260510141524 | 72 | 88 | 1.7 | 7.0 | 0.00 | 0.00 | 0.00 | 46 | 1005.4 |
| 20260510141500 | 72 | 75 | 1.7 | 7.0 | 0.00 | 0.00 | 0.00 | 46 | 1005.4 |
| 20260510141400 | 72 | 62 | 1.7 | 7.0 | 0.00 | 0.00 | 0.00 | 47 | 1005.4 |
| 20260510141258 | 72 | 91 | 1.7 | 7.0 | 0.00 | 0.00 | 0.00 | 45 | 1005.3 |
| 20260510141153 | 72 | 94 | 1.7 | 7.0 | 0.00 | 0.00 | 0.00 | 44 | 1005.4 |
| 20260510141053 | 72 | 104 | 1.7 | 7.0 | 0.00 | 0.00 | 0.00 | 46 | 1005.5 |
| 20260510141022 | 72 | 117 | 1.7 | 7.0 | 0.00 | 0.00 | 0.00 | 46 | 1005.5 |
| 20260510140953 | 72 | 115 | 1.7 | 7.0 | 0.00 | 0.00 | 0.00 | 46 | 1005.5 |
| 20260510140853 | 72 | 123 | 1.7 | 7.0 | 0.00 | 0.00 | 0.00 | 46 | 1005.5 |
| 20260510140753 | 72 | 83 | 1.7 | 7.0 | 0.00 | 0.00 | 0.00 | 45 | 1005.5 |
| 20260510140646 | 72 | 83 | 1.7 | 7.0 | 0.00 | 0.00 | 0.00 | 45 | 1005.5 |
| 20260510140546 | 72 | 121 | 0.9 | 7.0 | 0.00 | 0.00 | 0.00 | 45 | 1005.5 |
| 20260510140523 | 72 | 72 | 0.9 | 7.0 | 0.00 | 0.00 | 0.00 | 45 | 1005.5 |
| 20260510140447 | 72 | 68 | 0.9 | 6.1 | 0.00 | 0.00 | 0.00 | 44 | 1005.5 |
| 20260510140347 | 72 | 101 | 1.7 | 5.2 | 0.00 | 0.00 | 0.00 | 44 | 1005.5 |
| 20260510140247 | 72 | 79 | 1.7 | 6.1 | 0.00 | 0.00 | 0.00 | 43 | 1005.5 |
| 20260510140141 | 72 | 103 | 1.7 | 7.8 | 0.00 | 0.00 | 0.00 | 44 | 1005.5 |
| 20260510140045 | 72 | 76 | 1.7 | 8.7 | 0.00 | 0.00 | 0.00 | 44 | 1005.5 |
| 20260510140022 | 72 | 136 | 1.7 | 8.7 | 0.00 | 0.00 | 0.00 | 44 | 1005.5 |
| 20260510135941 | 72 | 59 | 1.7 | 8.7 | 0.00 | 0.00 | 0.00 | 44 | 1005.5 |
| 20260510135840 | 72 | 99 | 1.7 | 8.7 | 0.00 | 0.00 | 0.00 | 45 | 1005.6 |
| 20260510135740 | 72 | 100 | 1.7 | 8.7 | 0.00 | 0.00 | 0.00 | 43 | 1005.5 |
| 20260510135640 | 72 | 91 | 1.7 | 8.7 | 0.00 | 0.00 | 0.00 | 45 | 1005.6 |
| 20260510135542 | 72 | 65 | 1.7 | 8.7 | 0.00 | 0.00 | 0.00 | 45 | 1005.6 |
| 20260510135522 | 72 | 99 | 1.7 | 8.7 | 0.00 | 0.00 | 0.00 | 45 | 1005.6 |
| 20260510135440 | 72 | 62 | 1.7 | 8.7 | 0.00 | 0.00 | 0.00 | 46 | 1005.6 |
| 20260510135338 | 71 | 57 | 1.7 | 8.7 | 0.00 | 0.00 | 0.00 | 46 | 1005.6 |
| 20260510135238 | 71 | 28 | 1.7 | 8.7 | 0.00 | 0.00 | 0.00 | 46 | 1005.6 |
| 20260510135138 | 71 | 53 | 1.7 | 8.7 | 0.00 | 0.00 | 0.00 | 46 | 1005.6 |
| 20260510135039 | 71 | 82 | 1.7 | 7.8 | 0.00 | 0.00 | 0.00 | 45 | 1005.6 |
| 20260510135022 | 71 | 82 | 1.7 | 7.8 | 0.00 | 0.00 | 0.00 | 46 | 1005.6 |
| 20260510134939 | 71 | 21 | 1.7 | 5.2 | 0.00 | 0.00 | 0.00 | 47 | 1005.6 |
| 20260510134837 | 71 | 97 | 1.7 | 5.2 | 0.00 | 0.00 | 0.00 | 45 | 1005.7 |
| 20260510134736 | 71 | 97 | 1.7 | 5.2 | 0.00 | 0.00 | 0.00 | 45 | 1005.7 |
| 20260510134634 | 71 | 97 | 1.7 | 5.2 | 0.00 | 0.00 | 0.00 | 47 | 1005.7 |
| 20260510134524 | 71 | 94 | 0.9 | 5.2 | 0.00 | 0.00 | 0.00 | 47 | 1005.8 |
| 20260510134433 | 71 | 97 | 0.9 | 5.2 | 0.00 | 0.00 | 0.00 | 47 | 1005.7 |
| 20260510134329 | 70 | 122 | 0.9 | 5.2 | 0.00 | 0.00 | 0.00 | 46 | 1005.8 |
| 20260510134230 | 70 | 96 | 0.9 | 5.2 | 0.00 | 0.00 | 0.00 | 47 | 1005.8 |
| 20260510134129 | 70 | 94 | 0.9 | 5.2 | 0.00 | 0.00 | 0.00 | 46 | 1005.9 |
| 20260510134029 | 70 | 97 | 0.9 | 5.2 | 0.00 | 0.00 | 0.00 | 47 | 1005.9 |
| 20260510134024 | 70 | 98 | 0.9 | 5.2 | 0.00 | 0.00 | 0.00 | 47 | 1005.9 |
| 20260510133928 | 70 | 86 | 0.9 | 5.2 | 0.00 | 0.00 | 0.00 | 46 | 1005.9 |
| 20260510133829 | 70 | 88 | 0.9 | 5.2 | 0.00 | 0.00 | 0.00 | 46 | 1005.9 |
| 20260510133729 | 70 | 103 | 0.9 | 4.3 | 0.00 | 0.00 | 0.00 | 48 | 1005.9 |
| 20260510133629 | 70 | 104 | 0.9 | 4.3 | 0.00 | 0.00 | 0.00 | 46 | 1005.9 |
| 20260510133522 | 70 | 104 | 1.7 | 4.3 | 0.00 | 0.00 | 0.00 | 47 | 1005.9 |
| 20260510133424 | 70 | 104 | 1.7 | 6.1 | 0.00 | 0.00 | 0.00 | 46 | 1005.9 |
| 20260510133325 | 70 | 104 | 1.7 | 6.1 | 0.00 | 0.00 | 0.00 | 46 | 1006.0 |
| 20260510133225 | 70 | 78 | 1.7 | 6.1 | 0.00 | 0.00 | 0.00 | 47 | 1006.0 |
| 20260510133123 | 70 | 77 | 1.7 | 6.1 | 0.00 | 0.00 | 0.00 | 47 | 1006.0 |
| 20260510133024 | 70 | 77 | 1.7 | 6.1 | 0.00 | 0.00 | 0.00 | 47 | 1006.0 |
| 20260510132923 | 70 | 71 | 1.7 | 7.8 | 0.00 | 0.00 | 0.00 | 47 | 1006.0 |
| 20260510132823 | 70 | 101 | 1.7 | 7.8 | 0.00 | 0.00 | 0.00 | 47 | 1006.1 |
| 20260510132723 | 70 | 82 | 1.7 | 7.8 | 0.00 | 0.00 | 0.00 | 48 | 1006.0 |
| 20260510132623 | 70 | 80 | 1.7 | 7.8 | 0.00 | 0.00 | 0.00 | 47 | 1006.0 |
| 20260510132522 | 70 | 72 | 1.7 | 7.8 | 0.00 | 0.00 | 0.00 | 47 | 1006.1 |
| 20260510132516 | 70 | 88 | 1.7 | 7.8 | 0.00 | 0.00 | 0.00 | 47 | 1006.1 |
| 20260510132423 | 70 | 148 | 1.7 | 7.8 | 0.00 | 0.00 | 0.00 | 48 | 1006.1 |
| 20260510132323 | 70 | 98 | 1.7 | 7.8 | 0.00 | 0.00 | 0.00 | 47 | 1006.1 |
| 20260510132221 | 70 | 114 | 1.7 | 7.8 | 0.00 | 0.00 | 0.00 | 49 | 1006.1 |
| 20260510132121 | 70 | 85 | 1.7 | 7.8 | 0.00 | 0.00 | 0.00 | 48 | 1006.1 |
| 20260510132021 | 70 | 67 | 1.7 | 7.8 | 0.00 | 0.00 | 0.00 | 47 | 1006.1 |
| 20260510132010 | 70 | 76 | 1.7 | 7.8 | 0.00 | 0.00 | 0.00 | 47 | 1006.1 |
| 20260510131921 | 70 | 38 | 1.7 | 7.0 | 0.00 | 0.00 | 0.00 | 47 | 1006.1 |
| 20260510131820 | 70 | 87 | 1.7 | 7.0 | 0.00 | 0.00 | 0.00 | 48 | 1006.1 |
| 20260510131720 | 70 | 59 | 1.7 | 7.0 | 0.00 | 0.00 | 0.00 | 48 | 1006.1 |
| 20260510131620 | 70 | 75 | 1.7 | 7.0 | 0.00 | 0.00 | 0.00 | 50 | 1006.1 |
| 20260510131526 | 70 | 96 | 0.9 | 7.0 | 0.00 | 0.00 | 0.00 | 49 | 1006.1 |
| 20260510131504 | 70 | 25 | 0.9 | 7.0 | 0.00 | 0.00 | 0.00 | 49 | 1006.1 |
| 20260510131421 | 70 | 92 | 1.7 | 7.0 | 0.00 | 0.00 | 0.00 | 50 | 1006.1 |
| 20260510131320 | 70 | 90 | 1.7 | 7.0 | 0.00 | 0.00 | 0.00 | 49 | 1006.1 |
| 20260510131216 | 70 | 90 | 1.7 | 7.8 | 0.00 | 0.00 | 0.00 | 49 | 1006.1 |
| 20260510131116 | 70 | 48 | 2.6 | 7.8 | 0.00 | 0.00 | 0.00 | 48 | 1006.1 |
| 20260510131017 | 70 | 71 | 1.7 | 7.8 | 0.00 | 0.00 | 0.00 | 50 | 1006.1 |
| 20260510131005 | 70 | 74 | 1.7 | 7.8 | 0.00 | 0.00 | 0.00 | 50 | 1006.1 |
| 20260510130917 | 70 | 47 | 1.7 | 7.8 | 0.00 | 0.00 | 0.00 | 51 | 1006.1 |
| 20260510130817 | 70 | 118 | 1.7 | 7.8 | 0.00 | 0.00 | 0.00 | 50 | 1006.1 |
| 20260510130717 | 70 | 105 | 1.7 | 7.8 | 0.00 | 0.00 | 0.00 | 48 | 1006.1 |
| 20260510130617 | 70 | 91 | 1.7 | 7.8 | 0.00 | 0.00 | 0.00 | 48 | 1006.1 |
| 20260510130521 | 70 | 109 | 1.7 | 7.8 | 0.00 | 0.00 | 0.00 | 49 | 1006.1 |
| 20260510130505 | 70 | 108 | 1.7 | 7.8 | 0.00 | 0.00 | 0.00 | 49 | 1006.1 |
| 20260510130417 | 70 | 94 | 1.7 | 7.8 | 0.00 | 0.00 | 0.00 | 49 | 1006.1 |
| 20260510130317 | 70 | 18 | 0.9 | 7.8 | 0.00 | 0.00 | 0.00 | 49 | 1006.2 |
| 20260510130217 | 70 | 99 | 0.9 | 7.0 | 0.00 | 0.00 | 0.00 | 48 | 1006.1 |
| 20260510130116 | 70 | 82 | 0.9 | 3.5 | 0.00 | 0.00 | 0.00 | 50 | 1006.1 |
| 20260510130021 | 70 | 72 | 0.9 | 3.5 | 0.00 | 0.00 | 0.00 | 51 | 1006.1 |
| 20260510130004 | 70 | 72 | 0.9 | 4.3 | 0.00 | 0.00 | 0.00 | 50 | 1006.1 |
| 20260510125917 | 70 | 78 | 1.7 | 7.0 | 0.00 | 0.00 | 0.00 | 49 | 1006.2 |
| 20260510125817 | 70 | 79 | 1.7 | 7.0 | 0.00 | 0.00 | 0.00 | 49 | 1006.1 |
| 20260510125716 | 70 | 79 | 1.7 | 7.0 | 0.00 | 0.00 | 0.00 | 48 | 1006.1 |
| 20260510125616 | 70 | 79 | 1.7 | 7.0 | 0.00 | 0.00 | 0.00 | 48 | 1006.1 |
| 20260510125517 | 70 | 79 | 1.7 | 7.0 | 0.00 | 0.00 | 0.00 | 49 | 1006.1 |
| 20260510125504 | 70 | 78 | 1.7 | 7.0 | 0.00 | 0.00 | 0.00 | 49 | 1006.1 |
| 20260510125416 | 70 | 78 | 2.6 | 7.0 | 0.00 | 0.00 | 0.00 | 49 | 1006.1 |
| 20260510125312 | 70 | 76 | 2.6 | 8.7 | 0.00 | 0.00 | 0.00 | 50 | 1006.1 |
| 20260510125211 | 70 | 68 | 2.6 | 8.7 | 0.00 | 0.00 | 0.00 | 49 | 1006.2 |
| 20260510125111 | 70 | 69 | 2.6 | 8.7 | 0.00 | 0.00 | 0.00 | 51 | 1006.2 |
| 20260510125013 | 70 | 32 | 2.6 | 8.7 | 0.00 | 0.00 | 0.00 | 51 | 1006.1 |
| 20260510125004 | 70 | 28 | 2.6 | 8.7 | 0.00 | 0.00 | 0.00 | 51 | 1006.1 |
| 20260510124911 | 70 | 76 | 2.6 | 8.7 | 0.00 | 0.00 | 0.00 | 51 | 1006.1 |
| 20260510124811 | 70 | 49 | 2.6 | 8.7 | 0.00 | 0.00 | 0.00 | 49 | 1006.2 |
| 20260510124710 | 70 | 91 | 1.7 | 8.7 | 0.00 | 0.00 | 0.00 | 49 | 1006.1 |
| 20260510124610 | 70 | 0 | 1.7 | 8.7 | 0.00 | 0.00 | 0.00 | 50 | 1006.2 |
| 20260510124512 | 70 | 65 | 1.7 | 8.7 | 0.00 | 0.00 | 0.00 | 51 | 1006.2 |
| 20260510124502 | 70 | 74 | 1.7 | 8.7 | 0.00 | 0.00 | 0.00 | 51 | 1006.2 |
| 20260510124411 | 70 | 73 | 1.7 | 8.7 | 0.00 | 0.00 | 0.00 | 50 | 1006.2 |
| 20260510124310 | 70 | 59 | 1.7 | 6.1 | 0.00 | 0.00 | 0.00 | 49 | 1006.2 |
| 20260510124210 | 70 | 88 | 1.7 | 5.2 | 0.00 | 0.00 | 0.00 | 46 | 1006.2 |
| 20260510124106 | 70 | 97 | 1.7 | 5.2 | 0.00 | 0.00 | 0.00 | 46 | 1006.2 |
| 20260510124009 | 70 | 88 | 1.7 | 5.2 | 0.00 | 0.00 | 0.00 | 47 | 1006.3 |
| 20260510124001 | 70 | 89 | 1.7 | 5.2 | 0.00 | 0.00 | 0.00 | 47 | 1006.3 |
| 20260510123907 | 70 | 77 | 1.7 | 5.2 | 0.00 | 0.00 | 0.00 | 47 | 1006.3 |
| 20260510123807 | 70 | 91 | 1.7 | 5.2 | 0.00 | 0.00 | 0.00 | 46 | 1006.3 |
| 20260510123707 | 70 | 111 | 1.7 | 4.3 | 0.00 | 0.00 | 0.00 | 47 | 1006.3 |
| 20260510123606 | 70 | 98 | 1.7 | 4.3 | 0.00 | 0.00 | 0.00 | 46 | 1006.3 |
| 20260510123501 | 70 | 102 | 1.7 | 4.3 | 0.00 | 0.00 | 0.00 | 48 | 1006.3 |
| 20260510123407 | 70 | 80 | 1.7 | 4.3 | 0.00 | 0.00 | 0.00 | 52 | 1006.3 |
| 20260510123307 | 70 | 78 | 0.9 | 3.5 | 0.00 | 0.00 | 0.00 | 49 | 1006.3 |
| 20260510123206 | 70 | 48 | 0.9 | 3.5 | 0.00 | 0.00 | 0.00 | 48 | 1006.3 |
| 20260510123106 | 70 | 106 | 0.9 | 3.5 | 0.00 | 0.00 | 0.00 | 47 | 1006.3 |
| 20260510123011 | 70 | 93 | 0.9 | 3.5 | 0.00 | 0.00 | 0.00 | 47 | 1006.4 |
| 20260510123007 | 70 | 93 | 0.9 | 3.5 | 0.00 | 0.00 | 0.00 | 47 | 1006.3 |
| 20260510122906 | 70 | 88 | 1.7 | 6.1 | 0.00 | 0.00 | 0.00 | 48 | 1006.3 |
| 20260510122807 | 70 | 103 | 1.7 | 7.0 | 0.00 | 0.00 | 0.00 | 47 | 1006.3 |
| 20260510122707 | 70 | 85 | 1.7 | 7.0 | 0.00 | 0.00 | 0.00 | 48 | 1006.4 |
| 20260510122607 | 70 | 84 | 1.7 | 7.0 | 0.00 | 0.00 | 0.00 | 47 | 1006.3 |
| 20260510122507 | 70 | 93 | 1.7 | 7.0 | 0.00 | 0.00 | 0.00 | 49 | 1006.4 |
| 20260510122503 | 70 | 97 | 1.7 | 7.0 | 0.00 | 0.00 | 0.00 | 49 | 1006.4 |
| 20260510122406 | 70 | 78 | 0.9 | 7.0 | 0.00 | 0.00 | 0.00 | 49 | 1006.4 |
| 20260510122307 | 70 | 90 | 0.9 | 7.0 | 0.00 | 0.00 | 0.00 | 49 | 1006.4 |
| 20260510122202 | 70 | 91 | 0.9 | 7.0 | 0.00 | 0.00 | 0.00 | 49 | 1006.4 |
| 20260510122103 | 70 | 98 | 0.9 | 7.0 | 0.00 | 0.00 | 0.00 | 49 | 1006.4 |
| 20260510122005 | 70 | 98 | 0.9 | 7.0 | 0.00 | 0.00 | 0.00 | 49 | 1006.3 |
| 20260510122001 | 70 | 109 | 0.9 | 7.0 | 0.00 | 0.00 | 0.00 | 49 | 1006.3 |
| 20260510121902 | 70 | 101 | 0.9 | 7.0 | 0.00 | 0.00 | 0.00 | 50 | 1006.3 |
| 20260510121802 | 70 | 100 | 0.9 | 3.5 | 0.00 | 0.00 | 0.00 | 49 | 1006.4 |
| 20260510121702 | 70 | 100 | 0.9 | 3.5 | 0.00 | 0.00 | 0.00 | 49 | 1006.3 |
| 20260510121601 | 70 | 100 | 0.9 | 3.5 | 0.00 | 0.00 | 0.00 | 49 | 1006.4 |
| 20260510121501 | 70 | 100 | 1.7 | 5.2 | 0.00 | 0.00 | 0.00 | 48 | 1006.4 |
| 20260510121401 | 70 | 100 | 1.7 | 5.2 | 0.00 | 0.00 | 0.00 | 48 | 1006.4 |
| 20260510121301 | 70 | 103 | 1.7 | 5.2 | 0.00 | 0.00 | 0.00 | 47 | 1006.4 |
| 20260510121202 | 70 | 98 | 1.7 | 5.2 | 0.00 | 0.00 | 0.00 | 49 | 1006.4 |
| 20260510121100 | 70 | 98 | 1.7 | 5.2 | 0.00 | 0.00 | 0.00 | 50 | 1006.5 |
| 20260510121000 | 70 | 106 | 1.7 | 7.0 | 0.00 | 0.00 | 0.00 | 49 | 1006.5 |
| 20260510120902 | 70 | 93 | 1.7 | 7.0 | 0.00 | 0.00 | 0.00 | 49 | 1006.5 |
| 20260510120800 | 70 | 63 | 1.7 | 7.0 | 0.00 | 0.00 | 0.00 | 50 | 1006.7 |
| 20260510120721 | 70 | 100 | 1.7 | 7.0 | 0.00 | 0.00 | 0.00 | 50 | 1006.5 |
| 20260510120717 | 70 | 91 | 1.7 | 7.0 | 0.00 | 0.00 | 0.00 | 50 | 1006.5 |
| 20260510120712 | 70 | 92 | 1.7 | 7.0 | 0.00 | 0.00 | 0.00 | 51 | 1006.7 |
| 20260510120401 | 70 | 192 | 1.7 | 7.0 | 0.00 | 0.00 | 0.00 | 51 | 1006.7 |
| 20260510120301 | 70 | 87 | 2.6 | 7.0 | 0.00 | 0.00 | 0.00 | 51 | 1006.7 |
| 20260510120200 | 70 | 83 | 2.6 | 7.0 | 0.00 | 0.00 | 0.00 | 49 | 1006.7 |
| 20260510120101 | 70 | 96 | 2.6 | 7.0 | 0.00 | 0.00 | 0.00 | 49 | 1006.7 |
| 20260510120001 | 70 | 103 | 2.6 | 9.6 | 0.00 | 0.00 | 0.00 | 50 | 1006.7 |
| 20260510115900 | 70 | 93 | 2.6 | 9.6 | 0.00 | 0.00 | 0.00 | 52 | 1006.7 |
| 20260510115801 | 70 | 88 | 2.6 | 9.6 | 0.00 | 0.00 | 0.00 | 53 | 1006.7 |
| 20260510115701 | 70 | 17 | 2.6 | 9.6 | 0.00 | 0.00 | 0.00 | 53 | 1006.7 |
| 20260510115600 | 70 | 69 | 2.6 | 9.6 | 0.00 | 0.00 | 0.00 | 52 | 1006.8 |
| 20260510115502 | 70 | 100 | 2.6 | 9.6 | 0.00 | 0.00 | 0.00 | 52 | 1006.8 |
| 20260510115400 | 70 | 98 | 2.6 | 9.6 | 0.00 | 0.00 | 0.00 | 52 | 1006.8 |
| 20260510115300 | 70 | 78 | 2.6 | 9.6 | 0.00 | 0.00 | 0.00 | 52 | 1006.8 |
| 20260510115200 | 70 | 80 | 2.6 | 9.6 | 0.00 | 0.00 | 0.00 | 53 | 1006.8 |
| 20260510115101 | 70 | 126 | 2.6 | 9.6 | 0.00 | 0.00 | 0.00 | 52 | 1006.9 |
| 20260510115002 | 69 | 84 | 1.7 | 7.8 | 0.00 | 0.00 | 0.00 | 54 | 1006.9 |
| 20260510114900 | 69 | 88 | 1.7 | 7.8 | 0.00 | 0.00 | 0.00 | 53 | 1006.9 |
| 20260510114801 | 69 | 80 | 2.6 | 7.8 | 0.00 | 0.00 | 0.00 | 54 | 1006.9 |
| 20260510114701 | 69 | 81 | 2.6 | 7.8 | 0.00 | 0.00 | 0.00 | 54 | 1006.9 |
| 20260510114601 | 69 | 103 | 2.6 | 7.8 | 0.00 | 0.00 | 0.00 | 53 | 1006.9 |
| 20260510114502 | 69 | 80 | 2.6 | 7.8 | 0.00 | 0.00 | 0.00 | 52 | 1006.9 |
| 20260510114400 | 69 | 101 | 2.6 | 7.8 | 0.00 | 0.00 | 0.00 | 52 | 1006.9 |
| 20260510114301 | 69 | 94 | 2.6 | 7.8 | 0.00 | 0.00 | 0.00 | 52 | 1006.9 |
| 20260510114201 | 69 | 92 | 2.6 | 7.8 | 0.00 | 0.00 | 0.00 | 52 | 1006.9 |
| 20260510114101 | 69 | 86 | 2.6 | 7.8 | 0.00 | 0.00 | 0.00 | 52 | 1007.0 |
| 20260510114003 | 69 | 90 | 2.6 | 7.8 | 0.00 | 0.00 | 0.00 | 52 | 1007.0 |
| 20260510113900 | 69 | 75 | 2.6 | 7.0 | 0.00 | 0.00 | 0.00 | 52 | 1007.0 |
| 20260510113801 | 69 | 78 | 2.6 | 7.0 | 0.00 | 0.00 | 0.00 | 52 | 1007.0 |
| 20260510113701 | 69 | 123 | 2.6 | 7.0 | 0.00 | 0.00 | 0.00 | 51 | 1007.0 |
| 20260510113600 | 69 | 133 | 2.6 | 7.0 | 0.00 | 0.00 | 0.00 | 52 | 1007.0 |
| 20260510113501 | 69 | 102 | 2.6 | 7.0 | 0.00 | 0.00 | 0.00 | 52 | 1007.0 |
| 20260510113400 | 69 | 94 | 2.6 | 7.0 | 0.00 | 0.00 | 0.00 | 51 | 1007.0 |
| 20260510113301 | 69 | 70 | 2.6 | 7.0 | 0.00 | 0.00 | 0.00 | 53 | 1007.0 |
| 20260510113219 | 69 | 82 | 2.6 | 7.0 | 0.00 | 0.00 | 0.00 | 51 | 1007.1 |
| 20260510113215 | 69 | 82 | 2.6 | 7.0 | 0.00 | 0.00 | 0.00 | 52 | 1007.0 |
| 20260510113211 | 69 | 76 | 1.7 | 6.1 | 0.00 | 0.00 | 0.00 | 53 | 1007.0 |
| 20260510112901 | 69 | 73 | 1.7 | 6.1 | 0.00 | 0.00 | 0.00 | 53 | 1007.0 |
| 20260510112800 | 69 | 118 | 1.7 | 6.1 | 0.00 | 0.00 | 0.00 | 54 | 1007.1 |
| 20260510112700 | 69 | 101 | 1.7 | 6.1 | 0.00 | 0.00 | 0.00 | 51 | 1007.0 |
| 20260510112600 | 69 | 86 | 1.7 | 6.1 | 0.00 | 0.00 | 0.00 | 52 | 1007.1 |
| 20260510112502 | 69 | 118 | 1.7 | 6.1 | 0.00 | 0.00 | 0.00 | 52 | 1007.1 |
| 20260510112401 | 69 | 101 | 1.7 | 6.1 | 0.00 | 0.00 | 0.00 | 51 | 1007.1 |
| 20260510112301 | 69 | 82 | 1.7 | 6.1 | 0.00 | 0.00 | 0.00 | 51 | 1007.1 |
| 20260510112221 | 69 | 105 | 1.7 | 6.1 | 0.00 | 0.00 | 0.00 | 51 | 1007.2 |
| 20260510112217 | 69 | 97 | 1.7 | 7.0 | 0.00 | 0.00 | 0.00 | 52 | 1007.2 |
| 20260510112213 | 69 | 82 | 2.6 | 7.0 | 0.00 | 0.00 | 0.00 | 52 | 1007.1 |
| 20260510111901 | 69 | 92 | 2.6 | 7.0 | 0.00 | 0.00 | 0.00 | 54 | 1007.1 |
| 20260510111801 | 69 | 80 | 2.6 | 7.0 | 0.00 | 0.00 | 0.00 | 51 | 1007.1 |
| 20260510111702 | 69 | 71 | 2.6 | 7.0 | 0.00 | 0.00 | 0.00 | 52 | 1007.1 |
| 20260510111602 | 69 | 83 | 2.6 | 7.0 | 0.00 | 0.00 | 0.00 | 52 | 1007.2 |
| 20260510111503 | 69 | 90 | 2.6 | 7.0 | 0.00 | 0.00 | 0.00 | 52 | 1007.2 |
| 20260510111401 | 69 | 81 | 2.6 | 7.0 | 0.00 | 0.00 | 0.00 | 52 | 1007.2 |
| 20260510111301 | 69 | 94 | 2.6 | 7.8 | 0.00 | 0.00 | 0.00 | 52 | 1007.2 |
| 20260510111201 | 69 | 80 | 2.6 | 7.8 | 0.00 | 0.00 | 0.00 | 54 | 1007.2 |
| 20260510111101 | 69 | 116 | 2.6 | 7.8 | 0.00 | 0.00 | 0.00 | 55 | 1007.1 |
| 20260510111003 | 69 | 101 | 2.6 | 7.8 | 0.00 | 0.00 | 0.00 | 55 | 1007.2 |
| 20260510110901 | 69 | 273 | 2.6 | 7.8 | 0.00 | 0.00 | 0.00 | 53 | 1007.2 |
| 20260510110801 | 69 | 79 | 2.6 | 7.8 | 0.00 | 0.00 | 0.00 | 54 | 1007.2 |
| 20260510110701 | 69 | 50 | 1.7 | 7.8 | 0.00 | 0.00 | 0.00 | 54 | 1007.2 |
| 20260510110601 | 69 | 88 | 1.7 | 7.8 | 0.00 | 0.00 | 0.00 | 53 | 1007.2 |
| 20260510110501 | 69 | 106 | 1.7 | 7.8 | 0.00 | 0.00 | 0.00 | 54 | 1007.2 |
| 20260510110400 | 69 | 95 | 2.6 | 7.8 | 0.00 | 0.00 | 0.00 | 53 | 1007.2 |
| 20260510110301 | 69 | 69 | 2.6 | 8.7 | 0.00 | 0.00 | 0.00 | 54 | 1007.2 |
| 20260510110200 | 69 | 56 | 2.6 | 8.7 | 0.00 | 0.00 | 0.00 | 53 | 1007.3 |
| 20260510110100 | 69 | 85 | 2.6 | 8.7 | 0.00 | 0.00 | 0.00 | 55 | 1007.3 |
| 20260510110005 | 69 | 85 | 2.6 | 8.7 | 0.00 | 0.00 | 0.00 | 55 | 1007.3 |
| 20260510110000 | 69 | 85 | 2.6 | 8.7 | 0.00 | 0.00 | 0.00 | 55 | 1007.3 |
| 20260510105900 | 69 | 108 | 2.6 | 8.7 | 0.00 | 0.00 | 0.00 | 54 | 1007.4 |
| 20260510105800 | 69 | 136 | 2.6 | 8.7 | 0.00 | 0.00 | 0.00 | 55 | 1007.3 |
| 20260510105700 | 69 | 69 | 3.5 | 8.7 | 0.00 | 0.00 | 0.00 | 56 | 1007.4 |
| 20260510105600 | 69 | 94 | 2.6 | 8.7 | 0.00 | 0.00 | 0.00 | 54 | 1007.4 |
| 20260510105504 | 69 | 84 | 3.5 | 8.7 | 0.00 | 0.00 | 0.00 | 55 | 1007.4 |
| 20260510105458 | 69 | 84 | 3.5 | 8.7 | 0.00 | 0.00 | 0.00 | 55 | 1007.4 |
| 20260510105359 | 69 | 54 | 2.6 | 8.7 | 0.00 | 0.00 | 0.00 | 56 | 1007.4 |
| 20260510105259 | 69 | 63 | 2.6 | 7.8 | 0.00 | 0.00 | 0.00 | 55 | 1007.5 |
| 20260510105159 | 68 | 116 | 2.6 | 7.8 | 0.00 | 0.00 | 0.00 | 55 | 1007.4 |
| 20260510105058 | 68 | 62 | 2.6 | 7.8 | 0.00 | 0.00 | 0.00 | 55 | 1007.5 |
| 20260510105004 | 68 | 108 | 2.6 | 7.8 | 0.00 | 0.00 | 0.00 | 55 | 1007.5 |
| 20260510104959 | 68 | 113 | 2.6 | 7.8 | 0.00 | 0.00 | 0.00 | 55 | 1007.5 |
| 20260510104858 | 68 | 96 | 2.6 | 7.8 | 0.00 | 0.00 | 0.00 | 54 | 1007.6 |
| 20260510104758 | 68 | 70 | 2.6 | 7.8 | 0.00 | 0.00 | 0.00 | 57 | 1007.5 |
| 20260510104658 | 68 | 116 | 2.6 | 7.8 | 0.00 | 0.00 | 0.00 | 56 | 1007.6 |
| 20260510104553 | 68 | 65 | 2.6 | 7.8 | 0.00 | 0.00 | 0.00 | 56 | 1007.6 |
| 20260510104502 | 68 | 65 | 2.6 | 7.8 | 0.00 | 0.00 | 0.00 | 55 | 1007.6 |
| 20260510104452 | 68 | 67 | 2.6 | 7.8 | 0.00 | 0.00 | 0.00 | 55 | 1007.6 |
| 20260510104353 | 68 | 92 | 2.6 | 7.8 | 0.00 | 0.00 | 0.00 | 57 | 1007.7 |
| 20260510104253 | 68 | 63 | 2.6 | 7.8 | 0.00 | 0.00 | 0.00 | 58 | 1007.7 |
| 20260510104151 | 67 | 68 | 1.7 | 7.0 | 0.00 | 0.00 | 0.00 | 57 | 1007.7 |
| 20260510104048 | 67 | 84 | 1.7 | 7.0 | 0.00 | 0.00 | 0.00 | 57 | 1007.7 |
| 20260510104001 | 67 | 98 | 1.7 | 7.0 | 0.00 | 0.00 | 0.00 | 58 | 1007.7 |
| 20260510103948 | 67 | 98 | 1.7 | 7.0 | 0.00 | 0.00 | 0.00 | 58 | 1007.7 |
| 20260510103848 | 67 | 69 | 1.7 | 6.1 | 0.00 | 0.00 | 0.00 | 59 | 1007.7 |
| 20260510103748 | 67 | 72 | 1.7 | 5.2 | 0.00 | 0.00 | 0.00 | 59 | 1007.8 |
| 20260510103719 | 67 | 98 | 1.7 | 7.0 | 0.00 | 0.00 | 0.00 | 58 | 1007.7 |
| 20260510103645 | 67 | 86 | 1.7 | 7.0 | 0.00 | 0.00 | 0.00 | 58 | 1007.7 |
| 20260510103540 | 67 | 88 | 1.7 | 7.0 | 0.00 | 0.00 | 0.00 | 58 | 1007.7 |
| 20260510103440 | 67 | 111 | 1.7 | 7.0 | 0.00 | 0.00 | 0.00 | 58 | 1007.7 |
| 20260510103340 | 67 | 96 | 1.7 | 7.0 | 0.00 | 0.00 | 0.00 | 59 | 1007.7 |
| 20260510103241 | 67 | 99 | 1.7 | 7.0 | 0.00 | 0.00 | 0.00 | 58 | 1007.7 |
| 20260510103137 | 67 | 99 | 1.7 | 7.0 | 0.00 | 0.00 | 0.00 | 59 | 1007.7 |
| 20260510103034 | 67 | 108 | 1.7 | 7.0 | 0.00 | 0.00 | 0.00 | 59 | 1007.8 |
| 20260510102956 | 67 | 77 | 1.7 | 7.0 | 0.00 | 0.00 | 0.00 | 59 | 1007.8 |
| 20260510102948 | 67 | 80 | 1.7 | 6.1 | 0.00 | 0.00 | 0.00 | 57 | 1007.8 |
| 20260510102943 | 67 | 78 | 1.7 | 7.0 | 0.00 | 0.00 | 0.00 | 57 | 1007.8 |
| 20260510102935 | 67 | 78 | 1.7 | 7.0 | 0.00 | 0.00 | 0.00 | 57 | 1007.8 |
| 20260510102931 | 67 | 77 | 1.7 | 7.0 | 0.00 | 0.00 | 0.00 | 58 | 1007.8 |
| 20260510102706 | 67 | 90 | 1.7 | 6.1 | 0.00 | 0.00 | 0.00 | 58 | 1007.8 |
| 20260510102702 | 67 | 49 | 1.7 | 6.1 | 0.00 | 0.00 | 0.00 | 57 | 1007.8 |
| 20260510102432 | 67 | 94 | 1.7 | 6.1 | 0.00 | 0.00 | 0.00 | 58 | 1007.8 |
| 20260510102332 | 67 | 64 | 1.7 | 6.1 | 0.00 | 0.00 | 0.00 | 59 | 1007.9 |
| 20260510102232 | 67 | 98 | 1.7 | 6.1 | 0.00 | 0.00 | 0.00 | 59 | 1007.8 |
| 20260510102132 | 67 | 116 | 1.7 | 6.1 | 0.00 | 0.00 | 0.00 | 57 | 1007.8 |
| 20260510102031 | 67 | 100 | 1.7 | 6.1 | 0.00 | 0.00 | 0.00 | 57 | 1007.9 |
| 20260510101944 | 67 | 96 | 1.7 | 6.1 | 0.00 | 0.00 | 0.00 | 58 | 1007.9 |
| 20260510101929 | 67 | 112 | 1.7 | 6.1 | 0.00 | 0.00 | 0.00 | 57 | 1007.9 |
| 20260510101830 | 67 | 95 | 1.7 | 6.1 | 0.00 | 0.00 | 0.00 | 58 | 1007.8 |
| 20260510101730 | 67 | 86 | 1.7 | 7.0 | 0.00 | 0.00 | 0.00 | 57 | 1007.9 |
| 20260510101630 | 66 | 116 | 1.7 | 7.0 | 0.00 | 0.00 | 0.00 | 58 | 1007.8 |
| 20260510101530 | 66 | 96 | 1.7 | 7.0 | 0.00 | 0.00 | 0.00 | 59 | 1007.8 |
| 20260510101437 | 66 | 80 | 1.7 | 7.0 | 0.00 | 0.00 | 0.00 | 60 | 1007.8 |
| 20260510101429 | 66 | 80 | 1.7 | 7.0 | 0.00 | 0.00 | 0.00 | 59 | 1007.8 |
| 20260510101329 | 66 | 57 | 1.7 | 7.0 | 0.00 | 0.00 | 0.00 | 58 | 1007.8 |
| 20260510101229 | 66 | 89 | 1.7 | 7.0 | 0.00 | 0.00 | 0.00 | 59 | 1007.8 |
| 20260510101130 | 66 | 88 | 1.7 | 7.0 | 0.00 | 0.00 | 0.00 | 57 | 1007.8 |
| 20260510101029 | 66 | 114 | 1.7 | 7.0 | 0.00 | 0.00 | 0.00 | 58 | 1007.8 |
| 20260510100938 | 66 | 73 | 1.7 | 7.0 | 0.00 | 0.00 | 0.00 | 58 | 1007.8 |
| 20260510100929 | 66 | 96 | 1.7 | 7.0 | 0.00 | 0.00 | 0.00 | 58 | 1007.8 |
| 20260510100829 | 66 | 92 | 1.7 | 7.0 | 0.00 | 0.00 | 0.00 | 57 | 1007.8 |
| 20260510100729 | 66 | 134 | 1.7 | 7.0 | 0.00 | 0.00 | 0.00 | 57 | 1007.8 |
| 20260510100629 | 67 | 98 | 1.7 | 7.0 | 0.00 | 0.00 | 0.00 | 57 | 1007.8 |
| 20260510100529 | 66 | 90 | 1.7 | 7.0 | 0.00 | 0.00 | 0.00 | 58 | 1007.8 |
| 20260510100434 | 67 | 84 | 1.7 | 7.0 | 0.00 | 0.00 | 0.00 | 57 | 1007.8 |
| 20260510100429 | 67 | 82 | 1.7 | 7.0 | 0.00 | 0.00 | 0.00 | 57 | 1007.8 |
| 20260510100329 | 67 | 101 | 1.7 | 7.0 | 0.00 | 0.00 | 0.00 | 59 | 1007.8 |
| 20260510100229 | 67 | 84 | 1.7 | 7.0 | 0.00 | 0.00 | 0.00 | 57 | 1007.9 |
| 20260510100129 | 67 | 82 | 1.7 | 7.0 | 0.00 | 0.00 | 0.00 | 57 | 1007.9 |
| 20260510100029 | 67 | 88 | 1.7 | 7.0 | 0.00 | 0.00 | 0.00 | 55 | 1007.9 |
| 20260510095934 | 67 | 54 | 1.7 | 5.2 | 0.00 | 0.00 | 0.00 | 58 | 1007.9 |
| 20260510095928 | 67 | 55 | 1.7 | 5.2 | 0.00 | 0.00 | 0.00 | 58 | 1007.9 |
| 20260510095828 | 67 | 76 | 1.7 | 5.2 | 0.00 | 0.00 | 0.00 | 57 | 1007.9 |
| 20260510095728 | 67 | 119 | 1.7 | 5.2 | 0.00 | 0.00 | 0.00 | 57 | 1007.9 |
| 20260510095629 | 67 | 69 | 1.7 | 6.1 | 0.00 | 0.00 | 0.00 | 59 | 1007.9 |
| 20260510095528 | 67 | 65 | 1.7 | 6.1 | 0.00 | 0.00 | 0.00 | 57 | 1007.9 |
| 20260510095429 | 67 | 96 | 1.7 | 7.0 | 0.00 | 0.00 | 0.00 | 58 | 1007.9 |
| 20260510095329 | 67 | 99 | 1.7 | 7.0 | 0.00 | 0.00 | 0.00 | 58 | 1008.0 |
| 20260510095229 | 67 | 85 | 1.7 | 7.0 | 0.00 | 0.00 | 0.00 | 58 | 1007.9 |
| 20260510095128 | 67 | 79 | 1.7 | 7.0 | 0.00 | 0.00 | 0.00 | 58 | 1008.0 |
| 20260510095026 | 66 | 78 | 1.7 | 7.0 | 0.00 | 0.00 | 0.00 | 57 | 1008.0 |
| 20260510094926 | 66 | 115 | 1.7 | 7.0 | 0.00 | 0.00 | 0.00 | 58 | 1008.0 |
| 20260510094826 | 66 | 102 | 1.7 | 7.0 | 0.00 | 0.00 | 0.00 | 59 | 1008.0 |
| 20260510094725 | 66 | 79 | 1.7 | 7.0 | 0.00 | 0.00 | 0.00 | 57 | 1008.0 |
| 20260510094620 | 66 | 105 | 1.7 | 7.0 | 0.00 | 0.00 | 0.00 | 58 | 1008.0 |
| 20260510094520 | 66 | 102 | 1.7 | 7.0 | 0.00 | 0.00 | 0.00 | 59 | 1008.0 |
| 20260510094430 | 66 | 94 | 1.7 | 7.0 | 0.00 | 0.00 | 0.00 | 59 | 1008.0 |
| 20260510094421 | 66 | 67 | 1.7 | 7.0 | 0.00 | 0.00 | 0.00 | 59 | 1008.0 |
| 20260510094320 | 66 | 90 | 1.7 | 7.0 | 0.00 | 0.00 | 0.00 | 59 | 1008.0 |
| 20260510094219 | 66 | 90 | 1.7 | 7.0 | 0.00 | 0.00 | 0.00 | 59 | 1008.1 |
| 20260510094114 | 66 | 185 | 1.7 | 7.0 | 0.00 | 0.00 | 0.00 | 58 | 1008.0 |
| 20260510094014 | 66 | 128 | 1.7 | 7.0 | 0.00 | 0.00 | 0.00 | 57 | 1008.0 |
| 20260510093929 | 66 | 87 | 1.7 | 7.0 | 0.00 | 0.00 | 0.00 | 57 | 1008.0 |
| 20260510093914 | 66 | 105 | 1.7 | 7.0 | 0.00 | 0.00 | 0.00 | 56 | 1008.0 |
| 20260510093814 | 66 | 82 | 1.7 | 7.0 | 0.00 | 0.00 | 0.00 | 58 | 1008.0 |
| 20260510093714 | 66 | 113 | 1.7 | 7.0 | 0.00 | 0.00 | 0.00 | 58 | 1008.1 |
| 20260510093614 | 66 | 92 | 1.7 | 7.0 | 0.00 | 0.00 | 0.00 | 58 | 1008.1 |
| 20260510093512 | 66 | 96 | 2.6 | 7.0 | 0.00 | 0.00 | 0.00 | 60 | 1008.1 |
| 20260510093428 | 66 | 74 | 2.6 | 7.0 | 0.00 | 0.00 | 0.00 | 60 | 1008.1 |
| 20260510093411 | 66 | 69 | 2.6 | 7.0 | 0.00 | 0.00 | 0.00 | 59 | 1008.1 |
| 20260510093310 | 66 | 82 | 2.6 | 7.0 | 0.00 | 0.00 | 0.00 | 59 | 1008.0 |
| 20260510093210 | 66 | 71 | 2.6 | 7.0 | 0.00 | 0.00 | 0.00 | 59 | 1008.1 |
| 20260510093110 | 66 | 320 | 1.7 | 7.0 | 0.00 | 0.00 | 0.00 | 59 | 1008.1 |
| 20260510093010 | 65 | 92 | 1.7 | 7.0 | 0.00 | 0.00 | 0.00 | 59 | 1008.1 |
| 20260510092930 | 65 | 64 | 1.7 | 7.0 | 0.00 | 0.00 | 0.00 | 59 | 1008.1 |
| 20260510092908 | 65 | 78 | 1.7 | 7.0 | 0.00 | 0.00 | 0.00 | 59 | 1008.1 |
| 20260510092808 | 65 | 90 | 1.7 | 7.0 | 0.00 | 0.00 | 0.00 | 60 | 1008.1 |
| 20260510092708 | 65 | 98 | 1.7 | 7.0 | 0.00 | 0.00 | 0.00 | 59 | 1008.1 |
| 20260510092606 | 65 | 109 | 1.7 | 7.0 | 0.00 | 0.00 | 0.00 | 60 | 1008.1 |
| 20260510092504 | 65 | 107 | 1.7 | 7.0 | 0.00 | 0.00 | 0.00 | 61 | 1008.1 |
| 20260510092428 | 65 | 67 | 1.7 | 7.0 | 0.00 | 0.00 | 0.00 | 61 | 1008.1 |
| 20260510092404 | 65 | 92 | 1.7 | 6.1 | 0.00 | 0.00 | 0.00 | 60 | 1008.1 |
| 20260510092306 | 65 | 80 | 1.7 | 6.1 | 0.00 | 0.00 | 0.00 | 61 | 1008.2 |
| 20260510092204 | 65 | 89 | 1.7 | 6.1 | 0.00 | 0.00 | 0.00 | 60 | 1008.1 |
| 20260510092149 | 65 | 91 | 1.7 | 6.1 | 0.00 | 0.00 | 0.00 | 59 | 1008.1 |
| 20260510092144 | 65 | 92 | 1.7 | 6.1 | 0.00 | 0.00 | 0.00 | 59 | 1008.2 |
| 20260510092140 | 65 | 91 | 1.7 | 6.1 | 0.00 | 0.00 | 0.00 | 57 | 1008.2 |
| 20260510091901 | 65 | 104 | 1.7 | 6.1 | 0.00 | 0.00 | 0.00 | 59 | 1008.1 |
| 20260510091801 | 65 | 92 | 1.7 | 6.1 | 0.00 | 0.00 | 0.00 | 61 | 1008.1 |
| 20260510091701 | 65 | 135 | 1.7 | 6.1 | 0.00 | 0.00 | 0.00 | 60 | 1008.2 |
| 20260510091601 | 65 | 88 | 1.7 | 7.0 | 0.00 | 0.00 | 0.00 | 62 | 1008.2 |
| 20260510091501 | 64 | 57 | 2.6 | 7.0 | 0.00 | 0.00 | 0.00 | 61 | 1008.2 |
| 20260510091429 | 64 | 99 | 2.6 | 7.0 | 0.00 | 0.00 | 0.00 | 61 | 1008.2 |
| 20260510091401 | 64 | 82 | 2.6 | 7.0 | 0.00 | 0.00 | 0.00 | 61 | 1008.2 |
| 20260510091301 | 64 | 87 | 2.6 | 7.0 | 0.00 | 0.00 | 0.00 | 60 | 1008.2 |
| 20260510091201 | 64 | 100 | 2.6 | 7.8 | 0.00 | 0.00 | 0.00 | 61 | 1008.2 |
| 20260510091156 | 64 | 70 | 2.6 | 7.8 | 0.00 | 0.00 | 0.00 | 59 | 1008.2 |
| 20260510091144 | 64 | 121 | 2.6 | 7.8 | 0.00 | 0.00 | 0.00 | 60 | 1008.2 |
| 20260510091140 | 64 | 85 | 2.6 | 7.8 | 0.00 | 0.00 | 0.00 | 59 | 1008.2 |
| 20260510090901 | 64 | 86 | 2.6 | 7.8 | 0.00 | 0.00 | 0.00 | 59 | 1008.2 |
| 20260510090801 | 64 | 102 | 2.6 | 7.8 | 0.00 | 0.00 | 0.00 | 60 | 1008.2 |
| 20260510090701 | 64 | 103 | 2.6 | 7.8 | 0.00 | 0.00 | 0.00 | 59 | 1008.2 |
| 20260510090601 | 64 | 101 | 2.6 | 7.8 | 0.00 | 0.00 | 0.00 | 59 | 1008.2 |
| 20260510090501 | 64 | 82 | 2.6 | 7.8 | 0.00 | 0.00 | 0.00 | 59 | 1008.2 |
| 20260510090429 | 64 | 75 | 2.6 | 7.8 | 0.00 | 0.00 | 0.00 | 60 | 1008.2 |
| 20260510090401 | 64 | 113 | 2.6 | 7.8 | 0.00 | 0.00 | 0.00 | 60 | 1008.2 |
| 20260510090301 | 64 | 84 | 2.6 | 7.8 | 0.00 | 0.00 | 0.00 | 61 | 1008.2 |
| 20260510090201 | 64 | 129 | 2.6 | 7.8 | 0.00 | 0.00 | 0.00 | 60 | 1008.2 |
| 20260510090101 | 64 | 105 | 1.7 | 7.8 | 0.00 | 0.00 | 0.00 | 60 | 1008.2 |
| 20260510090001 | 64 | 93 | 1.7 | 7.8 | 0.00 | 0.00 | 0.00 | 62 | 1008.2 |
| 20260510085929 | 64 | 60 | 2.6 | 7.8 | 0.00 | 0.00 | 0.00 | 62 | 1008.2 |
| 20260510085900 | 64 | 47 | 2.6 | 7.8 | 0.00 | 0.00 | 0.00 | 61 | 1008.2 |
| 20260510085801 | 64 | 78 | 1.7 | 7.8 | 0.00 | 0.00 | 0.00 | 62 | 1008.2 |
| 20260510085701 | 64 | 71 | 1.7 | 7.8 | 0.00 | 0.00 | 0.00 | 62 | 1008.2 |
| 20260510085601 | 64 | 70 | 1.7 | 7.8 | 0.00 | 0.00 | 0.00 | 61 | 1008.2 |
| 20260510085501 | 64 | 94 | 1.7 | 7.0 | 0.00 | 0.00 | 0.00 | 61 | 1008.3 |
| 20260510085429 | 64 | 110 | 1.7 | 7.0 | 0.00 | 0.00 | 0.00 | 61 | 1008.3 |
| 20260510085400 | 64 | 130 | 1.7 | 7.0 | 0.00 | 0.00 | 0.00 | 61 | 1008.3 |
| 20260510085300 | 64 | 121 | 1.7 | 7.0 | 0.00 | 0.00 | 0.00 | 61 | 1008.2 |
| 20260510085200 | 64 | 90 | 1.7 | 7.0 | 0.00 | 0.00 | 0.00 | 62 | 1008.2 |
| 20260510085100 | 64 | 106 | 1.7 | 7.0 | 0.00 | 0.00 | 0.00 | 61 | 1008.3 |
| 20260510085001 | 63 | 110 | 1.7 | 7.0 | 0.00 | 0.00 | 0.00 | 62 | 1008.3 |
| 20260510084929 | 63 | 120 | 1.7 | 7.0 | 0.00 | 0.00 | 0.00 | 63 | 1008.3 |
| 20260510084902 | 63 | 106 | 1.7 | 7.0 | 0.00 | 0.00 | 0.00 | 64 | 1008.3 |
| 20260510084801 | 63 | 121 | 1.7 | 7.0 | 0.00 | 0.00 | 0.00 | 62 | 1008.2 |
| 20260510084701 | 63 | 43 | 1.7 | 5.2 | 0.00 | 0.00 | 0.00 | 63 | 1008.2 |
| 20260510084601 | 63 | 117 | 1.7 | 5.2 | 0.00 | 0.00 | 0.00 | 63 | 1008.2 |
| 20260510084501 | 63 | 118 | 1.7 | 5.2 | 0.00 | 0.00 | 0.00 | 63 | 1008.2 |
| 20260510084429 | 63 | 101 | 1.7 | 5.2 | 0.00 | 0.00 | 0.00 | 63 | 1008.2 |
| 20260510084401 | 63 | 82 | 1.7 | 5.2 | 0.00 | 0.00 | 0.00 | 63 | 1008.2 |
| 20260510084301 | 63 | 103 | 1.7 | 6.1 | 0.00 | 0.00 | 0.00 | 63 | 1008.2 |
| 20260510084201 | 63 | 76 | 1.7 | 6.1 | 0.00 | 0.00 | 0.00 | 62 | 1008.3 |
| 20260510084101 | 63 | 84 | 1.7 | 6.1 | 0.00 | 0.00 | 0.00 | 62 | 1008.3 |
| 20260510084001 | 63 | 73 | 1.7 | 6.1 | 0.00 | 0.00 | 0.00 | 62 | 1008.3 |
| 20260510083930 | 63 | 78 | 1.7 | 6.1 | 0.00 | 0.00 | 0.00 | 61 | 1008.3 |
| 20260510083901 | 63 | 98 | 1.7 | 6.1 | 0.00 | 0.00 | 0.00 | 61 | 1008.3 |
| 20260510083801 | 63 | 92 | 1.7 | 7.0 | 0.00 | 0.00 | 0.00 | 62 | 1008.3 |
| 20260510083701 | 63 | 84 | 1.7 | 7.0 | 0.00 | 0.00 | 0.00 | 63 | 1008.4 |
| 20260510083600 | 63 | 99 | 1.7 | 7.0 | 0.00 | 0.00 | 0.00 | 62 | 1008.4 |
| 20260510083500 | 62 | 117 | 1.7 | 7.0 | 0.00 | 0.00 | 0.00 | 62 | 1008.4 |
| 20260510083429 | 62 | 111 | 1.7 | 7.0 | 0.00 | 0.00 | 0.00 | 63 | 1008.4 |
| 20260510083401 | 62 | 121 | 1.7 | 7.0 | 0.00 | 0.00 | 0.00 | 63 | 1008.4 |
| 20260510083301 | 62 | 87 | 1.7 | 7.0 | 0.00 | 0.00 | 0.00 | 63 | 1008.4 |
| 20260510083201 | 62 | 71 | 1.7 | 7.0 | 0.00 | 0.00 | 0.00 | 63 | 1008.3 |
| 20260510083101 | 62 | 84 | 2.6 | 7.0 | 0.00 | 0.00 | 0.00 | 63 | 1008.3 |
| 20260510083001 | 62 | 108 | 2.6 | 7.0 | 0.00 | 0.00 | 0.00 | 64 | 1008.4 |
| 20260510082929 | 62 | 107 | 1.7 | 7.0 | 0.00 | 0.00 | 0.00 | 64 | 1008.3 |
| 20260510082900 | 62 | 106 | 1.7 | 7.0 | 0.00 | 0.00 | 0.00 | 65 | 1008.3 |
| 20260510082805 | 62 | 109 | 2.6 | 7.0 | 0.00 | 0.00 | 0.00 | 65 | 1008.3 |
| 20260510082701 | 62 | 99 | 1.7 | 7.0 | 0.00 | 0.00 | 0.00 | 64 | 1008.4 |
| 20260510082601 | 62 | 99 | 1.7 | 7.0 | 0.00 | 0.00 | 0.00 | 65 | 1008.4 |
| 20260510082500 | 62 | 65 | 1.7 | 7.0 | 0.00 | 0.00 | 0.00 | 64 | 1008.4 |
| 20260510082429 | 62 | 103 | 1.7 | 7.0 | 0.00 | 0.00 | 0.00 | 64 | 1008.4 |
| 20260510082400 | 62 | 87 | 1.7 | 7.0 | 0.00 | 0.00 | 0.00 | 64 | 1008.4 |
| 20260510082307 | 62 | 99 | 1.7 | 8.7 | 0.00 | 0.00 | 0.00 | 64 | 1008.4 |
| 20260510082200 | 62 | 76 | 1.7 | 8.7 | 0.00 | 0.00 | 0.00 | 65 | 1008.3 |
| 20260510082101 | 61 | 123 | 1.7 | 8.7 | 0.00 | 0.00 | 0.00 | 66 | 1008.4 |
| 20260510082001 | 61 | 98 | 1.7 | 8.7 | 0.00 | 0.00 | 0.00 | 65 | 1008.4 |
| 20260510081929 | 61 | 76 | 1.7 | 8.7 | 0.00 | 0.00 | 0.00 | 65 | 1008.4 |
| 20260510081902 | 61 | 69 | 1.7 | 8.7 | 0.00 | 0.00 | 0.00 | 64 | 1008.4 |
| 20260510081803 | 61 | 92 | 1.7 | 8.7 | 0.00 | 0.00 | 0.00 | 65 | 1008.4 |
| 20260510081701 | 61 | 96 | 1.7 | 8.7 | 0.00 | 0.00 | 0.00 | 66 | 1008.4 |
| 20260510081601 | 61 | 128 | 1.7 | 8.7 | 0.00 | 0.00 | 0.00 | 66 | 1008.4 |
| 20260510081501 | 61 | 115 | 1.7 | 8.7 | 0.00 | 0.00 | 0.00 | 65 | 1008.4 |
| 20260510081429 | 61 | 111 | 1.7 | 8.7 | 0.00 | 0.00 | 0.00 | 64 | 1008.4 |
| 20260510081402 | 61 | 88 | 1.7 | 8.7 | 0.00 | 0.00 | 0.00 | 64 | 1008.4 |
| 20260510081301 | 61 | 117 | 1.7 | 6.1 | 0.00 | 0.00 | 0.00 | 66 | 1008.4 |
| 20260510081201 | 61 | 114 | 1.7 | 6.1 | 0.00 | 0.00 | 0.00 | 67 | 1008.4 |
| 20260510081101 | 61 | 93 | 1.7 | 6.1 | 0.00 | 0.00 | 0.00 | 68 | 1008.4 |
| 20260510081001 | 61 | 96 | 1.7 | 6.1 | 0.00 | 0.00 | 0.00 | 68 | 1008.4 |
| 20260510080928 | 61 | 96 | 1.7 | 6.1 | 0.00 | 0.00 | 0.00 | 68 | 1008.4 |
| 20260510080901 | 61 | 77 | 1.7 | 6.1 | 0.00 | 0.00 | 0.00 | 68 | 1008.4 |
| 20260510080801 | 61 | 88 | 1.7 | 6.1 | 0.00 | 0.00 | 0.00 | 67 | 1008.4 |
| 20260510080701 | 61 | 110 | 1.7 | 6.1 | 0.00 | 0.00 | 0.00 | 68 | 1008.4 |
| 20260510080601 | 61 | 82 | 1.7 | 6.1 | 0.00 | 0.00 | 0.00 | 67 | 1008.4 |
| 20260510080501 | 60 | 103 | 1.7 | 6.1 | 0.00 | 0.00 | 0.00 | 68 | 1008.4 |
| 20260510080429 | 60 | 93 | 1.7 | 6.1 | 0.00 | 0.00 | 0.00 | 68 | 1008.4 |
| 20260510080401 | 60 | 87 | 1.7 | 6.1 | 0.00 | 0.00 | 0.00 | 68 | 1008.4 |
| 20260510080300 | 60 | 61 | 1.7 | 6.1 | 0.00 | 0.00 | 0.00 | 69 | 1008.4 |
| 20260510080201 | 60 | 117 | 1.7 | 6.1 | 0.00 | 0.00 | 0.00 | 67 | 1008.4 |
| 20260510080056 | 60 | 119 | 1.7 | 6.1 | 0.00 | 0.00 | 0.00 | 67 | 1008.4 |
| 20260510075956 | 60 | 88 | 1.7 | 6.1 | 0.00 | 0.00 | 0.00 | 66 | 1008.4 |
| 20260510075929 | 60 | 103 | 1.7 | 5.2 | 0.00 | 0.00 | 0.00 | 68 | 1008.4 |
| 20260510075855 | 60 | 114 | 1.7 | 5.2 | 0.00 | 0.00 | 0.00 | 68 | 1008.6 |
| 20260510075756 | 60 | 88 | 1.7 | 7.0 | 0.00 | 0.00 | 0.00 | 68 | 1008.6 |
| 20260510075656 | 60 | 104 | 1.7 | 7.0 | 0.00 | 0.00 | 0.00 | 67 | 1008.6 |
| 20260510075551 | 60 | 104 | 1.7 | 7.0 | 0.00 | 0.00 | 0.00 | 68 | 1008.6 |
| 20260510075451 | 60 | 109 | 1.7 | 7.0 | 0.00 | 0.00 | 0.00 | 68 | 1008.6 |
| 20260510075430 | 60 | 93 | 1.7 | 7.0 | 0.00 | 0.00 | 0.00 | 68 | 1008.6 |
| 20260510075352 | 60 | 88 | 1.7 | 7.0 | 0.00 | 0.00 | 0.00 | 68 | 1008.6 |
| 20260510075252 | 60 | 86 | 1.7 | 7.0 | 0.00 | 0.00 | 0.00 | 67 | 1008.6 |
| 20260510075149 | 60 | 94 | 2.6 | 7.0 | 0.00 | 0.00 | 0.00 | 68 | 1008.6 |
| 20260510075044 | 60 | 95 | 2.6 | 7.0 | 0.00 | 0.00 | 0.00 | 68 | 1008.6 |
| 20260510074944 | 59 | 115 | 2.6 | 7.0 | 0.00 | 0.00 | 0.00 | 69 | 1008.6 |
| 20260510074930 | 59 | 112 | 2.6 | 7.8 | 0.00 | 0.00 | 0.00 | 69 | 1008.6 |
| 20260510074844 | 59 | 101 | 2.6 | 7.8 | 0.00 | 0.00 | 0.00 | 69 | 1008.6 |
| 20260510074744 | 59 | 132 | 2.6 | 7.8 | 0.00 | 0.00 | 0.00 | 69 | 1008.6 |
| 20260510074645 | 59 | 82 | 2.6 | 7.8 | 0.00 | 0.00 | 0.00 | 69 | 1008.6 |
| 20260510074538 | 59 | 100 | 2.6 | 7.8 | 0.00 | 0.00 | 0.00 | 70 | 1008.6 |
| 20260510074429 | 59 | 103 | 2.6 | 7.8 | 0.00 | 0.00 | 0.00 | 69 | 1008.7 |
| 20260510074338 | 59 | 114 | 2.6 | 7.8 | 0.00 | 0.00 | 0.00 | 68 | 1008.7 |
| 20260510074238 | 59 | 109 | 1.7 | 7.8 | 0.00 | 0.00 | 0.00 | 69 | 1008.7 |
| 20260510074138 | 59 | 144 | 1.7 | 7.8 | 0.00 | 0.00 | 0.00 | 68 | 1008.7 |
| 20260510074038 | 59 | 105 | 1.7 | 7.8 | 0.00 | 0.00 | 0.00 | 69 | 1008.7 |
| 20260510073938 | 59 | 111 | 1.7 | 7.8 | 0.00 | 0.00 | 0.00 | 70 | 1008.7 |
| 20260510073930 | 59 | 102 | 1.7 | 6.1 | 0.00 | 0.00 | 0.00 | 70 | 1008.7 |
| 20260510073838 | 58 | 132 | 1.7 | 6.1 | 0.00 | 0.00 | 0.00 | 69 | 1008.7 |
| 20260510073738 | 58 | 105 | 1.7 | 6.1 | 0.00 | 0.00 | 0.00 | 70 | 1008.7 |
| 20260510073638 | 58 | 90 | 1.7 | 6.1 | 0.00 | 0.00 | 0.00 | 71 | 1008.7 |
| 20260510073538 | 58 | 123 | 1.7 | 6.1 | 0.00 | 0.00 | 0.00 | 71 | 1008.7 |
| 20260510073428 | 58 | 132 | 1.7 | 6.1 | 0.00 | 0.00 | 0.00 | 71 | 1008.7 |
| 20260510073335 | 58 | 101 | 1.7 | 6.1 | 0.00 | 0.00 | 0.00 | 71 | 1008.7 |
| 20260510073236 | 58 | 101 | 1.7 | 6.1 | 0.00 | 0.00 | 0.00 | 72 | 1008.7 |
| 20260510073133 | 58 | 92 | 1.7 | 6.1 | 0.00 | 0.00 | 0.00 | 71 | 1008.7 |
| 20260510073033 | 58 | 91 | 1.7 | 6.1 | 0.00 | 0.00 | 0.00 | 72 | 1008.7 |
| 20260510072934 | 58 | 107 | 0.9 | 6.1 | 0.00 | 0.00 | 0.00 | 72 | 1008.7 |
| 20260510072929 | 58 | 108 | 0.9 | 6.1 | 0.00 | 0.00 | 0.00 | 72 | 1008.7 |
| 20260510072834 | 58 | 128 | 0.9 | 6.1 | 0.00 | 0.00 | 0.00 | 72 | 1008.7 |
| 20260510072734 | 57 | 88 | 0.9 | 6.1 | 0.00 | 0.00 | 0.00 | 73 | 1008.7 |
| 20260510072634 | 57 | 117 | 0.9 | 6.1 | 0.00 | 0.00 | 0.00 | 73 | 1008.7 |
| 20260510072532 | 57 | 117 | 0.9 | 6.1 | 0.00 | 0.00 | 0.00 | 72 | 1008.7 |
| 20260510072429 | 57 | 88 | 0.9 | 3.5 | 0.00 | 0.00 | 0.00 | 73 | 1008.7 |
| 20260510072329 | 57 | 90 | 0.9 | 3.5 | 0.00 | 0.00 | 0.00 | 74 | 1008.7 |
| 20260510072230 | 57 | 86 | 0.9 | 3.5 | 0.00 | 0.00 | 0.00 | 74 | 1008.7 |
| 20260510072129 | 57 | 82 | 0.9 | 3.5 | 0.00 | 0.00 | 0.00 | 73 | 1008.6 |
| 20260510072029 | 57 | 98 | 0.9 | 7.0 | 0.00 | 0.00 | 0.00 | 73 | 1008.6 |
| 20260510071931 | 56 | 98 | 1.7 | 7.0 | 0.00 | 0.00 | 0.00 | 73 | 1008.6 |
| 20260510071829 | 56 | 98 | 1.7 | 7.0 | 0.00 | 0.00 | 0.00 | 73 | 1008.7 |
| 20260510071729 | 56 | 92 | 1.7 | 7.0 | 0.00 | 0.00 | 0.00 | 74 | 1008.7 |
| 20260510071629 | 56 | 89 | 1.7 | 7.0 | 0.00 | 0.00 | 0.00 | 75 | 1008.7 |
| 20260510071529 | 56 | 89 | 1.7 | 7.0 | 0.00 | 0.00 | 0.00 | 75 | 1008.7 |
| 20260510071426 | 56 | 102 | 1.7 | 7.0 | 0.00 | 0.00 | 0.00 | 74 | 1008.7 |
| 20260510071329 | 56 | 103 | 1.7 | 7.0 | 0.00 | 0.00 | 0.00 | 74 | 1008.7 |
| 20260510071228 | 56 | 89 | 1.7 | 7.0 | 0.00 | 0.00 | 0.00 | 74 | 1008.8 |
| 20260510071128 | 56 | 96 | 1.7 | 7.0 | 0.00 | 0.00 | 0.00 | 74 | 1008.8 |
| 20260510071029 | 56 | 103 | 1.7 | 5.2 | 0.00 | 0.00 | 0.00 | 74 | 1008.8 |
| 20260510070920 | 55 | 123 | 1.7 | 5.2 | 0.00 | 0.00 | 0.00 | 75 | 1008.8 |
| 20260510070907 | 55 | 136 | 1.7 | 6.1 | 0.00 | 0.00 | 0.00 | 74 | 1008.8 |
| 20260510070902 | 55 | 119 | 1.7 | 5.2 | 0.00 | 0.00 | 0.00 | 75 | 1008.8 |
| 20260510070853 | 55 | 109 | 1.7 | 5.2 | 0.00 | 0.00 | 0.00 | 74 | 1008.8 |
| 20260510070634 | 55 | 108 | 1.7 | 5.2 | 0.00 | 0.00 | 0.00 | 74 | 1008.8 |
| 20260510070630 | 55 | 107 | 1.7 | 6.1 | 0.00 | 0.00 | 0.00 | 74 | 1008.8 |
| 20260510070625 | 55 | 136 | 1.7 | 6.1 | 0.00 | 0.00 | 0.00 | 74 | 1008.8 |
| 20260510070328 | 55 | 142 | 1.7 | 6.1 | 0.00 | 0.00 | 0.00 | 74 | 1008.8 |
| 20260510070233 | 55 | 141 | 1.7 | 6.1 | 0.00 | 0.00 | 0.00 | 74 | 1008.9 |
| 20260510070133 | 55 | 115 | 1.7 | 7.0 | 0.00 | 0.00 | 0.00 | 75 | 1008.9 |
| 20260510070128 | 55 | 140 | 1.7 | 6.1 | 0.00 | 0.00 | 0.00 | 75 | 1008.8 |
| 20260510070124 | 55 | 105 | 1.7 | 7.0 | 0.00 | 0.00 | 0.00 | 74 | 1008.9 |
| 20260510070120 | 55 | 114 | 1.7 | 7.0 | 0.00 | 0.00 | 0.00 | 75 | 1008.9 |
| 20260510065828 | 55 | 105 | 1.7 | 7.0 | 0.00 | 0.00 | 0.00 | 74 | 1008.9 |
| 20260510065730 | 55 | 103 | 1.7 | 7.0 | 0.00 | 0.00 | 0.00 | 74 | 1009.0 |
| 20260510065621 | 55 | 98 | 1.7 | 7.0 | 0.00 | 0.00 | 0.00 | 75 | 1009.0 |
| 20260510065521 | 55 | 111 | 0.9 | 7.0 | 0.00 | 0.00 | 0.00 | 76 | 1009.0 |
| 20260510065421 | 55 | 105 | 0.9 | 7.0 | 0.00 | 0.00 | 0.00 | 76 | 1009.0 |
| 20260510065406 | 55 | 128 | 0.9 | 7.0 | 0.00 | 0.00 | 0.00 | 76 | 1009.0 |
| 20260510065322 | 55 | 134 | 0.9 | 7.0 | 0.00 | 0.00 | 0.00 | 76 | 1009.0 |
| 20260510065224 | 55 | 134 | 0.9 | 7.0 | 0.00 | 0.00 | 0.00 | 75 | 1009.0 |
| 20260510065118 | 55 | 65 | 0.9 | 7.0 | 0.00 | 0.00 | 0.00 | 76 | 1009.0 |
| 20260510065018 | 54 | 96 | 0.9 | 3.5 | 0.00 | 0.00 | 0.00 | 76 | 1009.0 |
| 20260510064905 | 54 | 95 | 0.9 | 3.5 | 0.00 | 0.00 | 0.00 | 77 | 1009.0 |
| 20260510064815 | 54 | 88 | 0.9 | 3.5 | 0.00 | 0.00 | 0.00 | 77 | 1009.0 |
| 20260510064719 | 54 | 96 | 0.9 | 3.5 | 0.00 | 0.00 | 0.00 | 77 | 1009.0 |
| 20260510064615 | 54 | 111 | 0.9 | 3.5 | 0.00 | 0.00 | 0.00 | 76 | 1009.0 |
| 20260510064515 | 54 | 97 | 0.9 | 3.5 | 0.00 | 0.00 | 0.00 | 77 | 1009.0 |
| 20260510064404 | 54 | 109 | 0.9 | 3.5 | 0.00 | 0.00 | 0.00 | 77 | 1009.0 |
| 20260510064314 | 54 | 109 | 0.9 | 3.5 | 0.00 | 0.00 | 0.00 | 77 | 1009.0 |
| 20260510064218 | 54 | 101 | 0.9 | 3.5 | 0.00 | 0.00 | 0.00 | 77 | 1009.0 |
| 20260510064124 | 54 | 102 | 0.9 | 3.5 | 0.00 | 0.00 | 0.00 | 77 | 1009.1 |
| 20260510064120 | 54 | 92 | 0.9 | 3.5 | 0.00 | 0.00 | 0.00 | 77 | 1009.1 |
| 20260510064116 | 54 | 94 | 0.9 | 3.5 | 0.00 | 0.00 | 0.00 | 77 | 1009.1 |
| 20260510063811 | 53 | 94 | 0.9 | 3.5 | 0.00 | 0.00 | 0.00 | 77 | 1009.0 |
| 20260510063717 | 53 | 105 | 0.9 | 3.5 | 0.00 | 0.00 | 0.00 | 77 | 1009.0 |
| 20260510063610 | 53 | 126 | 0.9 | 3.5 | 0.00 | 0.00 | 0.00 | 78 | 1009.0 |
| 20260510063507 | 53 | 98 | 0.9 | 5.2 | 0.00 | 0.00 | 0.00 | 78 | 1009.1 |
| 20260510063403 | 53 | 99 | 0.9 | 5.2 | 0.00 | 0.00 | 0.00 | 78 | 1009.1 |
| 20260510063307 | 53 | 126 | 0.9 | 5.2 | 0.00 | 0.00 | 0.00 | 78 | 1009.1 |
| 20260510063208 | 53 | 104 | 0.9 | 5.2 | 0.00 | 0.00 | 0.00 | 78 | 1009.1 |
| 20260510063108 | 53 | 121 | 0.9 | 5.2 | 0.00 | 0.00 | 0.00 | 78 | 1009.1 |
| 20260510063006 | 53 | 115 | 0.9 | 5.2 | 0.00 | 0.00 | 0.00 | 77 | 1009.1 |
| 20260510062903 | 53 | 113 | 0.9 | 5.2 | 0.00 | 0.00 | 0.00 | 77 | 1009.1 |
| 20260510062803 | 53 | 99 | 0.9 | 5.2 | 0.00 | 0.00 | 0.00 | 77 | 1009.1 |
| 20260510062702 | 53 | 94 | 0.9 | 5.2 | 0.00 | 0.00 | 0.00 | 77 | 1009.1 |
| 20260510062602 | 53 | 99 | 0.9 | 5.2 | 0.00 | 0.00 | 0.00 | 77 | 1009.1 |
| 20260510062501 | 53 | 100 | 0.9 | 3.5 | 0.00 | 0.00 | 0.00 | 77 | 1009.0 |
| 20260510062405 | 53 | 101 | 0.9 | 3.5 | 0.00 | 0.00 | 0.00 | 77 | 1009.0 |
| 20260510062401 | 53 | 102 | 0.9 | 3.5 | 0.00 | 0.00 | 0.00 | 77 | 1009.0 |
| 20260510062306 | 53 | 86 | 0.9 | 3.5 | 0.00 | 0.00 | 0.00 | 78 | 1009.0 |
| 20260510062201 | 53 | 98 | 0.9 | 3.5 | 0.00 | 0.00 | 0.00 | 79 | 1009.1 |
| 20260510062101 | 53 | 84 | 0.9 | 3.5 | 0.00 | 0.00 | 0.00 | 78 | 1009.1 |
| 20260510062001 | 53 | 94 | 0.9 | 3.5 | 0.00 | 0.00 | 0.00 | 77 | 1009.1 |
| 20260510061904 | 53 | 94 | 0.9 | 3.5 | 0.00 | 0.00 | 0.00 | 78 | 1009.1 |
| 20260510061855 | 53 | 85 | 0.9 | 3.5 | 0.00 | 0.00 | 0.00 | 78 | 1009.1 |
| 20260510061755 | 53 | 92 | 0.9 | 3.5 | 0.00 | 0.00 | 0.00 | 78 | 1009.1 |
| 20260510061655 | 53 | 76 | 0.9 | 3.5 | 0.00 | 0.00 | 0.00 | 78 | 1009.1 |
| 20260510061555 | 53 | 118 | 0.9 | 3.5 | 0.00 | 0.00 | 0.00 | 78 | 1009.1 |
| 20260510061453 | 53 | 121 | 0.9 | 3.5 | 0.00 | 0.00 | 0.00 | 78 | 1009.1 |
| 20260510061403 | 53 | 69 | 0.9 | 2.6 | 0.00 | 0.00 | 0.00 | 78 | 1009.1 |
| 20260510061348 | 53 | 104 | 0.9 | 2.6 | 0.00 | 0.00 | 0.00 | 78 | 1009.1 |
| 20260510061248 | 53 | 110 | 0.9 | 2.6 | 0.00 | 0.00 | 0.00 | 78 | 1009.1 |
| 20260510061148 | 53 | 109 | 0.9 | 2.6 | 0.00 | 0.00 | 0.00 | 78 | 1009.2 |
| 20260510061048 | 53 | 111 | 0.9 | 2.6 | 0.00 | 0.00 | 0.00 | 79 | 1009.1 |
| 20260510060947 | 52 | 86 | 0.9 | 2.6 | 0.00 | 0.00 | 0.00 | 78 | 1009.2 |
| 20260510060904 | 52 | 86 | 0.9 | 2.6 | 0.00 | 0.00 | 0.00 | 78 | 1009.2 |
| 20260510060843 | 52 | 86 | 0.9 | 2.6 | 0.00 | 0.00 | 0.00 | 78 | 1009.2 |
| 20260510060744 | 52 | 95 | 0.9 | 2.6 | 0.00 | 0.00 | 0.00 | 79 | 1009.2 |
| 20260510060644 | 52 | 113 | 0.9 | 2.6 | 0.00 | 0.00 | 0.00 | 79 | 1009.2 |
| 20260510060542 | 52 | 88 | 0.9 | 2.6 | 0.00 | 0.00 | 0.00 | 79 | 1009.1 |
| 20260510060440 | 52 | 88 | 0.9 | 2.6 | 0.00 | 0.00 | 0.00 | 79 | 1009.2 |
| 20260510060404 | 52 | 88 | 0.9 | 3.5 | 0.00 | 0.00 | 0.00 | 80 | 1009.2 |
| 20260510060333 | 52 | 85 | 0.9 | 3.5 | 0.00 | 0.00 | 0.00 | 80 | 1009.1 |
| 20260510060233 | 52 | 82 | 1.7 | 3.5 | 0.00 | 0.00 | 0.00 | 80 | 1009.1 |
| 20260510060133 | 52 | 86 | 0.9 | 3.5 | 0.00 | 0.00 | 0.00 | 81 | 1009.1 |
| 20260510060033 | 51 | 91 | 0.9 | 3.5 | 0.00 | 0.00 | 0.00 | 81 | 1009.2 |
| 20260510055903 | 51 | 96 | 0.9 | 3.5 | 0.00 | 0.00 | 0.00 | 81 | 1009.2 |
| 20260510055830 | 51 | 114 | 0.9 | 3.5 | 0.00 | 0.00 | 0.00 | 81 | 1009.2 |
| 20260510055730 | 51 | 114 | 1.7 | 3.5 | 0.00 | 0.00 | 0.00 | 81 | 1009.2 |
| 20260510055630 | 51 | 90 | 1.7 | 3.5 | 0.00 | 0.00 | 0.00 | 81 | 1009.3 |
| 20260510055530 | 51 | 89 | 1.7 | 3.5 | 0.00 | 0.00 | 0.00 | 81 | 1009.3 |
| 20260510055429 | 51 | 91 | 1.7 | 3.5 | 0.00 | 0.00 | 0.00 | 81 | 1009.3 |
| 20260510055404 | 51 | 80 | 1.7 | 3.5 | 0.00 | 0.00 | 0.00 | 81 | 1009.3 |
| 20260510055329 | 51 | 84 | 1.7 | 3.5 | 0.00 | 0.00 | 0.00 | 82 | 1009.3 |
| 20260510055229 | 50 | 119 | 1.7 | 3.5 | 0.00 | 0.00 | 0.00 | 82 | 1009.3 |
| 20260510055129 | 50 | 95 | 1.7 | 3.5 | 0.00 | 0.00 | 0.00 | 82 | 1009.3 |
| 20260510055029 | 50 | 98 | 1.7 | 3.5 | 0.00 | 0.00 | 0.00 | 82 | 1009.3 |
| 20260510054904 | 50 | 105 | 1.7 | 5.2 | 0.00 | 0.00 | 0.00 | 82 | 1009.3 |
| 20260510054829 | 50 | 106 | 1.7 | 5.2 | 0.00 | 0.00 | 0.00 | 82 | 1009.3 |
| 20260510054732 | 50 | 107 | 1.7 | 5.2 | 0.00 | 0.00 | 0.00 | 82 | 1009.3 |
| 20260510054629 | 50 | 103 | 1.7 | 5.2 | 0.00 | 0.00 | 0.00 | 82 | 1009.4 |
| 20260510054529 | 49 | 103 | 0.9 | 5.2 | 0.00 | 0.00 | 0.00 | 82 | 1009.4 |
| 20260510054403 | 49 | 101 | 0.9 | 5.2 | 0.00 | 0.00 | 0.00 | 83 | 1009.4 |
| 20260510054329 | 49 | 109 | 0.9 | 5.2 | 0.00 | 0.00 | 0.00 | 83 | 1009.4 |
| 20260510054228 | 49 | 111 | 0.9 | 5.2 | 0.00 | 0.00 | 0.00 | 83 | 1009.4 |
| 20260510054129 | 49 | 95 | 0.9 | 5.2 | 0.00 | 0.00 | 0.00 | 83 | 1009.4 |
| 20260510054124 | 49 | 103 | 0.9 | 4.3 | 0.00 | 0.00 | 0.00 | 84 | 1009.3 |
| 20260510054118 | 49 | 87 | 0.9 | 5.2 | 0.00 | 0.00 | 0.00 | 84 | 1009.4 |
| 20260510054114 | 49 | 115 | 0.9 | 3.5 | 0.00 | 0.00 | 0.00 | 84 | 1009.3 |
| 20260510053829 | 49 | 101 | 1.7 | 4.3 | 0.00 | 0.00 | 0.00 | 84 | 1009.4 |
| 20260510053729 | 49 | 101 | 1.7 | 4.3 | 0.00 | 0.00 | 0.00 | 84 | 1009.4 |
| 20260510053628 | 48 | 100 | 1.7 | 4.3 | 0.00 | 0.00 | 0.00 | 83 | 1009.4 |
| 20260510053527 | 48 | 100 | 1.7 | 4.3 | 0.00 | 0.00 | 0.00 | 84 | 1009.4 |
| 20260510053427 | 48 | 107 | 2.6 | 6.1 | 0.00 | 0.00 | 0.00 | 84 | 1009.4 |
| 20260510053404 | 48 | 109 | 2.6 | 6.1 | 0.00 | 0.00 | 0.00 | 84 | 1009.4 |
| 20260510053327 | 48 | 110 | 2.6 | 6.1 | 0.00 | 0.00 | 0.00 | 84 | 1009.4 |
| 20260510053225 | 48 | 120 | 2.6 | 6.1 | 0.00 | 0.00 | 0.00 | 85 | 1009.4 |
| 20260510053126 | 48 | 125 | 3.5 | 6.1 | 0.00 | 0.00 | 0.00 | 85 | 1009.4 |
| 20260510053025 | 48 | 126 | 3.5 | 6.1 | 0.00 | 0.00 | 0.00 | 85 | 1009.4 |
| 20260510052921 | 48 | 143 | 3.5 | 6.1 | 0.00 | 0.00 | 0.00 | 85 | 1009.4 |
| 20260510052904 | 48 | 142 | 3.5 | 6.1 | 0.00 | 0.00 | 0.00 | 85 | 1009.4 |
| 20260510052821 | 48 | 145 | 3.5 | 6.1 | 0.00 | 0.00 | 0.00 | 86 | 1009.4 |
| 20260510052720 | 47 | 145 | 3.5 | 6.1 | 0.00 | 0.00 | 0.00 | 85 | 1009.5 |
| 20260510052619 | 47 | 142 | 3.5 | 7.0 | 0.00 | 0.00 | 0.00 | 86 | 1009.5 |
| 20260510052519 | 47 | 148 | 3.5 | 7.0 | 0.00 | 0.00 | 0.00 | 86 | 1009.5 |
| 20260510052419 | 47 | 148 | 3.5 | 7.0 | 0.00 | 0.00 | 0.00 | 85 | 1009.5 |
| 20260510052404 | 47 | 144 | 3.5 | 7.0 | 0.00 | 0.00 | 0.00 | 85 | 1009.5 |
| 20260510052320 | 47 | 144 | 3.5 | 7.0 | 0.00 | 0.00 | 0.00 | 85 | 1009.5 |
| 20260510052220 | 47 | 134 | 3.5 | 7.0 | 0.00 | 0.00 | 0.00 | 85 | 1009.5 |
| 20260510052120 | 47 | 140 | 3.5 | 7.0 | 0.00 | 0.00 | 0.00 | 85 | 1009.5 |
| 20260510052020 | 47 | 132 | 3.5 | 7.0 | 0.00 | 0.00 | 0.00 | 85 | 1009.5 |
| 20260510051919 | 47 | 132 | 3.5 | 7.0 | 0.00 | 0.00 | 0.00 | 85 | 1009.5 |
| 20260510051904 | 47 | 126 | 3.5 | 7.0 | 0.00 | 0.00 | 0.00 | 85 | 1009.5 |
| 20260510051819 | 47 | 132 | 3.5 | 7.0 | 0.00 | 0.00 | 0.00 | 85 | 1009.4 |
| 20260510051716 | 47 | 139 | 3.5 | 7.0 | 0.00 | 0.00 | 0.00 | 86 | 1009.5 |
| 20260510051615 | 47 | 150 | 3.5 | 7.0 | 0.00 | 0.00 | 0.00 | 86 | 1009.5 |
| 20260510051515 | 46 | 136 | 3.5 | 7.0 | 0.00 | 0.00 | 0.00 | 86 | 1009.5 |
| 20260510051415 | 46 | 139 | 3.5 | 7.0 | 0.00 | 0.00 | 0.00 | 86 | 1009.5 |
| 20260510051404 | 46 | 132 | 3.5 | 7.0 | 0.00 | 0.00 | 0.00 | 86 | 1009.5 |
| 20260510051316 | 46 | 150 | 3.5 | 7.0 | 0.00 | 0.00 | 0.00 | 86 | 1009.4 |
| 20260510051216 | 46 | 135 | 3.5 | 7.0 | 0.00 | 0.00 | 0.00 | 86 | 1009.4 |
| 20260510051115 | 46 | 138 | 2.6 | 7.0 | 0.00 | 0.00 | 0.00 | 86 | 1009.4 |
| 20260510051016 | 46 | 142 | 2.6 | 7.0 | 0.00 | 0.00 | 0.00 | 86 | 1009.4 |
| 20260510050916 | 46 | 145 | 2.6 | 7.0 | 0.00 | 0.00 | 0.00 | 87 | 1009.4 |
| 20260510050904 | 46 | 149 | 2.6 | 7.0 | 0.00 | 0.00 | 0.00 | 87 | 1009.4 |
| 20260510050816 | 46 | 155 | 2.6 | 7.0 | 0.00 | 0.00 | 0.00 | 87 | 1009.4 |
| 20260510050716 | 45 | 111 | 2.6 | 6.1 | 0.00 | 0.00 | 0.00 | 87 | 1009.4 |
| 20260510050615 | 45 | 138 | 2.6 | 6.1 | 0.00 | 0.00 | 0.00 | 87 | 1009.4 |
| 20260510050515 | 45 | 130 | 2.6 | 6.1 | 0.00 | 0.00 | 0.00 | 87 | 1009.4 |
| 20260510050403 | 45 | 140 | 2.6 | 6.1 | 0.00 | 0.00 | 0.00 | 87 | 1009.4 |
| 20260510050315 | 45 | 141 | 2.6 | 6.1 | 0.00 | 0.00 | 0.00 | 87 | 1009.4 |
| 20260510050216 | 45 | 150 | 1.7 | 6.1 | 0.00 | 0.00 | 0.00 | 87 | 1009.4 |
| 20260510050116 | 44 | 144 | 1.7 | 5.2 | 0.00 | 0.00 | 0.00 | 87 | 1009.4 |
| 20260510050016 | 44 | 134 | 1.7 | 5.2 | 0.00 | 0.00 | 0.00 | 87 | 1009.4 |
| 20260510045915 | 44 | 153 | 1.7 | 4.3 | 0.00 | 0.00 | 0.00 | 88 | 1009.4 |
| 20260510045903 | 44 | 151 | 1.7 | 4.3 | 0.00 | 0.00 | 0.00 | 88 | 1009.4 |
| 20260510045811 | 44 | 165 | 1.7 | 4.3 | 0.00 | 0.00 | 0.00 | 88 | 1009.4 |
| 20260510045711 | 44 | 165 | 0.9 | 4.3 | 0.00 | 0.00 | 0.00 | 88 | 1009.3 |
| 20260510045611 | 44 | 154 | 0.9 | 4.3 | 0.00 | 0.00 | 0.00 | 88 | 1009.3 |
| 20260510045512 | 44 | 137 | 0.9 | 2.6 | 0.00 | 0.00 | 0.00 | 88 | 1009.3 |
| 20260510045404 | 43 | 136 | 0.9 | 2.6 | 0.00 | 0.00 | 0.00 | 88 | 1009.3 |
| 20260510045311 | 43 | 136 | 0.9 | 2.6 | 0.00 | 0.00 | 0.00 | 88 | 1009.3 |
| 20260510045211 | 43 | 136 | 0.9 | 1.7 | 0.00 | 0.00 | 0.00 | 88 | 1009.3 |
| 20260510045123 | 43 | 136 | 0.9 | 1.7 | 0.00 | 0.00 | 0.00 | 88 | 1009.3 |
| 20260510045119 | 43 | 136 | 0.9 | 1.7 | 0.00 | 0.00 | 0.00 | 88 | 1009.3 |
| 20260510045115 | 43 | 136 | 0.0 | 1.7 | 0.00 | 0.00 | 0.00 | 88 | 1009.4 |
| 20260510044811 | 43 | 136 | 0.0 | 1.7 | 0.00 | 0.00 | 0.00 | 88 | 1009.4 |
| 20260510044711 | 43 | 136 | 0.0 | 1.7 | 0.00 | 0.00 | 0.00 | 88 | 1009.4 |
| 20260510044612 | 43 | 136 | 0.0 | 1.7 | 0.00 | 0.00 | 0.00 | 88 | 1009.5 |
| 20260510044511 | 43 | 136 | 0.0 | 1.7 | 0.00 | 0.00 | 0.00 | 88 | 1009.5 |
| 20260510044403 | 43 | 136 | 0.0 | 1.7 | 0.00 | 0.00 | 0.00 | 88 | 1009.5 |
| 20260510044311 | 43 | 136 | 0.0 | 1.7 | 0.00 | 0.00 | 0.00 | 88 | 1009.5 |
| 20260510044211 | 43 | 136 | 0.0 | 1.7 | 0.00 | 0.00 | 0.00 | 88 | 1009.5 |
| 20260510044111 | 43 | 136 | 0.0 | 1.7 | 0.00 | 0.00 | 0.00 | 88 | 1009.5 |
| 20260510044012 | 43 | 136 | 0.0 | 1.7 | 0.00 | 0.00 | 0.00 | 88 | 1009.5 |
| 20260510043904 | 43 | 136 | 0.0 | 1.7 | 0.00 | 0.00 | 0.00 | 88 | 1009.6 |
| 20260510043808 | 43 | 136 | 0.0 | 1.7 | 0.00 | 0.00 | 0.00 | 88 | 1009.6 |
| 20260510043708 | 43 | 136 | 0.0 | 1.7 | 0.00 | 0.00 | 0.00 | 88 | 1009.6 |
| 20260510043607 | 42 | 136 | 0.0 | 1.7 | 0.00 | 0.00 | 0.00 | 87 | 1009.7 |
| 20260510043507 | 42 | 136 | 0.0 | 1.7 | 0.00 | 0.00 | 0.00 | 87 | 1009.6 |
| 20260510043404 | 42 | 136 | 0.0 | 3.5 | 0.00 | 0.00 | 0.00 | 87 | 1009.7 |
| 20260510043308 | 42 | 136 | 0.9 | 4.3 | 0.00 | 0.00 | 0.00 | 87 | 1009.7 |
| 20260510043208 | 42 | 136 | 0.9 | 6.1 | 0.00 | 0.00 | 0.00 | 86 | 1009.7 |
| 20260510043121 | 42 | 136 | 0.9 | 6.1 | 0.00 | 0.00 | 0.00 | 87 | 1009.7 |
| 20260510043117 | 42 | 136 | 1.7 | 6.1 | 0.00 | 0.00 | 0.00 | 86 | 1009.8 |
| 20260510043113 | 42 | 136 | 1.7 | 6.1 | 0.00 | 0.00 | 0.00 | 86 | 1009.8 |
| 20260510042807 | 42 | 136 | 1.7 | 6.1 | 0.00 | 0.00 | 0.00 | 86 | 1009.8 |
| 20260510042708 | 42 | 136 | 1.7 | 6.1 | 0.00 | 0.00 | 0.00 | 86 | 1009.8 |
| 20260510042608 | 42 | 136 | 2.6 | 6.1 | 0.00 | 0.00 | 0.00 | 86 | 1009.8 |
| 20260510042507 | 42 | 136 | 2.6 | 6.1 | 0.00 | 0.00 | 0.00 | 86 | 1009.8 |
| 20260510042407 | 42 | 139 | 2.6 | 6.1 | 0.00 | 0.00 | 0.00 | 86 | 1009.8 |
| 20260510042403 | 42 | 138 | 2.6 | 6.1 | 0.00 | 0.00 | 0.00 | 86 | 1009.8 |
| 20260510042307 | 42 | 143 | 2.6 | 6.1 | 0.00 | 0.00 | 0.00 | 86 | 1009.8 |
| 20260510042208 | 42 | 138 | 2.6 | 4.3 | 0.00 | 0.00 | 0.00 | 86 | 1009.9 |
| 20260510042113 | 42 | 140 | 1.7 | 4.3 | 0.00 | 0.00 | 0.00 | 86 | 1009.9 |
| 20260510042003 | 42 | 139 | 1.7 | 4.3 | 0.00 | 0.00 | 0.00 | 86 | 1009.8 |
| 20260510041903 | 42 | 141 | 1.7 | 4.3 | 0.00 | 0.00 | 0.00 | 86 | 1009.9 |
| 20260510041803 | 42 | 142 | 1.7 | 4.3 | 0.00 | 0.00 | 0.00 | 86 | 1009.9 |
| 20260510041703 | 42 | 133 | 0.9 | 3.5 | 0.00 | 0.00 | 0.00 | 86 | 1009.9 |
| 20260510041605 | 42 | 134 | 0.9 | 3.5 | 0.00 | 0.00 | 0.00 | 86 | 1009.8 |
| 20260510041504 | 42 | 136 | 0.9 | 3.5 | 0.00 | 0.00 | 0.00 | 86 | 1009.8 |
| 20260510041404 | 42 | 135 | 0.0 | 2.6 | 0.00 | 0.00 | 0.00 | 86 | 1009.8 |
| 20260510041303 | 42 | 134 | 0.0 | 1.7 | 0.00 | 0.00 | 0.00 | 85 | 1009.7 |
| 20260510041203 | 42 | 134 | 0.0 | 1.7 | 0.00 | 0.00 | 0.00 | 85 | 1009.7 |
| 20260510041105 | 42 | 134 | 0.0 | 0.9 | 0.00 | 0.00 | 0.00 | 85 | 1009.7 |
| 20260510041004 | 42 | 134 | 0.0 | 1.7 | 0.00 | 0.00 | 0.00 | 84 | 1009.7 |
| 20260510040904 | 42 | 134 | 0.0 | 1.7 | 0.00 | 0.00 | 0.00 | 84 | 1009.7 |
| 20260510040804 | 43 | 134 | 0.0 | 1.7 | 0.00 | 0.00 | 0.00 | 84 | 1009.8 |
| 20260510040703 | 43 | 134 | 0.0 | 1.7 | 0.00 | 0.00 | 0.00 | 84 | 1009.8 |
| 20260510040627 | 43 | 134 | 0.0 | 1.7 | 0.00 | 0.00 | 0.00 | 84 | 1009.7 |
| 20260510040618 | 43 | 134 | 0.0 | 1.7 | 0.00 | 0.00 | 0.00 | 84 | 1009.8 |
| 20260510040614 | 43 | 134 | 0.9 | 1.7 | 0.00 | 0.00 | 0.00 | 84 | 1009.8 |
| 20260510040303 | 43 | 134 | 0.9 | 1.7 | 0.00 | 0.00 | 0.00 | 84 | 1009.8 |
| 20260510040204 | 43 | 134 | 0.9 | 1.7 | 0.00 | 0.00 | 0.00 | 83 | 1009.8 |
| 20260510040001 | 43 | 134 | 0.9 | 1.7 | 0.00 | 0.00 | 0.00 | 83 | 1009.8 |
| 20260510035901 | 43 | 134 | 0.9 | 1.7 | 0.00 | 0.00 | 0.00 | 83 | 1009.8 |
| 20260510035852 | 44 | 134 | 0.9 | 1.7 | 0.00 | 0.00 | 0.00 | 82 | 1009.7 |
| 20260510035844 | 43 | 134 | 0.9 | 1.7 | 0.00 | 0.00 | 0.00 | 83 | 1009.8 |
| 20260510035839 | 44 | 134 | 0.9 | 1.7 | 0.00 | 0.00 | 0.00 | 82 | 1009.8 |
| 20260510035624 | 44 | 134 | 0.9 | 1.7 | 0.00 | 0.00 | 0.00 | 82 | 1009.8 |
| 20260510035616 | 44 | 134 | 0.9 | 1.7 | 0.00 | 0.00 | 0.00 | 82 | 1009.8 |
| 20260510035612 | 44 | 134 | 0.9 | 1.7 | 0.00 | 0.00 | 0.00 | 82 | 1009.7 |
| 20260510035301 | 44 | 134 | 0.9 | 1.7 | 0.00 | 0.00 | 0.00 | 83 | 1009.7 |
| 20260510035201 | 44 | 134 | 0.9 | 1.7 | 0.00 | 0.00 | 0.00 | 83 | 1009.7 |
| 20260510035101 | 44 | 134 | 0.9 | 1.7 | 0.00 | 0.00 | 0.00 | 83 | 1009.7 |
| 20260510035001 | 44 | 134 | 0.9 | 1.7 | 0.00 | 0.00 | 0.00 | 83 | 1009.8 |
| 20260510034901 | 44 | 134 | 0.9 | 1.7 | 0.00 | 0.00 | 0.00 | 83 | 1009.8 |
| 20260510034801 | 44 | 134 | 0.9 | 1.7 | 0.00 | 0.00 | 0.00 | 83 | 1009.7 |
| 20260510034701 | 44 | 134 | 0.9 | 1.7 | 0.00 | 0.00 | 0.00 | 84 | 1009.7 |
| 20260510034601 | 44 | 134 | 0.9 | 1.7 | 0.00 | 0.00 | 0.00 | 84 | 1009.7 |
| 20260510034501 | 44 | 134 | 0.9 | 1.7 | 0.00 | 0.00 | 0.00 | 85 | 1009.7 |
| 20260510034400 | 44 | 134 | 0.9 | 1.7 | 0.00 | 0.00 | 0.00 | 85 | 1009.7 |
| 20260510034300 | 44 | 134 | 0.9 | 1.7 | 0.00 | 0.00 | 0.00 | 85 | 1009.7 |
| 20260510034201 | 44 | 134 | 0.9 | 1.7 | 0.00 | 0.00 | 0.00 | 85 | 1009.7 |
| 20260510034101 | 44 | 134 | 0.9 | 1.7 | 0.00 | 0.00 | 0.00 | 85 | 1009.7 |
| 20260510034001 | 44 | 134 | 0.9 | 1.7 | 0.00 | 0.00 | 0.00 | 85 | 1009.8 |
| 20260510033901 | 44 | 134 | 0.9 | 1.7 | 0.00 | 0.00 | 0.00 | 85 | 1009.8 |
| 20260510033801 | 44 | 134 | 0.9 | 1.7 | 0.00 | 0.00 | 0.00 | 85 | 1009.8 |
| 20260510033701 | 44 | 134 | 0.9 | 1.7 | 0.00 | 0.00 | 0.00 | 85 | 1009.8 |
| 20260510033624 | 44 | 134 | 0.9 | 1.7 | 0.00 | 0.00 | 0.00 | 85 | 1009.8 |
| 20260510033616 | 44 | 134 | 0.9 | 1.7 | 0.00 | 0.00 | 0.00 | 85 | 1009.8 |
| 20260510033612 | 44 | 134 | 0.0 | 1.7 | 0.00 | 0.00 | 0.00 | 85 | 1009.8 |
| 20260510033301 | 44 | 134 | 0.0 | 1.7 | 0.00 | 0.00 | 0.00 | 84 | 1009.9 |
| 20260510033201 | 44 | 134 | 0.0 | 1.7 | 0.00 | 0.00 | 0.00 | 84 | 1009.9 |
| 20260510033101 | 44 | 134 | 0.0 | 1.7 | 0.00 | 0.00 | 0.00 | 84 | 1009.9 |
| 20260510033000 | 44 | 134 | 0.0 | 1.7 | 0.00 | 0.00 | 0.00 | 84 | 1009.9 |
| 20260510032902 | 44 | 134 | 0.0 | 1.7 | 0.00 | 0.00 | 0.00 | 84 | 1009.9 |
| 20260510032802 | 44 | 134 | 0.0 | 1.7 | 0.00 | 0.00 | 0.00 | 84 | 1009.9 |
| 20260510032702 | 44 | 134 | 0.0 | 1.7 | 0.00 | 0.00 | 0.00 | 84 | 1009.9 |
| 20260510032602 | 44 | 134 | 0.0 | 1.7 | 0.00 | 0.00 | 0.00 | 83 | 1010.0 |
| 20260510032502 | 44 | 134 | 0.0 | 1.7 | 0.00 | 0.00 | 0.00 | 83 | 1010.0 |
| 20260510032401 | 44 | 134 | 0.0 | 1.7 | 0.00 | 0.00 | 0.00 | 83 | 1010.0 |
| 20260510032305 | 44 | 134 | 0.0 | 1.7 | 0.00 | 0.00 | 0.00 | 83 | 1010.1 |
| 20260510032201 | 44 | 134 | 0.0 | 1.7 | 0.00 | 0.00 | 0.00 | 83 | 1010.0 |
| 20260510032101 | 44 | 134 | 0.0 | 1.7 | 0.00 | 0.00 | 0.00 | 83 | 1010.0 |
| 20260510032001 | 44 | 135 | 0.0 | 1.7 | 0.00 | 0.00 | 0.00 | 83 | 1010.1 |
| 20260510031901 | 44 | 135 | 0.9 | 1.7 | 0.00 | 0.00 | 0.00 | 83 | 1010.1 |
| 20260510031801 | 44 | 135 | 0.9 | 2.6 | 0.00 | 0.00 | 0.00 | 83 | 1010.1 |
| 20260510031700 | 45 | 135 | 0.9 | 2.6 | 0.00 | 0.00 | 0.00 | 83 | 1010.1 |
| 20260510031624 | 45 | 135 | 0.9 | 2.6 | 0.00 | 0.00 | 0.00 | 82 | 1010.1 |
| 20260510031616 | 45 | 135 | 0.9 | 2.6 | 0.00 | 0.00 | 0.00 | 82 | 1010.1 |
| 20260510031612 | 45 | 135 | 0.9 | 2.6 | 0.00 | 0.00 | 0.00 | 82 | 1010.1 |
| 20260510031301 | 45 | 135 | 1.7 | 4.3 | 0.00 | 0.00 | 0.00 | 82 | 1010.2 |
| 20260510031201 | 45 | 135 | 1.7 | 6.1 | 0.00 | 0.00 | 0.00 | 82 | 1010.2 |
| 20260510031101 | 45 | 135 | 1.7 | 6.1 | 0.00 | 0.00 | 0.00 | 82 | 1010.4 |
| 20260510031001 | 45 | 135 | 2.6 | 6.1 | 0.00 | 0.00 | 0.00 | 82 | 1010.2 |
| 20260510030901 | 45 | 135 | 2.6 | 6.1 | 0.00 | 0.00 | 0.00 | 82 | 1010.2 |
| 20260510030800 | 45 | 135 | 2.6 | 6.1 | 0.00 | 0.00 | 0.00 | 82 | 1010.2 |
| 20260510030700 | 45 | 134 | 2.6 | 6.1 | 0.00 | 0.00 | 0.00 | 82 | 1010.2 |
| 20260510030600 | 45 | 134 | 2.6 | 6.1 | 0.00 | 0.00 | 0.00 | 81 | 1010.2 |
| 20260510030500 | 45 | 134 | 2.6 | 6.1 | 0.00 | 0.00 | 0.00 | 81 | 1010.2 |
| 20260510030400 | 45 | 137 | 2.6 | 6.1 | 0.00 | 0.00 | 0.00 | 81 | 1010.4 |
| 20260510030300 | 45 | 140 | 2.6 | 6.1 | 0.00 | 0.00 | 0.00 | 82 | 1010.2 |
| 20260510030201 | 45 | 126 | 2.6 | 6.1 | 0.00 | 0.00 | 0.00 | 82 | 1010.2 |
| 20260510030001 | 45 | 140 | 1.7 | 6.1 | 0.00 | 0.00 | 0.00 | 82 | 1010.2 |
| 20260510025901 | 45 | 142 | 1.7 | 3.5 | 0.00 | 0.00 | 0.00 | 82 | 1010.1 |
| 20260510025801 | 45 | 134 | 1.7 | 7.0 | 0.00 | 0.00 | 0.00 | 82 | 1010.1 |
| 20260510025701 | 45 | 134 | 1.7 | 7.0 | 0.00 | 0.00 | 0.00 | 82 | 1010.1 |
| 20260510025601 | 46 | 135 | 2.6 | 7.0 | 0.00 | 0.00 | 0.00 | 82 | 1010.1 |
| 20260510025501 | 46 | 134 | 2.6 | 7.0 | 0.00 | 0.00 | 0.00 | 82 | 1010.1 |
| 20260510025401 | 46 | 142 | 2.6 | 7.0 | 0.00 | 0.00 | 0.00 | 82 | 1010.1 |
| 20260510025301 | 46 | 142 | 2.6 | 7.0 | 0.00 | 0.00 | 0.00 | 82 | 1010.1 |
| 20260510025202 | 46 | 128 | 2.6 | 7.0 | 0.00 | 0.00 | 0.00 | 82 | 1010.1 |
| 20260510025101 | 46 | 128 | 2.6 | 7.0 | 0.00 | 0.00 | 0.00 | 82 | 1010.1 |
| 20260510025001 | 46 | 128 | 2.6 | 7.0 | 0.00 | 0.00 | 0.00 | 82 | 1010.1 |
| 20260510024901 | 46 | 142 | 2.6 | 7.0 | 0.00 | 0.00 | 0.00 | 82 | 1010.1 |
| 20260510024801 | 46 | 132 | 2.6 | 6.1 | 0.00 | 0.00 | 0.00 | 82 | 1010.0 |
| 20260510024701 | 46 | 144 | 2.6 | 6.1 | 0.00 | 0.00 | 0.00 | 82 | 1010.1 |
| 20260510024601 | 46 | 136 | 2.6 | 6.1 | 0.00 | 0.00 | 0.00 | 81 | 1010.1 |
| 20260510024501 | 46 | 136 | 2.6 | 5.2 | 0.00 | 0.00 | 0.00 | 81 | 1010.0 |
| 20260510024401 | 46 | 138 | 2.6 | 5.2 | 0.00 | 0.00 | 0.00 | 81 | 1010.1 |
| 20260510024301 | 46 | 140 | 2.6 | 4.3 | 0.00 | 0.00 | 0.00 | 81 | 1010.0 |
| 20260510024201 | 46 | 136 | 2.6 | 4.3 | 0.00 | 0.00 | 0.00 | 81 | 1010.1 |
| 20260510024101 | 46 | 135 | 1.7 | 4.3 | 0.00 | 0.00 | 0.00 | 81 | 1010.1 |
| 20260510024001 | 46 | 126 | 1.7 | 4.3 | 0.00 | 0.00 | 0.00 | 81 | 1010.1 |
| 20260510023901 | 46 | 138 | 1.7 | 4.3 | 0.00 | 0.00 | 0.00 | 81 | 1010.1 |
| 20260510023800 | 46 | 129 | 1.7 | 4.3 | 0.00 | 0.00 | 0.00 | 81 | 1010.1 |
| 20260510023700 | 46 | 135 | 1.7 | 3.5 | 0.00 | 0.00 | 0.00 | 81 | 1010.1 |
| 20260510023600 | 46 | 137 | 1.7 | 3.5 | 0.00 | 0.00 | 0.00 | 81 | 1010.1 |
| 20260510023500 | 46 | 132 | 1.7 | 3.5 | 0.00 | 0.00 | 0.00 | 81 | 1010.1 |
| 20260510023400 | 46 | 136 | 1.7 | 3.5 | 0.00 | 0.00 | 0.00 | 81 | 1010.1 |
| 20260510023300 | 46 | 141 | 1.7 | 2.6 | 0.00 | 0.00 | 0.00 | 81 | 1010.1 |
| 20260510023200 | 46 | 141 | 1.7 | 2.6 | 0.00 | 0.00 | 0.00 | 81 | 1010.1 |
| 20260510023100 | 46 | 141 | 1.7 | 2.6 | 0.00 | 0.00 | 0.00 | 81 | 1010.1 |
| 20260510023001 | 46 | 141 | 1.7 | 3.5 | 0.00 | 0.00 | 0.00 | 81 | 1010.1 |
| 20260510022901 | 46 | 144 | 1.7 | 3.5 | 0.00 | 0.00 | 0.00 | 81 | 1010.1 |
| 20260510022802 | 46 | 143 | 1.7 | 3.5 | 0.00 | 0.00 | 0.00 | 81 | 1010.1 |
| 20260510022702 | 46 | 142 | 1.7 | 3.5 | 0.00 | 0.00 | 0.00 | 81 | 1010.1 |
| 20260510022602 | 46 | 142 | 1.7 | 3.5 | 0.00 | 0.00 | 0.00 | 80 | 1010.1 |
| 20260510022506 | 46 | 142 | 1.7 | 3.5 | 0.00 | 0.00 | 0.00 | 80 | 1010.1 |
| 20260510022402 | 46 | 142 | 1.7 | 3.5 | 0.00 | 0.00 | 0.00 | 80 | 1010.1 |
| 20260510022355 | 46 | 142 | 1.7 | 3.5 | 0.00 | 0.00 | 0.00 | 80 | 1010.1 |
| 20260510022256 | 46 | 142 | 1.7 | 3.5 | 0.00 | 0.00 | 0.00 | 80 | 1010.1 |
| 20260510022156 | 46 | 142 | 1.7 | 3.5 | 0.00 | 0.00 | 0.00 | 80 | 1010.1 |
| 20260510022055 | 46 | 141 | 1.7 | 3.5 | 0.00 | 0.00 | 0.00 | 80 | 1010.1 |
| 20260510021958 | 46 | 138 | 1.7 | 3.5 | 0.00 | 0.00 | 0.00 | 80 | 1010.1 |
| 20260510021901 | 46 | 138 | 1.7 | 3.5 | 0.00 | 0.00 | 0.00 | 80 | 1010.1 |
| 20260510021851 | 46 | 140 | 1.7 | 3.5 | 0.00 | 0.00 | 0.00 | 80 | 1010.1 |
| 20260510021751 | 46 | 140 | 1.7 | 3.5 | 0.00 | 0.00 | 0.00 | 80 | 1010.1 |
| 20260510021651 | 46 | 137 | 1.7 | 3.5 | 0.00 | 0.00 | 0.00 | 80 | 1010.1 |
| 20260510021551 | 46 | 137 | 1.7 | 3.5 | 0.00 | 0.00 | 0.00 | 80 | 1010.1 |
| 20260510021452 | 46 | 137 | 1.7 | 3.5 | 0.00 | 0.00 | 0.00 | 80 | 1010.1 |
| 20260510021401 | 46 | 137 | 1.7 | 3.5 | 0.00 | 0.00 | 0.00 | 80 | 1010.1 |
| 20260510021343 | 46 | 137 | 1.7 | 3.5 | 0.00 | 0.00 | 0.00 | 80 | 1010.1 |
| 20260510021241 | 46 | 137 | 1.7 | 3.5 | 0.00 | 0.00 | 0.00 | 80 | 1010.1 |
| 20260510021141 | 46 | 135 | 1.7 | 3.5 | 0.00 | 0.00 | 0.00 | 80 | 1010.1 |
| 20260510021041 | 46 | 145 | 1.7 | 3.5 | 0.00 | 0.00 | 0.00 | 80 | 1010.2 |
| 20260510020941 | 46 | 150 | 1.7 | 3.5 | 0.00 | 0.00 | 0.00 | 80 | 1010.2 |
| 20260510020901 | 46 | 141 | 1.7 | 3.5 | 0.00 | 0.00 | 0.00 | 80 | 1010.2 |
| 20260510020836 | 46 | 143 | 1.7 | 3.5 | 0.00 | 0.00 | 0.00 | 80 | 1010.1 |
| 20260510020735 | 46 | 143 | 1.7 | 3.5 | 0.00 | 0.00 | 0.00 | 80 | 1010.2 |
| 20260510020635 | 46 | 142 | 1.7 | 3.5 | 0.00 | 0.00 | 0.00 | 81 | 1010.2 |
| 20260510020535 | 46 | 138 | 1.7 | 2.6 | 0.00 | 0.00 | 0.00 | 81 | 1010.2 |
| 20260510020435 | 46 | 137 | 1.7 | 3.5 | 0.00 | 0.00 | 0.00 | 81 | 1010.2 |
| 20260510020402 | 46 | 137 | 1.7 | 3.5 | 0.00 | 0.00 | 0.00 | 81 | 1010.2 |
| 20260510020332 | 46 | 136 | 1.7 | 3.5 | 0.00 | 0.00 | 0.00 | 81 | 1010.2 |
| 20260510020231 | 46 | 136 | 1.7 | 3.5 | 0.00 | 0.00 | 0.00 | 81 | 1010.4 |
| 20260510020131 | 46 | 138 | 1.7 | 3.5 | 0.00 | 0.00 | 0.00 | 81 | 1010.2 |
| 20260510020121 | 46 | 140 | 1.7 | 3.5 | 0.00 | 0.00 | 0.00 | 81 | 1010.4 |
| 20260510020112 | 46 | 144 | 1.7 | 3.5 | 0.00 | 0.00 | 0.00 | 81 | 1010.2 |
| 20260510015829 | 46 | 145 | 1.7 | 3.5 | 0.00 | 0.00 | 0.00 | 81 | 1010.2 |
| 20260510015729 | 46 | 145 | 1.7 | 3.5 | 0.00 | 0.00 | 0.00 | 81 | 1010.4 |
| 20260510015629 | 46 | 144 | 1.7 | 3.5 | 0.00 | 0.00 | 0.00 | 81 | 1010.4 |
| 20260510015529 | 46 | 143 | 1.7 | 2.6 | 0.00 | 0.00 | 0.00 | 81 | 1010.4 |
| 20260510015401 | 46 | 143 | 1.7 | 2.6 | 0.00 | 0.00 | 0.00 | 81 | 1010.4 |
| 20260510015329 | 46 | 143 | 1.7 | 2.6 | 0.00 | 0.00 | 0.00 | 81 | 1010.4 |
| 20260510015230 | 46 | 142 | 1.7 | 2.6 | 0.00 | 0.00 | 0.00 | 81 | 1010.4 |
| 20260510015129 | 46 | 143 | 1.7 | 2.6 | 0.00 | 0.00 | 0.00 | 81 | 1010.4 |
| 20260510015029 | 46 | 143 | 1.7 | 2.6 | 0.00 | 0.00 | 0.00 | 81 | 1010.4 |
| 20260510014901 | 46 | 142 | 1.7 | 2.6 | 0.00 | 0.00 | 0.00 | 81 | 1010.4 |
| 20260510014829 | 46 | 142 | 1.7 | 2.6 | 0.00 | 0.00 | 0.00 | 81 | 1010.5 |
| 20260510014729 | 46 | 142 | 1.7 | 2.6 | 0.00 | 0.00 | 0.00 | 81 | 1010.5 |
| 20260510014629 | 46 | 142 | 1.7 | 2.6 | 0.00 | 0.00 | 0.00 | 81 | 1010.5 |
| 20260510014529 | 46 | 142 | 1.7 | 2.6 | 0.00 | 0.00 | 0.00 | 81 | 1010.5 |
| 20260510014403 | 46 | 142 | 1.7 | 2.6 | 0.00 | 0.00 | 0.00 | 81 | 1010.5 |
| 20260510014329 | 46 | 142 | 1.7 | 2.6 | 0.00 | 0.00 | 0.00 | 81 | 1010.5 |
| 20260510014229 | 46 | 142 | 1.7 | 2.6 | 0.00 | 0.00 | 0.00 | 81 | 1010.5 |
| 20260510014128 | 46 | 142 | 1.7 | 2.6 | 0.00 | 0.00 | 0.00 | 81 | 1010.5 |
| 20260510014028 | 46 | 142 | 1.7 | 2.6 | 0.00 | 0.00 | 0.00 | 81 | 1010.5 |
| 20260510013900 | 46 | 142 | 1.7 | 2.6 | 0.00 | 0.00 | 0.00 | 81 | 1010.5 |
| 20260510013829 | 46 | 142 | 1.7 | 2.6 | 0.00 | 0.00 | 0.00 | 81 | 1010.5 |
| 20260510013729 | 46 | 142 | 1.7 | 2.6 | 0.00 | 0.00 | 0.00 | 81 | 1010.5 |
| 20260510013629 | 46 | 142 | 1.7 | 2.6 | 0.00 | 0.00 | 0.00 | 82 | 1010.5 |
| 20260510013529 | 46 | 142 | 1.7 | 3.5 | 0.00 | 0.00 | 0.00 | 82 | 1010.5 |
| 20260510013429 | 46 | 142 | 1.7 | 3.5 | 0.00 | 0.00 | 0.00 | 82 | 1010.5 |
| 20260510013359 | 46 | 142 | 1.7 | 3.5 | 0.00 | 0.00 | 0.00 | 82 | 1010.6 |
| 20260510013329 | 46 | 142 | 1.7 | 3.5 | 0.00 | 0.00 | 0.00 | 82 | 1010.6 |
| 20260510013228 | 46 | 141 | 1.7 | 3.5 | 0.00 | 0.00 | 0.00 | 82 | 1010.6 |
| 20260510013129 | 46 | 141 | 1.7 | 3.5 | 0.00 | 0.00 | 0.00 | 82 | 1010.6 |
| 20260510013119 | 46 | 141 | 1.7 | 3.5 | 0.00 | 0.00 | 0.00 | 82 | 1010.6 |
| 20260510013113 | 46 | 141 | 1.7 | 3.5 | 0.00 | 0.00 | 0.00 | 82 | 1010.6 |
| 20260510013104 | 46 | 141 | 1.7 | 3.5 | 0.00 | 0.00 | 0.00 | 82 | 1010.6 |
| 20260510012829 | 46 | 141 | 1.7 | 3.5 | 0.00 | 0.00 | 0.00 | 82 | 1010.6 |
| 20260510012729 | 46 | 141 | 1.7 | 3.5 | 0.00 | 0.00 | 0.00 | 82 | 1010.6 |
| 20260510012629 | 46 | 140 | 0.9 | 3.5 | 0.00 | 0.00 | 0.00 | 82 | 1010.6 |
| 20260510012528 | 46 | 140 | 0.9 | 3.5 | 0.00 | 0.00 | 0.00 | 82 | 1010.6 |
| 20260510012424 | 46 | 140 | 0.9 | 2.6 | 0.00 | 0.00 | 0.00 | 82 | 1010.6 |
| 20260510012323 | 46 | 140 | 0.9 | 2.6 | 0.00 | 0.00 | 0.00 | 82 | 1010.6 |
| 20260510012223 | 46 | 140 | 0.9 | 2.6 | 0.00 | 0.00 | 0.00 | 82 | 1010.6 |
| 20260510012123 | 46 | 140 | 0.9 | 1.7 | 0.00 | 0.00 | 0.00 | 81 | 1010.6 |
| 20260510012023 | 46 | 140 | 0.9 | 1.7 | 0.00 | 0.00 | 0.00 | 81 | 1010.6 |
| 20260510011919 | 46 | 140 | 0.9 | 2.6 | 0.00 | 0.00 | 0.00 | 80 | 1010.6 |
| 20260510011819 | 46 | 140 | 0.9 | 2.6 | 0.00 | 0.00 | 0.00 | 80 | 1010.6 |
| 20260510011719 | 46 | 140 | 0.9 | 2.6 | 0.00 | 0.00 | 0.00 | 80 | 1010.6 |
| 20260510011619 | 46 | 140 | 0.9 | 2.6 | 0.00 | 0.00 | 0.00 | 80 | 1010.6 |
| 20260510011611 | 46 | 140 | 1.7 | 4.3 | 0.00 | 0.00 | 0.00 | 81 | 1010.7 |
| 20260510011601 | 46 | 140 | 1.7 | 4.3 | 0.00 | 0.00 | 0.00 | 80 | 1010.6 |
| 20260510011553 | 46 | 140 | 1.7 | 4.3 | 0.00 | 0.00 | 0.00 | 80 | 1010.7 |
| 20260510011311 | 46 | 140 | 1.7 | 4.3 | 0.00 | 0.00 | 0.00 | 81 | 1010.7 |
| 20260510011212 | 46 | 140 | 1.7 | 4.3 | 0.00 | 0.00 | 0.00 | 81 | 1010.7 |
| 20260510011111 | 46 | 140 | 1.7 | 4.3 | 0.00 | 0.00 | 0.00 | 80 | 1010.7 |
| 20260510011010 | 46 | 140 | 1.7 | 4.3 | 0.00 | 0.00 | 0.00 | 80 | 1010.7 |
| 20260510010907 | 46 | 140 | 1.7 | 4.3 | 0.00 | 0.00 | 0.00 | 80 | 1010.7 |
| 20260510010839 | 46 | 140 | 0.9 | 4.3 | 0.00 | 0.00 | 0.00 | 80 | 1010.7 |
| 20260510010805 | 46 | 140 | 0.9 | 4.3 | 0.00 | 0.00 | 0.00 | 80 | 1010.7 |
| 20260510010705 | 46 | 138 | 0.9 | 4.3 | 0.00 | 0.00 | 0.00 | 80 | 1010.7 |
| 20260510010605 | 46 | 135 | 0.9 | 4.3 | 0.00 | 0.00 | 0.00 | 80 | 1010.7 |
| 20260510010505 | 46 | 138 | 0.9 | 2.6 | 0.00 | 0.00 | 0.00 | 80 | 1010.7 |
| 20260510010405 | 46 | 136 | 0.9 | 2.6 | 0.00 | 0.00 | 0.00 | 80 | 1010.7 |
| 20260510010337 | 46 | 136 | 0.9 | 2.6 | 0.00 | 0.00 | 0.00 | 80 | 1010.7 |
| 20260510010303 | 46 | 136 | 0.9 | 2.6 | 0.00 | 0.00 | 0.00 | 80 | 1010.7 |
| 20260510010201 | 46 | 136 | 0.9 | 2.6 | 0.00 | 0.00 | 0.00 | 80 | 1010.7 |
| 20260510010001 | 46 | 135 | 0.9 | 2.6 | 0.00 | 0.00 | 0.00 | 80 | 1010.7 |
| 20260510005901 | 47 | 136 | 0.9 | 2.6 | 0.00 | 0.00 | 0.00 | 80 | 1010.7 |
| 20260510005835 | 47 | 136 | 0.9 | 2.6 | 0.00 | 0.00 | 0.00 | 80 | 1010.7 |
| 20260510005801 | 47 | 136 | 0.9 | 2.6 | 0.00 | 0.00 | 0.00 | 80 | 1010.7 |
| 20260510005701 | 47 | 135 | 0.9 | 2.6 | 0.00 | 0.00 | 0.00 | 80 | 1010.7 |
| 20260510005605 | 47 | 135 | 0.0 | 2.6 | 0.00 | 0.00 | 0.00 | 80 | 1010.7 |
| 20260510005600 | 47 | 135 | 0.0 | 2.6 | 0.00 | 0.00 | 0.00 | 80 | 1010.8 |
| 20260510005555 | 47 | 135 | 0.0 | 2.6 | 0.00 | 0.00 | 0.00 | 80 | 1010.8 |
| 20260510005546 | 47 | 135 | 0.0 | 2.6 | 0.00 | 0.00 | 0.00 | 80 | 1010.8 |
| 20260510005301 | 47 | 135 | 0.0 | 2.6 | 0.00 | 0.00 | 0.00 | 80 | 1010.8 |
| 20260510005201 | 47 | 135 | 0.0 | 2.6 | 0.00 | 0.00 | 0.00 | 80 | 1010.8 |
| 20260510005101 | 47 | 135 | 0.0 | 2.6 | 0.00 | 0.00 | 0.00 | 80 | 1010.8 |
| 20260510005001 | 47 | 135 | 0.0 | 0.9 | 0.00 | 0.00 | 0.00 | 80 | 1010.8 |
| 20260510004901 | 47 | 135 | 0.0 | 0.9 | 0.00 | 0.00 | 0.00 | 80 | 1010.8 |
| 20260510004835 | 47 | 135 | 0.0 | 0.9 | 0.00 | 0.00 | 0.00 | 80 | 1010.8 |
| 20260510004801 | 47 | 135 | 0.0 | 0.9 | 0.00 | 0.00 | 0.00 | 80 | 1010.8 |
| 20260510004701 | 47 | 135 | 0.0 | 0.9 | 0.00 | 0.00 | 0.00 | 80 | 1010.8 |
| 20260510004601 | 47 | 135 | 0.0 | 0.9 | 0.00 | 0.00 | 0.00 | 80 | 1010.8 |
| 20260510004501 | 47 | 135 | 0.0 | 0.9 | 0.00 | 0.00 | 0.00 | 80 | 1010.8 |
| 20260510004400 | 47 | 135 | 0.0 | 0.9 | 0.00 | 0.00 | 0.00 | 80 | 1010.8 |
| 20260510004335 | 47 | 135 | 0.0 | 0.9 | 0.00 | 0.00 | 0.00 | 80 | 1010.8 |
| 20260510004300 | 47 | 135 | 0.0 | 0.9 | 0.00 | 0.00 | 0.00 | 80 | 1010.8 |
| 20260510004201 | 47 | 135 | 0.0 | 0.9 | 0.00 | 0.00 | 0.00 | 80 | 1010.8 |
| 20260510004101 | 47 | 135 | 0.0 | 0.9 | 0.00 | 0.00 | 0.00 | 80 | 1010.8 |
| 20260510004001 | 47 | 135 | 0.0 | 1.7 | 0.00 | 0.00 | 0.00 | 80 | 1010.8 |
| 20260510003901 | 47 | 135 | 0.0 | 1.7 | 0.00 | 0.00 | 0.00 | 80 | 1010.8 |
| 20260510003835 | 47 | 135 | 0.0 | 1.7 | 0.00 | 0.00 | 0.00 | 80 | 1010.8 |
| 20260510003801 | 47 | 135 | 0.0 | 1.7 | 0.00 | 0.00 | 0.00 | 80 | 1010.8 |
| 20260510003700 | 47 | 135 | 0.9 | 1.7 | 0.00 | 0.00 | 0.00 | 80 | 1010.8 |
| 20260510003607 | 47 | 135 | 0.9 | 1.7 | 0.00 | 0.00 | 0.00 | 80 | 1010.8 |
| 20260510003600 | 47 | 135 | 0.9 | 1.7 | 0.00 | 0.00 | 0.00 | 80 | 1010.8 |
| 20260510003556 | 47 | 135 | 0.9 | 1.7 | 0.00 | 0.00 | 0.00 | 80 | 1010.8 |
| 20260510003548 | 47 | 135 | 0.9 | 1.7 | 0.00 | 0.00 | 0.00 | 80 | 1010.8 |
| 20260510003301 | 47 | 135 | 0.9 | 1.7 | 0.00 | 0.00 | 0.00 | 80 | 1010.8 |
| 20260510003201 | 47 | 135 | 0.9 | 1.7 | 0.00 | 0.00 | 0.00 | 79 | 1010.8 |
| 20260510003101 | 47 | 135 | 0.9 | 1.7 | 0.00 | 0.00 | 0.00 | 79 | 1010.8 |
| 20260510003001 | 47 | 135 | 0.9 | 2.6 | 0.00 | 0.00 | 0.00 | 79 | 1010.8 |
| 20260510002901 | 48 | 135 | 0.9 | 2.6 | 0.00 | 0.00 | 0.00 | 79 | 1010.8 |
| 20260510002837 | 47 | 135 | 0.9 | 2.6 | 0.00 | 0.00 | 0.00 | 79 | 1010.8 |
| 20260510002801 | 48 | 135 | 0.9 | 2.6 | 0.00 | 0.00 | 0.00 | 79 | 1010.8 |
| 20260510002701 | 48 | 135 | 0.9 | 2.6 | 0.00 | 0.00 | 0.00 | 78 | 1010.8 |
| 20260510002601 | 48 | 135 | 0.9 | 2.6 | 0.00 | 0.00 | 0.00 | 78 | 1010.8 |
| 20260510002501 | 48 | 135 | 1.7 | 2.6 | 0.00 | 0.00 | 0.00 | 79 | 1010.9 |
| 20260510002401 | 48 | 135 | 1.7 | 2.6 | 0.00 | 0.00 | 0.00 | 79 | 1010.9 |
| 20260510002333 | 48 | 135 | 1.7 | 2.6 | 0.00 | 0.00 | 0.00 | 79 | 1010.9 |
| 20260510002301 | 48 | 135 | 1.7 | 3.5 | 0.00 | 0.00 | 0.00 | 79 | 1010.9 |
| 20260510002201 | 48 | 135 | 1.7 | 3.5 | 0.00 | 0.00 | 0.00 | 79 | 1010.9 |
| 20260510002101 | 48 | 136 | 1.7 | 3.5 | 0.00 | 0.00 | 0.00 | 79 | 1010.9 |
| 20260510002001 | 48 | 135 | 1.7 | 3.5 | 0.00 | 0.00 | 0.00 | 79 | 1011.0 |
| 20260510001901 | 48 | 135 | 1.7 | 3.5 | 0.00 | 0.00 | 0.00 | 79 | 1011.0 |
| 20260510001833 | 48 | 134 | 1.7 | 3.5 | 0.00 | 0.00 | 0.00 | 79 | 1011.0 |
| 20260510001800 | 48 | 134 | 1.7 | 3.5 | 0.00 | 0.00 | 0.00 | 78 | 1011.0 |
| 20260510001701 | 48 | 133 | 1.7 | 3.5 | 0.00 | 0.00 | 0.00 | 78 | 1011.0 |
| 20260510001601 | 48 | 132 | 1.7 | 3.5 | 0.00 | 0.00 | 0.00 | 78 | 1011.0 |
| 20260510001501 | 48 | 130 | 1.7 | 3.5 | 0.00 | 0.00 | 0.00 | 78 | 1011.0 |
| 20260510001405 | 48 | 128 | 1.7 | 3.5 | 0.00 | 0.00 | 0.00 | 77 | 1011.0 |
| 20260510001331 | 48 | 127 | 1.7 | 3.5 | 0.00 | 0.00 | 0.00 | 77 | 1011.0 |
| 20260510001300 | 48 | 126 | 1.7 | 3.5 | 0.00 | 0.00 | 0.00 | 77 | 1011.0 |
| 20260510001200 | 48 | 126 | 1.7 | 3.5 | 0.00 | 0.00 | 0.00 | 76 | 1011.0 |
| 20260510001100 | 49 | 124 | 1.7 | 2.6 | 0.00 | 0.00 | 0.00 | 76 | 1011.0 |
| 20260510001000 | 49 | 122 | 1.7 | 2.6 | 0.00 | 0.00 | 0.00 | 76 | 1011.0 |
| 20260510000904 | 49 | 121 | 1.7 | 2.6 | 0.00 | 0.00 | 0.00 | 76 | 1011.0 |
| 20260510000831 | 49 | 121 | 1.7 | 2.6 | 0.00 | 0.00 | 0.00 | 76 | 1011.0 |
| 20260510000801 | 49 | 121 | 1.7 | 2.6 | 0.00 | 0.00 | 0.00 | 76 | 1011.0 |
| 20260510000700 | 49 | 121 | 1.7 | 2.6 | 0.00 | 0.00 | 0.00 | 76 | 1011.0 |
| 20260510000600 | 49 | 120 | 1.7 | 2.6 | 0.00 | 0.00 | 0.00 | 75 | 1011.0 |
| 20260510000500 | 49 | 119 | 1.7 | 2.6 | 0.00 | 0.00 | 0.00 | 75 | 1011.0 |
| 20260510000400 | 49 | 119 | 0.9 | 2.6 | 0.00 | 0.00 | 0.00 | 75 | 1011.0 |
| 20260510000333 | 49 | 118 | 0.9 | 2.6 | 0.00 | 0.00 | 0.00 | 75 | 1011.1 |
| 20260510000304 | 49 | 117 | 0.9 | 2.6 | 0.00 | 0.00 | 0.00 | 75 | 1011.1 |
| 20260510000200 | 49 | 114 | 0.9 | 2.6 | 0.00 | 0.00 | 0.00 | 75 | 1011.0 |
| 20260510000001 | 49 | 113 | 1.7 | 2.6 | 0.00 | 0.00 | 0.00 | 75 | 1011.1 |
| 20260509235901 | 50 | 113 | 1.7 | 2.6 | 0.00 | 0.00 | 0.00 | 75 | 1011.1 |
| 20260509235800 | 50 | 113 | 1.7 | 2.6 | 0.00 | 0.00 | 0.00 | 75 | 1011.1 |
| 20260509235701 | 50 | 113 | 1.7 | 2.6 | 0.00 | 0.00 | 0.00 | 75 | 1011.1 |
| 20260509235601 | 50 | 113 | 0.9 | 2.6 | 0.00 | 0.00 | 0.00 | 76 | 1011.1 |
| 20260509235501 | 50 | 111 | 0.9 | 2.6 | 0.00 | 0.00 | 0.00 | 76 | 1011.1 |
| 20260509235401 | 50 | 111 | 0.9 | 2.6 | 0.00 | 0.00 | 0.00 | 76 | 1011.1 |
| 20260509235301 | 50 | 111 | 0.9 | 2.6 | 0.00 | 0.00 | 0.00 | 76 | 1011.1 |
| 20260509235201 | 50 | 111 | 0.9 | 2.6 | 0.00 | 0.00 | 0.00 | 76 | 1011.2 |
| 20260509235101 | 50 | 111 | 0.9 | 2.6 | 0.00 | 0.00 | 0.00 | 76 | 1011.2 |
| 20260509235001 | 50 | 111 | 0.9 | 2.6 | 0.00 | 0.00 | 0.00 | 76 | 1011.1 |
| 20260509234901 | 50 | 111 | 0.9 | 2.6 | 0.00 | 0.00 | 0.00 | 76 | 1011.1 |
| 20260509234830 | 50 | 110 | 0.9 | 2.6 | 0.00 | 0.00 | 0.00 | 76 | 1011.2 |
| 20260509234800 | 50 | 110 | 0.9 | 2.6 | 0.00 | 0.00 | 0.00 | 76 | 1011.2 |
| 20260509234701 | 50 | 110 | 0.9 | 2.6 | 0.00 | 0.00 | 0.00 | 76 | 1011.2 |
| 20260509234601 | 50 | 110 | 0.9 | 2.6 | 0.00 | 0.00 | 0.00 | 76 | 1011.2 |
| 20260509234501 | 50 | 111 | 0.9 | 2.6 | 0.00 | 0.00 | 0.00 | 76 | 1011.1 |
| 20260509234401 | 50 | 111 | 0.9 | 1.7 | 0.00 | 0.00 | 0.00 | 76 | 1011.2 |
| 20260509234300 | 50 | 111 | 0.9 | 1.7 | 0.00 | 0.00 | 0.00 | 76 | 1011.2 |
| 20260509234200 | 50 | 111 | 0.9 | 1.7 | 0.00 | 0.00 | 0.00 | 76 | 1011.2 |
| 20260509234100 | 50 | 111 | 0.9 | 1.7 | 0.00 | 0.00 | 0.00 | 76 | 1011.2 |
| 20260509234000 | 51 | 112 | 0.9 | 1.7 | 0.00 | 0.00 | 0.00 | 76 | 1011.2 |
| 20260509233857 | 51 | 112 | 0.9 | 1.7 | 0.00 | 0.00 | 0.00 | 75 | 1011.2 |
| 20260509233829 | 51 | 112 | 0.9 | 1.7 | 0.00 | 0.00 | 0.00 | 75 | 1011.3 |
| 20260509233756 | 51 | 112 | 0.9 | 1.7 | 0.00 | 0.00 | 0.00 | 75 | 1011.3 |
| 20260509233656 | 51 | 112 | 0.9 | 2.6 | 0.00 | 0.00 | 0.00 | 75 | 1011.3 |
| 20260509233558 | 51 | 112 | 0.9 | 2.6 | 0.00 | 0.00 | 0.00 | 75 | 1011.4 |
| 20260509233548 | 51 | 112 | 0.9 | 2.6 | 0.00 | 0.00 | 0.00 | 75 | 1011.4 |
| 20260509233544 | 51 | 112 | 0.9 | 2.6 | 0.00 | 0.00 | 0.00 | 75 | 1011.3 |
| 20260509233252 | 51 | 112 | 0.9 | 2.6 | 0.00 | 0.00 | 0.00 | 75 | 1011.4 |
| 20260509233152 | 51 | 112 | 0.9 | 2.6 | 0.00 | 0.00 | 0.00 | 75 | 1011.4 |
| 20260509233052 | 51 | 112 | 0.9 | 2.6 | 0.00 | 0.00 | 0.00 | 75 | 1011.4 |
| 20260509232950 | 51 | 112 | 0.9 | 2.6 | 0.00 | 0.00 | 0.00 | 75 | 1011.4 |
| 20260509232829 | 51 | 112 | 0.9 | 2.6 | 0.00 | 0.00 | 0.00 | 75 | 1011.4 |
| 20260509232745 | 51 | 112 | 0.9 | 2.6 | 0.00 | 0.00 | 0.00 | 74 | 1011.4 |
| 20260509232645 | 51 | 113 | 0.9 | 2.6 | 0.00 | 0.00 | 0.00 | 74 | 1011.4 |
| 20260509232545 | 51 | 112 | 0.9 | 2.6 | 0.00 | 0.00 | 0.00 | 74 | 1011.4 |
| 20260509232445 | 51 | 113 | 0.9 | 2.6 | 0.00 | 0.00 | 0.00 | 74 | 1011.4 |
| 20260509232332 | 51 | 113 | 0.9 | 2.6 | 0.00 | 0.00 | 0.00 | 74 | 1011.5 |
| 20260509232322 | 51 | 111 | 0.9 | 1.7 | 0.00 | 0.00 | 0.00 | 74 | 1011.4 |
| 20260509232312 | 51 | 113 | 0.9 | 2.6 | 0.00 | 0.00 | 0.00 | 74 | 1011.5 |
| 20260509232308 | 51 | 113 | 0.9 | 2.6 | 0.00 | 0.00 | 0.00 | 74 | 1011.5 |
| 20260509232053 | 51 | 113 | 0.9 | 2.6 | 0.00 | 0.00 | 0.00 | 74 | 1011.5 |
| 20260509232051 | 51 | 112 | 0.9 | 2.6 | 0.00 | 0.00 | 0.00 | 74 | 1011.5 |
| 20260509232045 | 51 | 111 | 0.9 | 1.7 | 0.00 | 0.00 | 0.00 | 74 | 1011.4 |
| 20260509231736 | 51 | 111 | 0.9 | 2.6 | 0.00 | 0.00 | 0.00 | 74 | 1011.5 |
| 20260509231637 | 51 | 111 | 0.9 | 2.6 | 0.00 | 0.00 | 0.00 | 74 | 1011.5 |
| 20260509231535 | 52 | 111 | 0.9 | 2.6 | 0.00 | 0.00 | 0.00 | 73 | 1011.5 |
| 20260509231435 | 52 | 111 | 0.9 | 3.5 | 0.00 | 0.00 | 0.00 | 73 | 1011.5 |
| 20260509231330 | 52 | 111 | 0.9 | 3.5 | 0.00 | 0.00 | 0.00 | 73 | 1011.5 |
| 20260509231234 | 52 | 111 | 0.9 | 3.5 | 0.00 | 0.00 | 0.00 | 73 | 1011.5 |
| 20260509231135 | 52 | 111 | 0.9 | 3.5 | 0.00 | 0.00 | 0.00 | 73 | 1011.5 |
| 20260509231033 | 52 | 111 | 0.9 | 3.5 | 0.00 | 0.00 | 0.00 | 73 | 1011.5 |
| 20260509230933 | 52 | 111 | 0.9 | 3.5 | 0.00 | 0.00 | 0.00 | 73 | 1011.6 |
| 20260509230829 | 52 | 111 | 0.9 | 3.5 | 0.00 | 0.00 | 0.00 | 73 | 1011.5 |
| 20260509230733 | 52 | 111 | 0.9 | 3.5 | 0.00 | 0.00 | 0.00 | 73 | 1011.5 |
| 20260509230631 | 52 | 111 | 0.9 | 3.5 | 0.00 | 0.00 | 0.00 | 73 | 1011.5 |
| 20260509230531 | 52 | 112 | 0.9 | 3.5 | 0.00 | 0.00 | 0.00 | 73 | 1011.5 |
| 20260509230430 | 52 | 114 | 0.9 | 3.5 | 0.00 | 0.00 | 0.00 | 72 | 1011.5 |
| 20260509230331 | 52 | 134 | 0.9 | 1.7 | 0.00 | 0.00 | 0.00 | 72 | 1011.5 |
| 20260509230230 | 52 | 135 | 0.9 | 1.7 | 0.00 | 0.00 | 0.00 | 72 | 1011.5 |
| 20260509230130 | 52 | 135 | 0.9 | 1.7 | 0.00 | 0.00 | 0.00 | 72 | 1011.5 |
| 20260509230029 | 52 | 136 | 0.9 | 1.7 | 0.00 | 0.00 | 0.00 | 72 | 1011.5 |
| 20260509225928 | 52 | 136 | 0.9 | 2.6 | 0.00 | 0.00 | 0.00 | 72 | 1011.5 |
| 20260509225829 | 52 | 136 | 0.9 | 2.6 | 0.00 | 0.00 | 0.00 | 72 | 1011.5 |
| 20260509225729 | 53 | 136 | 0.9 | 2.6 | 0.00 | 0.00 | 0.00 | 72 | 1011.5 |
| 20260509225629 | 53 | 136 | 0.9 | 2.6 | 0.00 | 0.00 | 0.00 | 72 | 1011.6 |
| 20260509225529 | 53 | 136 | 0.9 | 2.6 | 0.00 | 0.00 | 0.00 | 71 | 1011.6 |
| 20260509225428 | 53 | 137 | 0.9 | 2.6 | 0.00 | 0.00 | 0.00 | 71 | 1011.6 |
| 20260509225329 | 53 | 137 | 0.9 | 2.6 | 0.00 | 0.00 | 0.00 | 71 | 1011.6 |
| 20260509225229 | 53 | 137 | 0.9 | 2.6 | 0.00 | 0.00 | 0.00 | 71 | 1011.6 |
| 20260509225129 | 53 | 137 | 0.9 | 2.6 | 0.00 | 0.00 | 0.00 | 71 | 1011.6 |
| 20260509225029 | 53 | 137 | 0.9 | 2.6 | 0.00 | 0.00 | 0.00 | 70 | 1011.6 |
| 20260509224929 | 53 | 137 | 0.9 | 2.6 | 0.00 | 0.00 | 0.00 | 70 | 1011.6 |
| 20260509224829 | 53 | 138 | 0.9 | 2.6 | 0.00 | 0.00 | 0.00 | 70 | 1011.6 |
| 20260509224728 | 53 | 138 | 0.9 | 2.6 | 0.00 | 0.00 | 0.00 | 70 | 1011.7 |
| 20260509224628 | 53 | 138 | 0.9 | 2.6 | 0.00 | 0.00 | 0.00 | 70 | 1011.7 |
| 20260509224529 | 53 | 138 | 0.9 | 2.6 | 0.00 | 0.00 | 0.00 | 70 | 1011.6 |
| 20260509224429 | 53 | 138 | 0.9 | 2.6 | 0.00 | 0.00 | 0.00 | 70 | 1011.7 |
| 20260509224329 | 53 | 138 | 0.9 | 2.6 | 0.00 | 0.00 | 0.00 | 70 | 1011.7 |
| 20260509224228 | 54 | 138 | 0.9 | 2.6 | 0.00 | 0.00 | 0.00 | 70 | 1011.7 |
| 20260509224128 | 54 | 138 | 0.9 | 2.6 | 0.00 | 0.00 | 0.00 | 70 | 1011.7 |
| 20260509224028 | 54 | 138 | 0.9 | 1.7 | 0.00 | 0.00 | 0.00 | 70 | 1011.7 |
| 20260509223929 | 54 | 138 | 0.9 | 1.7 | 0.00 | 0.00 | 0.00 | 70 | 1011.7 |
| 20260509223829 | 54 | 138 | 0.9 | 1.7 | 0.00 | 0.00 | 0.00 | 70 | 1011.7 |
| 20260509223729 | 54 | 138 | 0.9 | 1.7 | 0.00 | 0.00 | 0.00 | 70 | 1011.7 |
| 20260509223629 | 54 | 138 | 0.9 | 1.7 | 0.00 | 0.00 | 0.00 | 69 | 1011.7 |
| 20260509223528 | 54 | 138 | 0.9 | 1.7 | 0.00 | 0.00 | 0.00 | 69 | 1011.7 |
| 20260509223429 | 54 | 138 | 0.9 | 1.7 | 0.00 | 0.00 | 0.00 | 69 | 1011.7 |
| 20260509223328 | 54 | 138 | 0.9 | 1.7 | 0.00 | 0.00 | 0.00 | 69 | 1011.7 |
| 20260509223127 | 54 | 138 | 0.9 | 1.7 | 0.00 | 0.00 | 0.00 | 69 | 1011.6 |
| 20260509223027 | 55 | 138 | 0.9 | 1.7 | 0.00 | 0.00 | 0.00 | 69 | 1011.7 |
| 20260509222927 | 55 | 138 | 0.9 | 1.7 | 0.00 | 0.00 | 0.00 | 68 | 1011.7 |
| 20260509222827 | 55 | 138 | 0.9 | 1.7 | 0.00 | 0.00 | 0.00 | 68 | 1011.7 |
| 20260509222726 | 55 | 138 | 0.9 | 1.7 | 0.00 | 0.00 | 0.00 | 68 | 1011.7 |
| 20260509222626 | 55 | 138 | 0.9 | 1.7 | 0.00 | 0.00 | 0.00 | 68 | 1011.7 |
| 20260509222526 | 55 | 138 | 0.9 | 1.7 | 0.00 | 0.00 | 0.00 | 68 | 1011.6 |
| 20260509222426 | 55 | 138 | 0.9 | 2.6 | 0.00 | 0.00 | 0.00 | 67 | 1011.7 |
| 20260509222325 | 55 | 138 | 0.9 | 2.6 | 0.00 | 0.00 | 0.00 | 67 | 1011.7 |
| 20260509222224 | 55 | 138 | 1.7 | 2.6 | 0.00 | 0.00 | 0.00 | 68 | 1011.7 |
| 20260509222122 | 55 | 138 | 1.7 | 2.6 | 0.00 | 0.00 | 0.00 | 67 | 1011.7 |
| 20260509222022 | 55 | 138 | 1.7 | 3.5 | 0.00 | 0.00 | 0.00 | 67 | 1011.6 |
| 20260509221921 | 55 | 138 | 1.7 | 3.5 | 0.00 | 0.00 | 0.00 | 67 | 1011.7 |
| 20260509221819 | 55 | 138 | 1.7 | 3.5 | 0.00 | 0.00 | 0.00 | 67 | 1011.7 |
| 20260509221719 | 55 | 138 | 1.7 | 3.5 | 0.00 | 0.00 | 0.00 | 67 | 1011.7 |
| 20260509221619 | 55 | 138 | 1.7 | 3.5 | 0.00 | 0.00 | 0.00 | 67 | 1011.7 |
| 20260509221517 | 55 | 138 | 1.7 | 3.5 | 0.00 | 0.00 | 0.00 | 66 | 1011.7 |
| 20260509221417 | 55 | 138 | 2.6 | 4.3 | 0.00 | 0.00 | 0.00 | 66 | 1011.7 |
| 20260509221316 | 55 | 137 | 2.6 | 4.3 | 0.00 | 0.00 | 0.00 | 66 | 1011.7 |
| 20260509221217 | 56 | 137 | 2.6 | 4.3 | 0.00 | 0.00 | 0.00 | 66 | 1011.7 |
| 20260509221116 | 56 | 137 | 2.6 | 4.3 | 0.00 | 0.00 | 0.00 | 66 | 1011.7 |
| 20260509221016 | 56 | 136 | 2.6 | 4.3 | 0.00 | 0.00 | 0.00 | 66 | 1011.7 |
| 20260509220914 | 56 | 133 | 2.6 | 4.3 | 0.00 | 0.00 | 0.00 | 66 | 1011.7 |
| 20260509220815 | 56 | 132 | 2.6 | 4.3 | 0.00 | 0.00 | 0.00 | 66 | 1011.7 |
| 20260509220715 | 56 | 132 | 2.6 | 4.3 | 0.00 | 0.00 | 0.00 | 66 | 1011.7 |
| 20260509220615 | 56 | 128 | 2.6 | 4.3 | 0.00 | 0.00 | 0.00 | 66 | 1011.7 |
| 20260509220543 | 56 | 148 | 1.7 | 4.3 | 0.00 | 0.00 | 0.00 | 66 | 1011.7 |
| 20260509220533 | 56 | 143 | 2.6 | 4.3 | 0.00 | 0.00 | 0.00 | 66 | 1011.7 |
| 20260509220529 | 56 | 144 | 1.7 | 4.3 | 0.00 | 0.00 | 0.00 | 66 | 1011.7 |
| 20260509220312 | 56 | 148 | 1.7 | 4.3 | 0.00 | 0.00 | 0.00 | 66 | 1011.7 |
| 20260509220213 | 56 | 146 | 1.7 | 4.3 | 0.00 | 0.00 | 0.00 | 66 | 1011.7 |
| 20260509220113 | 56 | 148 | 2.6 | 4.3 | 0.00 | 0.00 | 0.00 | 66 | 1011.7 |
| 20260509220012 | 56 | 176 | 2.6 | 6.1 | 0.00 | 0.00 | 0.00 | 66 | 1011.6 |
| 20260509215910 | 56 | 156 | 2.6 | 6.1 | 0.00 | 0.00 | 0.00 | 66 | 1011.7 |
| 20260509215809 | 56 | 171 | 2.6 | 6.1 | 0.00 | 0.00 | 0.00 | 66 | 1011.6 |
| 20260509215709 | 56 | 148 | 2.6 | 6.1 | 0.00 | 0.00 | 0.00 | 66 | 1011.7 |
| 20260509215610 | 56 | 165 | 2.6 | 6.1 | 0.00 | 0.00 | 0.00 | 66 | 1011.6 |
| 20260509215510 | 56 | 148 | 2.6 | 6.1 | 0.00 | 0.00 | 0.00 | 66 | 1011.6 |
| 20260509215410 | 56 | 145 | 2.6 | 6.1 | 0.00 | 0.00 | 0.00 | 66 | 1011.6 |
| 20260509215316 | 56 | 155 | 2.6 | 6.1 | 0.00 | 0.00 | 0.00 | 66 | 1011.6 |
| 20260509215310 | 56 | 156 | 2.6 | 6.1 | 0.00 | 0.00 | 0.00 | 66 | 1011.6 |
| 20260509215209 | 56 | 144 | 2.6 | 6.1 | 0.00 | 0.00 | 0.00 | 66 | 1011.6 |
| 20260509215109 | 56 | 143 | 2.6 | 6.1 | 0.00 | 0.00 | 0.00 | 66 | 1011.7 |
| 20260509215009 | 56 | 151 | 2.6 | 6.1 | 0.00 | 0.00 | 0.00 | 66 | 1011.6 |
| 20260509214910 | 56 | 136 | 2.6 | 4.3 | 0.00 | 0.00 | 0.00 | 66 | 1011.6 |
| 20260509214816 | 56 | 146 | 2.6 | 4.3 | 0.00 | 0.00 | 0.00 | 66 | 1011.7 |
| 20260509214803 | 56 | 141 | 2.6 | 4.3 | 0.00 | 0.00 | 0.00 | 66 | 1011.7 |
| 20260509214704 | 56 | 164 | 2.6 | 4.3 | 0.00 | 0.00 | 0.00 | 66 | 1011.6 |
| 20260509214603 | 56 | 152 | 2.6 | 4.3 | 0.00 | 0.00 | 0.00 | 66 | 1011.7 |
| 20260509214544 | 56 | 149 | 2.6 | 5.2 | 0.00 | 0.00 | 0.00 | 66 | 1011.7 |
| 20260509214531 | 56 | 144 | 2.6 | 5.2 | 0.00 | 0.00 | 0.00 | 66 | 1011.6 |
| 20260509214527 | 56 | 138 | 2.6 | 5.2 | 0.00 | 0.00 | 0.00 | 66 | 1011.7 |
| 20260509214303 | 56 | 148 | 2.6 | 5.2 | 0.00 | 0.00 | 0.00 | 66 | 1011.7 |
| 20260509214203 | 56 | 142 | 2.6 | 5.2 | 0.00 | 0.00 | 0.00 | 65 | 1011.7 |
| 20260509214103 | 56 | 159 | 2.6 | 5.2 | 0.00 | 0.00 | 0.00 | 66 | 1011.7 |
| 20260509214003 | 56 | 148 | 2.6 | 5.2 | 0.00 | 0.00 | 0.00 | 66 | 1011.6 |
| 20260509213904 | 56 | 152 | 1.7 | 5.2 | 0.00 | 0.00 | 0.00 | 65 | 1011.7 |
| 20260509213816 | 57 | 150 | 1.7 | 5.2 | 0.00 | 0.00 | 0.00 | 65 | 1011.7 |
| 20260509213804 | 57 | 149 | 1.7 | 5.2 | 0.00 | 0.00 | 0.00 | 65 | 1011.7 |
| 20260509213701 | 57 | 150 | 1.7 | 5.2 | 0.00 | 0.00 | 0.00 | 65 | 1011.7 |
| 20260509213601 | 57 | 155 | 1.7 | 5.2 | 0.00 | 0.00 | 0.00 | 65 | 1011.7 |
| 20260509213534 | 57 | 148 | 1.7 | 5.2 | 0.00 | 0.00 | 0.00 | 65 | 1011.7 |
| 20260509213529 | 57 | 155 | 1.7 | 5.2 | 0.00 | 0.00 | 0.00 | 65 | 1011.7 |
| 20260509213524 | 57 | 157 | 1.7 | 5.2 | 0.00 | 0.00 | 0.00 | 65 | 1011.7 |
| 20260509213301 | 57 | 150 | 1.7 | 5.2 | 0.00 | 0.00 | 0.00 | 65 | 1011.7 |
| 20260509213201 | 57 | 150 | 1.7 | 5.2 | 0.00 | 0.00 | 0.00 | 64 | 1011.7 |
| 20260509213101 | 57 | 153 | 1.7 | 5.2 | 0.00 | 0.00 | 0.00 | 65 | 1011.7 |
| 20260509213001 | 57 | 145 | 1.7 | 5.2 | 0.00 | 0.00 | 0.00 | 64 | 1011.7 |
| 20260509212902 | 57 | 138 | 1.7 | 5.2 | 0.00 | 0.00 | 0.00 | 64 | 1011.7 |
| 20260509212814 | 58 | 134 | 1.7 | 5.2 | 0.00 | 0.00 | 0.00 | 64 | 1011.7 |
| 20260509212801 | 58 | 132 | 1.7 | 5.2 | 0.00 | 0.00 | 0.00 | 64 | 1011.7 |
| 20260509212701 | 58 | 122 | 1.7 | 5.2 | 0.00 | 0.00 | 0.00 | 64 | 1011.7 |
| 20260509212601 | 58 | 122 | 1.7 | 5.2 | 0.00 | 0.00 | 0.00 | 64 | 1011.7 |
| 20260509212501 | 58 | 115 | 1.7 | 5.2 | 0.00 | 0.00 | 0.00 | 64 | 1011.7 |
| 20260509212401 | 58 | 132 | 1.7 | 5.2 | 0.00 | 0.00 | 0.00 | 64 | 1011.7 |
| 20260509212301 | 58 | 132 | 1.7 | 5.2 | 0.00 | 0.00 | 0.00 | 64 | 1011.7 |
| 20260509212201 | 58 | 123 | 1.7 | 5.2 | 0.00 | 0.00 | 0.00 | 64 | 1011.7 |
| 20260509212101 | 58 | 123 | 1.7 | 5.2 | 0.00 | 0.00 | 0.00 | 63 | 1011.7 |
| 20260509212001 | 58 | 123 | 1.7 | 5.2 | 0.00 | 0.00 | 0.00 | 63 | 1011.7 |
| 20260509211901 | 58 | 115 | 1.7 | 5.2 | 0.00 | 0.00 | 0.00 | 63 | 1011.8 |
| 20260509211814 | 58 | 141 | 1.7 | 5.2 | 0.00 | 0.00 | 0.00 | 64 | 1011.8 |
| 20260509211801 | 58 | 138 | 1.7 | 5.2 | 0.00 | 0.00 | 0.00 | 63 | 1011.8 |
| 20260509211700 | 58 | 111 | 1.7 | 5.2 | 0.00 | 0.00 | 0.00 | 63 | 1011.8 |
| 20260509211600 | 58 | 123 | 1.7 | 5.2 | 0.00 | 0.00 | 0.00 | 63 | 1011.8 |
| 20260509211536 | 58 | 89 | 1.7 | 6.1 | 0.00 | 0.00 | 0.00 | 63 | 1011.8 |
| 20260509211528 | 58 | 119 | 1.7 | 6.1 | 0.00 | 0.00 | 0.00 | 63 | 1011.8 |
| 20260509211524 | 58 | 109 | 1.7 | 6.1 | 0.00 | 0.00 | 0.00 | 63 | 1011.8 |
| 20260509211301 | 58 | 111 | 1.7 | 6.1 | 0.00 | 0.00 | 0.00 | 63 | 1011.8 |
| 20260509211201 | 58 | 115 | 1.7 | 6.1 | 0.00 | 0.00 | 0.00 | 63 | 1011.8 |
| 20260509211100 | 58 | 110 | 1.7 | 6.1 | 0.00 | 0.00 | 0.00 | 63 | 1011.8 |
| 20260509211000 | 58 | 111 | 1.7 | 6.1 | 0.00 | 0.00 | 0.00 | 63 | 1011.8 |
| 20260509210900 | 58 | 91 | 1.7 | 6.1 | 0.00 | 0.00 | 0.00 | 64 | 1011.8 |
| 20260509210800 | 58 | 107 | 1.7 | 6.1 | 0.00 | 0.00 | 0.00 | 64 | 1011.8 |
| 20260509210701 | 58 | 94 | 1.7 | 6.1 | 0.00 | 0.00 | 0.00 | 63 | 1011.9 |
| 20260509210601 | 58 | 120 | 1.7 | 7.0 | 0.00 | 0.00 | 0.00 | 63 | 1011.8 |
| 20260509210501 | 58 | 98 | 1.7 | 7.0 | 0.00 | 0.00 | 0.00 | 64 | 1011.8 |
| 20260509210401 | 58 | 110 | 1.7 | 7.0 | 0.00 | 0.00 | 0.00 | 63 | 1011.8 |
| 20260509210313 | 58 | 104 | 1.7 | 7.0 | 0.00 | 0.00 | 0.00 | 63 | 1011.8 |
| 20260509210301 | 58 | 98 | 1.7 | 7.0 | 0.00 | 0.00 | 0.00 | 63 | 1011.8 |
| 20260509210202 | 58 | 97 | 1.7 | 7.0 | 0.00 | 0.00 | 0.00 | 63 | 1011.9 |
| 20260509210001 | 58 | 75 | 1.7 | 7.0 | 0.00 | 0.00 | 0.00 | 63 | 1011.9 |
| 20260509205901 | 58 | 111 | 1.7 | 7.0 | 0.00 | 0.00 | 0.00 | 63 | 1011.9 |
| 20260509205813 | 58 | 98 | 1.7 | 7.0 | 0.00 | 0.00 | 0.00 | 63 | 1011.9 |
| 20260509205801 | 58 | 111 | 1.7 | 7.0 | 0.00 | 0.00 | 0.00 | 63 | 1011.9 |
| 20260509205701 | 58 | 111 | 1.7 | 7.0 | 0.00 | 0.00 | 0.00 | 63 | 1011.9 |
| 20260509205601 | 58 | 111 | 1.7 | 5.2 | 0.00 | 0.00 | 0.00 | 63 | 1011.9 |
| 20260509205501 | 58 | 105 | 1.7 | 5.2 | 0.00 | 0.00 | 0.00 | 63 | 1011.9 |
| 20260509205401 | 58 | 93 | 1.7 | 5.2 | 0.00 | 0.00 | 0.00 | 63 | 1011.9 |
| 20260509205314 | 58 | 91 | 1.7 | 5.2 | 0.00 | 0.00 | 0.00 | 63 | 1011.9 |
| 20260509205300 | 59 | 76 | 1.7 | 5.2 | 0.00 | 0.00 | 0.00 | 63 | 1011.9 |
| 20260509205201 | 59 | 115 | 0.9 | 3.5 | 0.00 | 0.00 | 0.00 | 63 | 1011.9 |
| 20260509205057 | 59 | 89 | 0.9 | 3.5 | 0.00 | 0.00 | 0.00 | 63 | 1011.9 |
| 20260509205039 | 59 | 108 | 1.7 | 5.2 | 0.00 | 0.00 | 0.00 | 63 | 1011.9 |
| 20260509205029 | 59 | 88 | 1.7 | 5.2 | 0.00 | 0.00 | 0.00 | 63 | 1011.9 |
| 20260509205027 | 59 | 88 | 1.7 | 5.2 | 0.00 | 0.00 | 0.00 | 63 | 1011.9 |
| 20260509204757 | 59 | 111 | 1.7 | 5.2 | 0.00 | 0.00 | 0.00 | 63 | 1011.9 |
| 20260509204657 | 59 | 112 | 1.7 | 5.2 | 0.00 | 0.00 | 0.00 | 63 | 1011.9 |
| 20260509204557 | 59 | 113 | 1.7 | 5.2 | 0.00 | 0.00 | 0.00 | 63 | 1011.9 |
| 20260509204458 | 59 | 117 | 1.7 | 5.2 | 0.00 | 0.00 | 0.00 | 63 | 1011.9 |
| 20260509204358 | 59 | 117 | 1.7 | 5.2 | 0.00 | 0.00 | 0.00 | 63 | 1011.9 |
| 20260509204313 | 59 | 96 | 1.7 | 5.2 | 0.00 | 0.00 | 0.00 | 63 | 1011.9 |
| 20260509204258 | 59 | 90 | 1.7 | 5.2 | 0.00 | 0.00 | 0.00 | 63 | 1011.9 |
| 20260509204158 | 59 | 107 | 1.7 | 5.2 | 0.00 | 0.00 | 0.00 | 62 | 1011.9 |
| 20260509204058 | 59 | 115 | 1.7 | 5.2 | 0.00 | 0.00 | 0.00 | 63 | 1011.9 |
| 20260509203958 | 59 | 112 | 1.7 | 5.2 | 0.00 | 0.00 | 0.00 | 62 | 1011.9 |
| 20260509203858 | 59 | 112 | 1.7 | 5.2 | 0.00 | 0.00 | 0.00 | 62 | 1011.9 |
| 20260509203814 | 59 | 108 | 1.7 | 5.2 | 0.00 | 0.00 | 0.00 | 62 | 1011.9 |
| 20260509203757 | 59 | 86 | 1.7 | 5.2 | 0.00 | 0.00 | 0.00 | 62 | 1011.9 |
| 20260509203658 | 59 | 101 | 0.9 | 3.5 | 0.00 | 0.00 | 0.00 | 62 | 1011.9 |
| 20260509203558 | 59 | 106 | 1.7 | 3.5 | 0.00 | 0.00 | 0.00 | 62 | 1011.9 |
| 20260509203458 | 59 | 101 | 1.7 | 3.5 | 0.00 | 0.00 | 0.00 | 62 | 1011.9 |
| 20260509203357 | 59 | 102 | 1.7 | 3.5 | 0.00 | 0.00 | 0.00 | 62 | 1011.9 |
| 20260509203312 | 59 | 95 | 1.7 | 3.5 | 0.00 | 0.00 | 0.00 | 62 | 1011.9 |
| 20260509203258 | 59 | 103 | 1.7 | 3.5 | 0.00 | 0.00 | 0.00 | 62 | 1011.9 |
| 20260509203153 | 59 | 89 | 1.7 | 3.5 | 0.00 | 0.00 | 0.00 | 62 | 1011.9 |
| 20260509203053 | 60 | 89 | 1.7 | 3.5 | 0.00 | 0.00 | 0.00 | 62 | 1011.9 |
| 20260509202953 | 60 | 104 | 1.7 | 3.5 | 0.00 | 0.00 | 0.00 | 62 | 1012.0 |
| 20260509202853 | 60 | 75 | 1.7 | 3.5 | 0.00 | 0.00 | 0.00 | 62 | 1012.0 |
| 20260509202811 | 60 | 89 | 1.7 | 5.2 | 0.00 | 0.00 | 0.00 | 62 | 1012.0 |
| 20260509202800 | 60 | 98 | 1.7 | 5.2 | 0.00 | 0.00 | 0.00 | 61 | 1012.1 |
| 20260509202756 | 60 | 90 | 1.7 | 5.2 | 0.00 | 0.00 | 0.00 | 62 | 1012.0 |
| 20260509202747 | 60 | 113 | 1.7 | 5.2 | 0.00 | 0.00 | 0.00 | 61 | 1012.0 |
| 20260509202743 | 60 | 96 | 1.7 | 5.2 | 0.00 | 0.00 | 0.00 | 61 | 1012.0 |
| 20260509202526 | 60 | 96 | 1.7 | 5.2 | 0.00 | 0.00 | 0.00 | 61 | 1012.0 |
| 20260509202522 | 60 | 96 | 1.7 | 5.2 | 0.00 | 0.00 | 0.00 | 61 | 1012.1 |
| 20260509202254 | 60 | 106 | 1.7 | 5.2 | 0.00 | 0.00 | 0.00 | 61 | 1012.0 |
| 20260509202153 | 60 | 65 | 1.7 | 5.2 | 0.00 | 0.00 | 0.00 | 61 | 1012.0 |
| 20260509202053 | 60 | 57 | 1.7 | 5.2 | 0.00 | 0.00 | 0.00 | 60 | 1012.1 |
| 20260509201945 | 60 | 116 | 1.7 | 5.2 | 0.00 | 0.00 | 0.00 | 60 | 1012.1 |
| 20260509201844 | 60 | 91 | 1.7 | 5.2 | 0.00 | 0.00 | 0.00 | 60 | 1012.1 |
| 20260509201811 | 60 | 107 | 1.7 | 5.2 | 0.00 | 0.00 | 0.00 | 60 | 1012.1 |
| 20260509201743 | 60 | 63 | 1.7 | 5.2 | 0.00 | 0.00 | 0.00 | 60 | 1012.1 |
| 20260509201641 | 60 | 90 | 1.7 | 3.5 | 0.00 | 0.00 | 0.00 | 60 | 1012.0 |
| 20260509201539 | 60 | 107 | 1.7 | 3.5 | 0.00 | 0.00 | 0.00 | 60 | 1012.1 |
| 20260509201533 | 60 | 116 | 1.7 | 4.3 | 0.00 | 0.00 | 0.00 | 60 | 1012.1 |
| 20260509201526 | 60 | 92 | 1.7 | 3.5 | 0.00 | 0.00 | 0.00 | 60 | 1012.1 |
| 20260509201522 | 60 | 68 | 1.7 | 3.5 | 0.00 | 0.00 | 0.00 | 60 | 1012.1 |
| 20260509201237 | 60 | 89 | 1.7 | 5.2 | 0.00 | 0.00 | 0.00 | 60 | 1012.1 |
| 20260509201136 | 60 | 98 | 1.7 | 5.2 | 0.00 | 0.00 | 0.00 | 60 | 1012.1 |
| 20260509201034 | 60 | 72 | 1.7 | 5.2 | 0.00 | 0.00 | 0.00 | 59 | 1012.1 |
| 20260509200932 | 60 | 79 | 1.7 | 5.2 | 0.00 | 0.00 | 0.00 | 59 | 1012.1 |
| 20260509200829 | 60 | 93 | 1.7 | 5.2 | 0.00 | 0.00 | 0.00 | 59 | 1012.1 |
| 20260509200809 | 60 | 94 | 1.7 | 5.2 | 0.00 | 0.00 | 0.00 | 59 | 1012.1 |
| 20260509200729 | 61 | 86 | 1.7 | 5.2 | 0.00 | 0.00 | 0.00 | 59 | 1012.1 |
| 20260509200629 | 61 | 87 | 1.7 | 5.2 | 0.00 | 0.00 | 0.00 | 59 | 1012.1 |
| 20260509200530 | 61 | 109 | 1.7 | 5.2 | 0.00 | 0.00 | 0.00 | 59 | 1012.1 |
| 20260509200430 | 61 | 97 | 1.7 | 5.2 | 0.00 | 0.00 | 0.00 | 59 | 1012.1 |
| 20260509200330 | 61 | 84 | 1.7 | 5.2 | 0.00 | 0.00 | 0.00 | 59 | 1012.1 |
| 20260509200309 | 61 | 105 | 1.7 | 5.2 | 0.00 | 0.00 | 0.00 | 59 | 1012.1 |
| 20260509200229 | 61 | 78 | 1.7 | 5.2 | 0.00 | 0.00 | 0.00 | 59 | 1012.1 |
| 20260509200129 | 61 | 82 | 1.7 | 5.2 | 0.00 | 0.00 | 0.00 | 59 | 1012.1 |
| 20260509200028 | 61 | 101 | 1.7 | 5.2 | 0.00 | 0.00 | 0.00 | 59 | 1012.1 |
| 20260509195929 | 61 | 96 | 1.7 | 3.5 | 0.00 | 0.00 | 0.00 | 59 | 1012.3 |
| 20260509195807 | 61 | 101 | 1.7 | 3.5 | 0.00 | 0.00 | 0.00 | 59 | 1012.1 |
| 20260509195729 | 61 | 107 | 1.7 | 3.5 | 0.00 | 0.00 | 0.00 | 59 | 1012.1 |
| 20260509195629 | 61 | 96 | 1.7 | 3.5 | 0.00 | 0.00 | 0.00 | 58 | 1012.1 |
| 20260509195533 | 61 | 88 | 1.7 | 5.2 | 0.00 | 0.00 | 0.00 | 58 | 1012.1 |
| 20260509195529 | 61 | 109 | 1.7 | 3.5 | 0.00 | 0.00 | 0.00 | 58 | 1012.1 |
| 20260509195522 | 61 | 99 | 1.7 | 5.2 | 0.00 | 0.00 | 0.00 | 58 | 1012.1 |
| 20260509195518 | 61 | 103 | 1.7 | 5.2 | 0.00 | 0.00 | 0.00 | 58 | 1012.1 |
| 20260509195229 | 61 | 124 | 1.7 | 5.2 | 0.00 | 0.00 | 0.00 | 58 | 1012.0 |
| 20260509195129 | 61 | 126 | 1.7 | 5.2 | 0.00 | 0.00 | 0.00 | 58 | 1012.0 |
| 20260509195028 | 61 | 86 | 1.7 | 5.2 | 0.00 | 0.00 | 0.00 | 58 | 1012.0 |
| 20260509194928 | 61 | 119 | 1.7 | 6.1 | 0.00 | 0.00 | 0.00 | 58 | 1012.0 |
| 20260509194828 | 61 | 90 | 1.7 | 6.1 | 0.00 | 0.00 | 0.00 | 58 | 1012.0 |
| 20260509194806 | 61 | 89 | 1.7 | 6.1 | 0.00 | 0.00 | 0.00 | 58 | 1012.0 |
| 20260509194729 | 61 | 86 | 1.7 | 6.1 | 0.00 | 0.00 | 0.00 | 58 | 1012.0 |
| 20260509194629 | 61 | 55 | 0.9 | 6.1 | 0.00 | 0.00 | 0.00 | 58 | 1012.0 |
| 20260509194530 | 61 | 106 | 0.9 | 6.1 | 0.00 | 0.00 | 0.00 | 57 | 1012.0 |
| 20260509194429 | 61 | 86 | 0.9 | 6.1 | 0.00 | 0.00 | 0.00 | 57 | 1012.0 |
| 20260509194329 | 61 | 74 | 0.9 | 6.1 | 0.00 | 0.00 | 0.00 | 57 | 1012.0 |
| 20260509194305 | 61 | 117 | 0.9 | 6.1 | 0.00 | 0.00 | 0.00 | 57 | 1012.0 |
| 20260509194229 | 61 | 113 | 0.9 | 6.1 | 0.00 | 0.00 | 0.00 | 57 | 1011.9 |
| 20260509194129 | 61 | 94 | 0.9 | 6.1 | 0.00 | 0.00 | 0.00 | 57 | 1012.0 |
| 20260509194029 | 61 | 95 | 0.9 | 6.1 | 0.00 | 0.00 | 0.00 | 57 | 1011.9 |
| 20260509193929 | 61 | 94 | 0.9 | 5.2 | 0.00 | 0.00 | 0.00 | 57 | 1011.9 |
| 20260509193829 | 61 | 106 | 0.9 | 5.2 | 0.00 | 0.00 | 0.00 | 57 | 1011.9 |
| 20260509193802 | 61 | 119 | 0.9 | 5.2 | 0.00 | 0.00 | 0.00 | 57 | 1011.9 |
| 20260509193729 | 62 | 104 | 0.9 | 5.2 | 0.00 | 0.00 | 0.00 | 57 | 1011.9 |
| 20260509193629 | 62 | 103 | 0.9 | 5.2 | 0.00 | 0.00 | 0.00 | 57 | 1011.9 |
| 20260509193529 | 62 | 98 | 0.9 | 5.2 | 0.00 | 0.00 | 0.00 | 57 | 1011.9 |
| 20260509193430 | 62 | 100 | 0.9 | 5.2 | 0.00 | 0.00 | 0.00 | 57 | 1011.9 |
| 20260509193301 | 62 | 111 | 0.9 | 5.2 | 0.00 | 0.00 | 0.00 | 57 | 1011.9 |
| 20260509193229 | 62 | 103 | 0.9 | 5.2 | 0.00 | 0.00 | 0.00 | 57 | 1011.9 |
| 20260509193129 | 62 | 99 | 0.9 | 4.3 | 0.00 | 0.00 | 0.00 | 57 | 1011.9 |
| 20260509193029 | 62 | 78 | 0.9 | 4.3 | 0.00 | 0.00 | 0.00 | 57 | 1011.9 |
| 20260509192929 | 62 | 100 | 0.9 | 4.3 | 0.00 | 0.00 | 0.00 | 57 | 1011.9 |
| 20260509192801 | 62 | 101 | 0.9 | 4.3 | 0.00 | 0.00 | 0.00 | 57 | 1011.9 |
| 20260509192729 | 62 | 113 | 0.9 | 4.3 | 0.00 | 0.00 | 0.00 | 57 | 1011.9 |
| 20260509192629 | 62 | 113 | 0.9 | 4.3 | 0.00 | 0.00 | 0.00 | 56 | 1011.9 |
| 20260509192529 | 62 | 99 | 0.9 | 4.3 | 0.00 | 0.00 | 0.00 | 56 | 1011.9 |
| 20260509192429 | 62 | 77 | 0.9 | 4.3 | 0.00 | 0.00 | 0.00 | 56 | 1011.9 |
| 20260509192328 | 62 | 96 | 0.9 | 3.5 | 0.00 | 0.00 | 0.00 | 56 | 1011.8 |
| 20260509192305 | 62 | 95 | 0.9 | 4.3 | 0.00 | 0.00 | 0.00 | 56 | 1011.9 |
| 20260509192229 | 62 | 94 | 0.9 | 4.3 | 0.00 | 0.00 | 0.00 | 56 | 1011.9 |
| 20260509192129 | 62 | 96 | 1.7 | 6.1 | 0.00 | 0.00 | 0.00 | 56 | 1011.8 |
| 20260509192029 | 62 | 95 | 1.7 | 6.1 | 0.00 | 0.00 | 0.00 | 56 | 1011.8 |
| 20260509191929 | 62 | 136 | 1.7 | 6.1 | 0.00 | 0.00 | 0.00 | 56 | 1011.8 |
| 20260509191829 | 62 | 81 | 1.7 | 6.1 | 0.00 | 0.00 | 0.00 | 56 | 1011.8 |
| 20260509191800 | 62 | 89 | 1.7 | 6.1 | 0.00 | 0.00 | 0.00 | 56 | 1011.8 |
| 20260509191729 | 62 | 84 | 1.7 | 6.1 | 0.00 | 0.00 | 0.00 | 56 | 1011.8 |
| 20260509191628 | 62 | 86 | 1.7 | 6.1 | 0.00 | 0.00 | 0.00 | 56 | 1011.8 |
| 20260509191528 | 62 | 100 | 1.7 | 6.1 | 0.00 | 0.00 | 0.00 | 56 | 1011.8 |
| 20260509191428 | 62 | 107 | 1.7 | 6.1 | 0.00 | 0.00 | 0.00 | 56 | 1011.8 |
| 20260509191328 | 62 | 109 | 1.7 | 6.1 | 0.00 | 0.00 | 0.00 | 56 | 1011.8 |
| 20260509191300 | 62 | 74 | 1.7 | 6.1 | 0.00 | 0.00 | 0.00 | 56 | 1011.8 |
| 20260509191229 | 62 | 96 | 1.7 | 6.1 | 0.00 | 0.00 | 0.00 | 56 | 1011.7 |
| 20260509191129 | 62 | 92 | 0.9 | 4.3 | 0.00 | 0.00 | 0.00 | 56 | 1011.8 |
| 20260509191029 | 63 | 79 | 0.9 | 4.3 | 0.00 | 0.00 | 0.00 | 55 | 1011.8 |
| 20260509190930 | 63 | 71 | 0.9 | 4.3 | 0.00 | 0.00 | 0.00 | 56 | 1011.8 |
| 20260509190829 | 63 | 94 | 0.9 | 4.3 | 0.00 | 0.00 | 0.00 | 55 | 1011.8 |
| 20260509190801 | 63 | 95 | 0.9 | 4.3 | 0.00 | 0.00 | 0.00 | 56 | 1011.8 |
| 20260509190729 | 63 | 134 | 0.9 | 4.3 | 0.00 | 0.00 | 0.00 | 56 | 1011.8 |
| 20260509190629 | 63 | 93 | 0.9 | 4.3 | 0.00 | 0.00 | 0.00 | 55 | 1011.7 |
| 20260509190529 | 63 | 105 | 0.9 | 3.5 | 0.00 | 0.00 | 0.00 | 55 | 1011.7 |
| 20260509190429 | 63 | 115 | 0.9 | 3.5 | 0.00 | 0.00 | 0.00 | 55 | 1011.7 |
| 20260509190329 | 63 | 116 | 0.9 | 3.5 | 0.00 | 0.00 | 0.00 | 55 | 1011.7 |
| 20260509190301 | 63 | 101 | 0.9 | 3.5 | 0.00 | 0.00 | 0.00 | 55 | 1011.7 |
| 20260509190229 | 63 | 100 | 0.9 | 3.5 | 0.00 | 0.00 | 0.00 | 55 | 1011.7 |
| 20260509190129 | 63 | 90 | 0.9 | 3.5 | 0.00 | 0.00 | 0.00 | 55 | 1011.7 |
| 20260509190029 | 63 | 103 | 0.9 | 3.5 | 0.00 | 0.00 | 0.00 | 55 | 1011.7 |
| 20260509185929 | 63 | 95 | 0.9 | 3.5 | 0.00 | 0.00 | 0.00 | 55 | 1011.7 |
| 20260509185829 | 63 | 96 | 0.9 | 3.5 | 0.00 | 0.00 | 0.00 | 55 | 1011.7 |
| 20260509185801 | 63 | 95 | 0.9 | 3.5 | 0.00 | 0.00 | 0.00 | 55 | 1011.7 |
| 20260509185749 | 64 | 97 | 1.7 | 4.3 | 0.00 | 0.00 | 0.00 | 54 | 1011.7 |
| 20260509185745 | 63 | 109 | 0.9 | 3.5 | 0.00 | 0.00 | 0.00 | 55 | 1011.7 |
| 20260509185741 | 63 | 96 | 1.7 | 3.5 | 0.00 | 0.00 | 0.00 | 55 | 1011.7 |
| 20260509185733 | 63 | 104 | 1.7 | 3.5 | 0.00 | 0.00 | 0.00 | 54 | 1011.8 |
| 20260509185515 | 63 | 103 | 1.7 | 3.5 | 0.00 | 0.00 | 0.00 | 54 | 1011.7 |
| 20260509185511 | 64 | 107 | 1.7 | 4.3 | 0.00 | 0.00 | 0.00 | 54 | 1011.7 |
| 20260509185229 | 64 | 82 | 1.7 | 4.3 | 0.00 | 0.00 | 0.00 | 54 | 1011.7 |
| 20260509185130 | 64 | 78 | 1.7 | 4.3 | 0.00 | 0.00 | 0.00 | 54 | 1011.7 |
| 20260509185028 | 64 | 70 | 1.7 | 4.3 | 0.00 | 0.00 | 0.00 | 54 | 1011.7 |
| 20260509184928 | 64 | 92 | 0.9 | 4.3 | 0.00 | 0.00 | 0.00 | 54 | 1011.8 |
| 20260509184828 | 64 | 90 | 0.9 | 4.3 | 0.00 | 0.00 | 0.00 | 54 | 1011.8 |
| 20260509184801 | 64 | 94 | 0.9 | 4.3 | 0.00 | 0.00 | 0.00 | 54 | 1011.8 |
| 20260509184729 | 64 | 94 | 0.9 | 4.3 | 0.00 | 0.00 | 0.00 | 54 | 1011.8 |
| 20260509184629 | 64 | 86 | 0.9 | 4.3 | 0.00 | 0.00 | 0.00 | 53 | 1011.8 |
| 20260509184529 | 64 | 96 | 0.9 | 4.3 | 0.00 | 0.00 | 0.00 | 54 | 1011.7 |
| 20260509184428 | 64 | 94 | 0.9 | 4.3 | 0.00 | 0.00 | 0.00 | 54 | 1011.7 |
| 20260509184328 | 64 | 111 | 0.9 | 3.5 | 0.00 | 0.00 | 0.00 | 53 | 1011.8 |
| 20260509184301 | 64 | 115 | 0.9 | 3.5 | 0.00 | 0.00 | 0.00 | 53 | 1011.8 |
| 20260509184228 | 64 | 111 | 0.9 | 3.5 | 0.00 | 0.00 | 0.00 | 53 | 1011.8 |
| 20260509184128 | 64 | 85 | 0.9 | 3.5 | 0.00 | 0.00 | 0.00 | 53 | 1011.7 |
| 20260509184028 | 64 | 99 | 0.9 | 3.5 | 0.00 | 0.00 | 0.00 | 53 | 1011.7 |
| 20260509183925 | 64 | 98 | 0.9 | 3.5 | 0.00 | 0.00 | 0.00 | 53 | 1011.7 |
| 20260509183823 | 65 | 98 | 0.9 | 3.5 | 0.00 | 0.00 | 0.00 | 53 | 1011.7 |
| 20260509183802 | 65 | 99 | 0.9 | 3.5 | 0.00 | 0.00 | 0.00 | 53 | 1011.7 |
| 20260509183723 | 65 | 99 | 0.9 | 3.5 | 0.00 | 0.00 | 0.00 | 53 | 1011.7 |
| 20260509183626 | 65 | 98 | 0.9 | 3.5 | 0.00 | 0.00 | 0.00 | 53 | 1011.7 |
| 20260509183522 | 65 | 89 | 0.9 | 3.5 | 0.00 | 0.00 | 0.00 | 52 | 1011.7 |
| 20260509183421 | 65 | 90 | 0.9 | 3.5 | 0.00 | 0.00 | 0.00 | 53 | 1011.7 |
| 20260509183321 | 65 | 105 | 0.9 | 4.3 | 0.00 | 0.00 | 0.00 | 53 | 1011.7 |
| 20260509183301 | 65 | 112 | 0.9 | 4.3 | 0.00 | 0.00 | 0.00 | 52 | 1011.7 |
| 20260509183221 | 65 | 105 | 0.9 | 4.3 | 0.00 | 0.00 | 0.00 | 52 | 1011.6 |
| 20260509183123 | 65 | 99 | 0.9 | 4.3 | 0.00 | 0.00 | 0.00 | 52 | 1011.6 |
| 20260509183017 | 65 | 94 | 0.9 | 4.3 | 0.00 | 0.00 | 0.00 | 52 | 1011.6 |
| 20260509182912 | 65 | 107 | 0.9 | 4.3 | 0.00 | 0.00 | 0.00 | 52 | 1011.6 |
| 20260509182811 | 65 | 122 | 0.9 | 4.3 | 0.00 | 0.00 | 0.00 | 52 | 1011.6 |
| 20260509182801 | 65 | 121 | 0.9 | 4.3 | 0.00 | 0.00 | 0.00 | 52 | 1011.6 |
| 20260509182711 | 65 | 123 | 0.9 | 4.3 | 0.00 | 0.00 | 0.00 | 52 | 1011.6 |
| 20260509182611 | 65 | 123 | 0.9 | 4.3 | 0.00 | 0.00 | 0.00 | 52 | 1011.7 |
| 20260509182511 | 65 | 85 | 0.9 | 4.3 | 0.00 | 0.00 | 0.00 | 52 | 1011.6 |
| 20260509182406 | 65 | 72 | 0.9 | 4.3 | 0.00 | 0.00 | 0.00 | 52 | 1011.7 |
| 20260509182307 | 65 | 82 | 0.9 | 3.5 | 0.00 | 0.00 | 0.00 | 52 | 1011.7 |
| 20260509182301 | 65 | 104 | 0.9 | 3.5 | 0.00 | 0.00 | 0.00 | 52 | 1011.7 |
| 20260509182205 | 66 | 99 | 0.9 | 3.5 | 0.00 | 0.00 | 0.00 | 52 | 1011.7 |
| 20260509182105 | 66 | 95 | 0.9 | 3.5 | 0.00 | 0.00 | 0.00 | 52 | 1011.7 |
| 20260509182005 | 66 | 96 | 0.9 | 3.5 | 0.00 | 0.00 | 0.00 | 52 | 1011.7 |
| 20260509181905 | 66 | 96 | 0.9 | 3.5 | 0.00 | 0.00 | 0.00 | 51 | 1011.7 |
| 20260509181805 | 66 | 82 | 0.9 | 3.5 | 0.00 | 0.00 | 0.00 | 51 | 1011.7 |
| 20260509181801 | 66 | 101 | 0.9 | 3.5 | 0.00 | 0.00 | 0.00 | 51 | 1011.7 |
| 20260509181705 | 66 | 101 | 0.9 | 3.5 | 0.00 | 0.00 | 0.00 | 51 | 1011.7 |
| 20260509181606 | 66 | 90 | 0.9 | 3.5 | 0.00 | 0.00 | 0.00 | 51 | 1011.7 |
| 20260509181506 | 66 | 90 | 0.9 | 3.5 | 0.00 | 0.00 | 0.00 | 51 | 1011.7 |
| 20260509181405 | 66 | 88 | 0.9 | 3.5 | 0.00 | 0.00 | 0.00 | 51 | 1011.6 |
| 20260509181300 | 66 | 85 | 0.9 | 3.5 | 0.00 | 0.00 | 0.00 | 51 | 1011.7 |
| 20260509181203 | 66 | 83 | 0.9 | 3.5 | 0.00 | 0.00 | 0.00 | 51 | 1011.7 |
| 20260509181103 | 67 | 83 | 0.9 | 3.5 | 0.00 | 0.00 | 0.00 | 52 | 1011.7 |
| 20260509181001 | 67 | 100 | 0.9 | 3.5 | 0.00 | 0.00 | 0.00 | 51 | 1011.7 |
| 20260509180901 | 67 | 108 | 0.9 | 6.1 | 0.00 | 0.00 | 0.00 | 51 | 1011.7 |
| 20260509180801 | 67 | 90 | 0.9 | 6.1 | 0.00 | 0.00 | 0.00 | 51 | 1011.6 |
| 20260509180701 | 67 | 98 | 1.7 | 6.1 | 0.00 | 0.00 | 0.00 | 51 | 1011.7 |
| 20260509180601 | 67 | 98 | 1.7 | 6.1 | 0.00 | 0.00 | 0.00 | 51 | 1011.6 |
| 20260509180501 | 67 | 94 | 1.7 | 6.1 | 0.00 | 0.00 | 0.00 | 50 | 1011.7 |
| 20260509180401 | 67 | 91 | 1.7 | 6.1 | 0.00 | 0.00 | 0.00 | 50 | 1011.7 |
| 20260509180302 | 67 | 90 | 1.7 | 7.0 | 0.00 | 0.00 | 0.00 | 50 | 1011.6 |
| 20260509180201 | 67 | 131 | 1.7 | 7.0 | 0.00 | 0.00 | 0.00 | 50 | 1011.6 |
| 20260509180001 | 67 | 97 | 1.7 | 7.0 | 0.00 | 0.00 | 0.00 | 50 | 1011.6 |
| 20260509175901 | 67 | 37 | 1.7 | 7.8 | 0.00 | 0.00 | 0.00 | 49 | 1011.6 |
| 20260509175801 | 67 | 112 | 1.7 | 7.8 | 0.00 | 0.00 | 0.00 | 49 | 1011.6 |
| 20260509175701 | 67 | 130 | 1.7 | 7.8 | 0.00 | 0.00 | 0.00 | 49 | 1011.6 |
| 20260509175600 | 67 | 80 | 1.7 | 7.8 | 0.00 | 0.00 | 0.00 | 49 | 1011.6 |
| 20260509175500 | 67 | 96 | 1.7 | 7.8 | 0.00 | 0.00 | 0.00 | 49 | 1011.6 |
| 20260509175400 | 67 | 88 | 1.7 | 7.8 | 0.00 | 0.00 | 0.00 | 49 | 1011.6 |
| 20260509175301 | 67 | 81 | 1.7 | 7.8 | 0.00 | 0.00 | 0.00 | 49 | 1011.6 |
| 20260509175201 | 67 | 91 | 1.7 | 7.8 | 0.00 | 0.00 | 0.00 | 49 | 1011.6 |
| 20260509175101 | 67 | 109 | 1.7 | 7.8 | 0.00 | 0.00 | 0.00 | 48 | 1011.6 |
| 20260509175020 | 67 | 108 | 1.7 | 7.8 | 0.00 | 0.00 | 0.00 | 48 | 1011.6 |
| 20260509175016 | 67 | 108 | 1.7 | 6.1 | 0.00 | 0.00 | 0.00 | 48 | 1011.6 |
| 20260509175012 | 67 | 107 | 1.7 | 6.1 | 0.00 | 0.00 | 0.00 | 48 | 1011.6 |
| 20260509174701 | 68 | 91 | 1.7 | 6.1 | 0.00 | 0.00 | 0.00 | 48 | 1011.6 |
| 20260509174606 | 68 | 106 | 1.7 | 6.1 | 0.00 | 0.00 | 0.00 | 48 | 1011.6 |
| 20260509174501 | 68 | 97 | 1.7 | 6.1 | 0.00 | 0.00 | 0.00 | 48 | 1011.6 |
| 20260509174401 | 68 | 84 | 1.7 | 6.1 | 0.00 | 0.00 | 0.00 | 48 | 1011.6 |
| 20260509174301 | 68 | 114 | 1.7 | 6.1 | 0.00 | 0.00 | 0.00 | 48 | 1011.6 |
| 20260509174200 | 68 | 82 | 1.7 | 6.1 | 0.00 | 0.00 | 0.00 | 48 | 1011.6 |
| 20260509174103 | 68 | 133 | 1.7 | 6.1 | 0.00 | 0.00 | 0.00 | 48 | 1011.6 |
| 20260509174001 | 68 | 73 | 0.9 | 6.1 | 0.00 | 0.00 | 0.00 | 48 | 1011.6 |
| 20260509173901 | 68 | 67 | 0.9 | 6.1 | 0.00 | 0.00 | 0.00 | 48 | 1011.6 |
| 20260509173800 | 68 | 67 | 0.9 | 6.1 | 0.00 | 0.00 | 0.00 | 48 | 1011.6 |
| 20260509173701 | 68 | 67 | 0.9 | 6.1 | 0.00 | 0.00 | 0.00 | 48 | 1011.6 |
| 20260509173601 | 68 | 82 | 0.9 | 6.1 | 0.00 | 0.00 | 0.00 | 47 | 1011.6 |
| 20260509173501 | 68 | 83 | 1.7 | 6.1 | 0.00 | 0.00 | 0.00 | 47 | 1011.6 |
| 20260509173402 | 68 | 82 | 1.7 | 6.1 | 0.00 | 0.00 | 0.00 | 48 | 1011.6 |
| 20260509173301 | 68 | 104 | 1.7 | 6.1 | 0.00 | 0.00 | 0.00 | 48 | 1011.5 |
| 20260509173201 | 68 | 103 | 1.7 | 6.1 | 0.00 | 0.00 | 0.00 | 47 | 1011.6 |
| 20260509173101 | 68 | 79 | 1.7 | 6.1 | 0.00 | 0.00 | 0.00 | 48 | 1011.5 |
| 20260509173001 | 68 | 92 | 1.7 | 6.1 | 0.00 | 0.00 | 0.00 | 48 | 1011.6 |
| 20260509172901 | 68 | 78 | 1.7 | 6.1 | 0.00 | 0.00 | 0.00 | 48 | 1011.6 |
| 20260509172801 | 68 | 38 | 1.7 | 5.2 | 0.00 | 0.00 | 0.00 | 47 | 1011.6 |
| 20260509172701 | 68 | 38 | 1.7 | 5.2 | 0.00 | 0.00 | 0.00 | 47 | 1011.6 |
| 20260509172601 | 68 | 121 | 1.7 | 5.2 | 0.00 | 0.00 | 0.00 | 47 | 1011.5 |
| 20260509172501 | 68 | 107 | 1.7 | 7.8 | 0.00 | 0.00 | 0.00 | 47 | 1011.5 |
| 20260509172401 | 68 | 98 | 1.7 | 7.8 | 0.00 | 0.00 | 0.00 | 47 | 1011.5 |
| 20260509172300 | 68 | 71 | 1.7 | 7.8 | 0.00 | 0.00 | 0.00 | 47 | 1011.6 |
| 20260509172200 | 68 | 57 | 1.7 | 7.8 | 0.00 | 0.00 | 0.00 | 47 | 1011.6 |
| 20260509172100 | 68 | 90 | 1.7 | 7.8 | 0.00 | 0.00 | 0.00 | 47 | 1011.6 |
| 20260509172020 | 68 | 100 | 1.7 | 7.8 | 0.00 | 0.00 | 0.00 | 47 | 1011.6 |
| 20260509172016 | 68 | 88 | 1.7 | 7.8 | 0.00 | 0.00 | 0.00 | 47 | 1011.6 |
| 20260509172012 | 68 | 108 | 1.7 | 7.8 | 0.00 | 0.00 | 0.00 | 46 | 1011.6 |
| 20260509171701 | 68 | 108 | 1.7 | 7.8 | 0.00 | 0.00 | 0.00 | 47 | 1011.6 |
| 20260509171601 | 68 | 73 | 1.7 | 7.8 | 0.00 | 0.00 | 0.00 | 47 | 1011.6 |
| 20260509171500 | 68 | 96 | 1.7 | 7.0 | 0.00 | 0.00 | 0.00 | 47 | 1011.6 |
| 20260509171400 | 68 | 89 | 1.7 | 7.0 | 0.00 | 0.00 | 0.00 | 47 | 1011.6 |
| 20260509171300 | 68 | 90 | 1.7 | 7.0 | 0.00 | 0.00 | 0.00 | 47 | 1011.6 |
| 20260509171201 | 68 | 59 | 0.9 | 7.0 | 0.00 | 0.00 | 0.00 | 47 | 1011.5 |
| 20260509171101 | 69 | 86 | 0.9 | 3.5 | 0.00 | 0.00 | 0.00 | 46 | 1011.5 |
| 20260509171001 | 69 | 94 | 0.9 | 3.5 | 0.00 | 0.00 | 0.00 | 46 | 1011.6 |
| 20260509170901 | 69 | 102 | 0.9 | 3.5 | 0.00 | 0.00 | 0.00 | 46 | 1011.6 |
| 20260509170801 | 69 | 73 | 0.9 | 3.5 | 0.00 | 0.00 | 0.00 | 46 | 1011.5 |
| 20260509170701 | 69 | 68 | 0.9 | 3.5 | 0.00 | 0.00 | 0.00 | 45 | 1011.6 |
| 20260509170601 | 69 | 67 | 0.9 | 3.5 | 0.00 | 0.00 | 0.00 | 45 | 1011.6 |
| 20260509170502 | 69 | 84 | 0.9 | 6.1 | 0.00 | 0.00 | 0.00 | 45 | 1011.6 |
| 20260509170400 | 69 | 91 | 0.9 | 6.1 | 0.00 | 0.00 | 0.00 | 45 | 1011.5 |
| 20260509170301 | 69 | 86 | 0.9 | 6.1 | 0.00 | 0.00 | 0.00 | 44 | 1011.5 |
| 20260509170201 | 69 | 84 | 0.9 | 6.1 | 0.00 | 0.00 | 0.00 | 45 | 1011.5 |
| 20260509170001 | 69 | 101 | 1.7 | 6.1 | 0.00 | 0.00 | 0.00 | 45 | 1011.5 |
| 20260509165901 | 69 | 95 | 1.7 | 6.1 | 0.00 | 0.00 | 0.00 | 44 | 1011.5 |
| 20260509165801 | 69 | 67 | 1.7 | 6.1 | 0.00 | 0.00 | 0.00 | 45 | 1011.5 |
| 20260509165701 | 69 | 48 | 1.7 | 6.1 | 0.00 | 0.00 | 0.00 | 44 | 1011.5 |
| 20260509165600 | 69 | 98 | 1.7 | 6.1 | 0.00 | 0.00 | 0.00 | 44 | 1011.5 |
| 20260509165501 | 69 | 109 | 1.7 | 6.1 | 0.00 | 0.00 | 0.00 | 44 | 1011.5 |
| 20260509165401 | 69 | 85 | 1.7 | 7.8 | 0.00 | 0.00 | 0.00 | 45 | 1011.5 |
| 20260509165301 | 69 | 88 | 2.6 | 7.8 | 0.00 | 0.00 | 0.00 | 45 | 1011.5 |
| 20260509165200 | 69 | 85 | 2.6 | 7.8 | 0.00 | 0.00 | 0.00 | 44 | 1011.5 |
| 20260509165100 | 69 | 87 | 2.6 | 7.8 | 0.00 | 0.00 | 0.00 | 44 | 1011.6 |
| 20260509165001 | 69 | 89 | 2.6 | 8.7 | 0.00 | 0.00 | 0.00 | 44 | 1011.5 |
| 20260509164901 | 69 | 103 | 2.6 | 8.7 | 0.00 | 0.00 | 0.00 | 44 | 1011.6 |
| 20260509164801 | 69 | 86 | 2.6 | 8.7 | 0.00 | 0.00 | 0.00 | 44 | 1011.6 |
| 20260509164701 | 70 | 205 | 2.6 | 8.7 | 0.00 | 0.00 | 0.00 | 44 | 1011.6 |
| 20260509164601 | 70 | 82 | 2.6 | 8.7 | 0.00 | 0.00 | 0.00 | 44 | 1011.6 |
| 20260509164501 | 70 | 98 | 2.6 | 8.7 | 0.00 | 0.00 | 0.00 | 44 | 1011.6 |
| 20260509164401 | 70 | 112 | 1.7 | 8.7 | 0.00 | 0.00 | 0.00 | 44 | 1011.6 |
| 20260509164301 | 70 | 77 | 1.7 | 8.7 | 0.00 | 0.00 | 0.00 | 45 | 1011.6 |
| 20260509164201 | 70 | 98 | 2.6 | 8.7 | 0.00 | 0.00 | 0.00 | 44 | 1011.6 |
| 20260509164100 | 70 | 98 | 2.6 | 8.7 | 0.00 | 0.00 | 0.00 | 44 | 1011.6 |
| 20260509164019 | 70 | 120 | 2.6 | 8.7 | 0.00 | 0.00 | 0.00 | 45 | 1011.6 |
| 20260509164015 | 70 | 109 | 2.6 | 8.7 | 0.00 | 0.00 | 0.00 | 44 | 1011.6 |
| 20260509164011 | 70 | 107 | 2.6 | 8.7 | 0.00 | 0.00 | 0.00 | 44 | 1011.6 |
| 20260509163701 | 70 | 55 | 2.6 | 8.7 | 0.00 | 0.00 | 0.00 | 45 | 1011.6 |
| 20260509163601 | 70 | 96 | 2.6 | 8.7 | 0.00 | 0.00 | 0.00 | 45 | 1011.6 |
| 20260509163520 | 70 | 135 | 2.6 | 8.7 | 0.00 | 0.00 | 0.00 | 45 | 1011.6 |
| 20260509163516 | 70 | 67 | 2.6 | 8.7 | 0.00 | 0.00 | 0.00 | 45 | 1011.6 |
| 20260509163512 | 70 | 71 | 2.6 | 8.7 | 0.00 | 0.00 | 0.00 | 45 | 1011.6 |
| 20260509163201 | 70 | 92 | 2.6 | 8.7 | 0.00 | 0.00 | 0.00 | 46 | 1011.6 |
| 20260509163101 | 70 | 80 | 2.6 | 8.7 | 0.00 | 0.00 | 0.00 | 45 | 1011.6 |
| 20260509163001 | 69 | 58 | 2.6 | 7.0 | 0.00 | 0.00 | 0.00 | 44 | 1011.6 |
| 20260509162901 | 69 | 98 | 1.7 | 7.0 | 0.00 | 0.00 | 0.00 | 45 | 1011.6 |
| 20260509162801 | 69 | 91 | 1.7 | 7.0 | 0.00 | 0.00 | 0.00 | 44 | 1011.7 |
| 20260509162701 | 69 | 91 | 1.7 | 7.0 | 0.00 | 0.00 | 0.00 | 44 | 1011.7 |
| 20260509162601 | 69 | 101 | 1.7 | 7.0 | 0.00 | 0.00 | 0.00 | 45 | 1011.7 |
| 20260509162520 | 69 | 76 | 1.7 | 6.1 | 0.00 | 0.00 | 0.00 | 45 | 1011.7 |
| 20260509162516 | 69 | 103 | 0.9 | 6.1 | 0.00 | 0.00 | 0.00 | 44 | 1011.8 |
| 20260509162512 | 69 | 105 | 1.7 | 6.1 | 0.00 | 0.00 | 0.00 | 44 | 1011.7 |
| 20260509162201 | 69 | 91 | 1.7 | 6.1 | 0.00 | 0.00 | 0.00 | 44 | 1011.7 |
| 20260509162101 | 69 | 76 | 1.7 | 6.1 | 0.00 | 0.00 | 0.00 | 44 | 1011.8 |
| 20260509162001 | 69 | 117 | 1.7 | 5.2 | 0.00 | 0.00 | 0.00 | 44 | 1011.8 |
| 20260509161901 | 70 | 110 | 1.7 | 5.2 | 0.00 | 0.00 | 0.00 | 44 | 1011.8 |
| 20260509161801 | 70 | 111 | 1.7 | 6.1 | 0.00 | 0.00 | 0.00 | 44 | 1011.7 |
| 20260509161700 | 70 | 112 | 1.7 | 6.1 | 0.00 | 0.00 | 0.00 | 43 | 1011.8 |
| 20260509161600 | 70 | 114 | 1.7 | 6.1 | 0.00 | 0.00 | 0.00 | 43 | 1011.8 |
| 20260509161501 | 70 | 78 | 1.7 | 6.1 | 0.00 | 0.00 | 0.00 | 43 | 1011.8 |
| 20260509161401 | 70 | 80 | 1.7 | 6.1 | 0.00 | 0.00 | 0.00 | 43 | 1011.8 |
| 20260509161300 | 70 | 93 | 1.7 | 6.1 | 0.00 | 0.00 | 0.00 | 43 | 1011.8 |
| 20260509161200 | 70 | 99 | 1.7 | 6.1 | 0.00 | 0.00 | 0.00 | 43 | 1011.8 |
| 20260509161100 | 70 | 114 | 1.7 | 7.8 | 0.00 | 0.00 | 0.00 | 42 | 1011.8 |
| 20260509161000 | 70 | 42 | 1.7 | 7.8 | 0.00 | 0.00 | 0.00 | 42 | 1011.8 |
| 20260509160901 | 70 | 84 | 1.7 | 7.8 | 0.00 | 0.00 | 0.00 | 43 | 1011.8 |
| 20260509160801 | 70 | 126 | 1.7 | 7.8 | 0.00 | 0.00 | 0.00 | 42 | 1011.9 |
| 20260509160701 | 71 | 85 | 1.7 | 7.8 | 0.00 | 0.00 | 0.00 | 43 | 1011.9 |
| 20260509160601 | 71 | 98 | 1.7 | 7.8 | 0.00 | 0.00 | 0.00 | 44 | 1011.9 |
| 20260509160526 | 71 | 100 | 1.7 | 7.8 | 0.00 | 0.00 | 0.00 | 42 | 1011.9 |
| 20260509160516 | 71 | 99 | 1.7 | 7.8 | 0.00 | 0.00 | 0.00 | 43 | 1011.8 |
| 20260509160512 | 71 | 103 | 1.7 | 7.8 | 0.00 | 0.00 | 0.00 | 43 | 1011.9 |
| 20260509160255 | 71 | 104 | 1.7 | 7.8 | 0.00 | 0.00 | 0.00 | 42 | 1011.9 |
| 20260509160155 | 71 | 92 | 1.7 | 7.8 | 0.00 | 0.00 | 0.00 | 42 | 1011.8 |
| 20260509160055 | 71 | 116 | 1.7 | 7.0 | 0.00 | 0.00 | 0.00 | 42 | 1011.9 |
| 20260509155956 | 71 | 111 | 1.7 | 7.0 | 0.00 | 0.00 | 0.00 | 42 | 1011.9 |
| 20260509155855 | 71 | 129 | 1.7 | 7.0 | 0.00 | 0.00 | 0.00 | 42 | 1011.9 |
| 20260509155801 | 71 | 99 | 1.7 | 7.0 | 0.00 | 0.00 | 0.00 | 42 | 1011.9 |
| 20260509155749 | 71 | 98 | 1.7 | 7.0 | 0.00 | 0.00 | 0.00 | 42 | 1011.9 |
| 20260509155648 | 71 | 93 | 2.6 | 7.0 | 0.00 | 0.00 | 0.00 | 42 | 1011.9 |
| 20260509155548 | 71 | 101 | 2.6 | 7.8 | 0.00 | 0.00 | 0.00 | 43 | 1011.9 |
| 20260509155449 | 71 | 97 | 2.6 | 7.8 | 0.00 | 0.00 | 0.00 | 42 | 1011.9 |
| 20260509155349 | 71 | 97 | 2.6 | 7.8 | 0.00 | 0.00 | 0.00 | 42 | 1011.9 |
| 20260509155301 | 71 | 75 | 2.6 | 7.8 | 0.00 | 0.00 | 0.00 | 42 | 1011.9 |
| 20260509155245 | 71 | 72 | 2.6 | 7.8 | 0.00 | 0.00 | 0.00 | 42 | 1011.9 |
| 20260509155145 | 71 | 72 | 2.6 | 7.8 | 0.00 | 0.00 | 0.00 | 42 | 1012.0 |
| 20260509155044 | 71 | 93 | 2.6 | 7.8 | 0.00 | 0.00 | 0.00 | 42 | 1011.9 |
| 20260509154945 | 71 | 79 | 2.6 | 7.8 | 0.00 | 0.00 | 0.00 | 41 | 1012.0 |
| 20260509154843 | 71 | 101 | 3.5 | 7.8 | 0.00 | 0.00 | 0.00 | 41 | 1011.9 |
| 20260509154800 | 72 | 114 | 3.5 | 7.8 | 0.00 | 0.00 | 0.00 | 41 | 1011.9 |
| 20260509154741 | 72 | 116 | 2.6 | 7.8 | 0.00 | 0.00 | 0.00 | 41 | 1011.9 |
| 20260509154641 | 72 | 86 | 2.6 | 7.8 | 0.00 | 0.00 | 0.00 | 41 | 1011.9 |
| 20260509154541 | 72 | 70 | 2.6 | 7.8 | 0.00 | 0.00 | 0.00 | 41 | 1011.9 |
| 20260509154440 | 72 | 73 | 2.6 | 7.8 | 0.00 | 0.00 | 0.00 | 41 | 1011.9 |
| 20260509154340 | 72 | 113 | 2.6 | 7.8 | 0.00 | 0.00 | 0.00 | 42 | 1011.9 |
| 20260509154301 | 72 | 69 | 2.6 | 7.8 | 0.00 | 0.00 | 0.00 | 41 | 1011.9 |
| 20260509154241 | 72 | 107 | 2.6 | 7.8 | 0.00 | 0.00 | 0.00 | 41 | 1011.9 |
| 20260509154141 | 72 | 55 | 1.7 | 7.8 | 0.00 | 0.00 | 0.00 | 41 | 1011.9 |
| 20260509154041 | 72 | 75 | 1.7 | 7.8 | 0.00 | 0.00 | 0.00 | 42 | 1011.9 |
| 20260509153940 | 72 | 128 | 1.7 | 7.8 | 0.00 | 0.00 | 0.00 | 41 | 1011.9 |
| 20260509153840 | 72 | 82 | 1.7 | 7.8 | 0.00 | 0.00 | 0.00 | 41 | 1011.9 |
| 20260509153801 | 72 | 84 | 1.7 | 7.8 | 0.00 | 0.00 | 0.00 | 42 | 1011.9 |
| 20260509153741 | 72 | 94 | 1.7 | 7.8 | 0.00 | 0.00 | 0.00 | 42 | 1011.9 |
| 20260509153641 | 72 | 57 | 1.7 | 7.8 | 0.00 | 0.00 | 0.00 | 43 | 1011.9 |
| 20260509153541 | 72 | 75 | 1.7 | 7.8 | 0.00 | 0.00 | 0.00 | 42 | 1012.0 |